[[{"header":{"parameterUnit":"m.s-1","parameterCategory":1,"la1":31.0,"la2":29.5877,"lo1":-88.7671,"lo2":-86.6584,"dx":0.0162,"dy":0.0185,"nx":115,"ny":88,"refTime":"2023-01-11T06:00:00:Z","depth":0,"parameterNumber":2,"parameterNumberName":"U-component_of_WINDS"},"data":[0.0,0.0,0.0,0.0,0.0,0.0,0.0,0.0,0.0,0.0,0.0,0.0,0.0,0.0,0.0,0.0,0.0,0.0,0.0,0.0,0.0,0.0,0.0,0.0,0.0,0.0,0.0,0.0,0.0,0.0,0.0,0.0,0.0,0.0,0.0,0.0,0.0,0.0,0.0,0.0,0.0,0.0,0.0,0.0,0.0,0.0,0.0,0.0,0.0,0.0,0.0,0.0,0.0,0.0,0.0,0.0,0.0,0.0,0.0,0.0,0.0,0.0,0.0,0.0,0.0,0.0,0.0,0.0,0.0,0.0,0.0,0.0,0.0,0.0,0.0,0.0,0.0,0.0,0.0,0.0,0.0,0.0,0.0,0.0,0.0,0.0,0.0,0.0,0.0,0.0,0.0,0.0,0.0,0.0,0.0,0.0,0.0,0.0,0.0,0.0,0.0,0.0,0.0,0.0,0.0,0.0,0.0,0.0,0.0,0.0,0.0,0.0,0.0,0.0,0.0,0.0,0.0,0.0,0.0,0.0,0.0,0.0,0.0,0.0,0.0,0.0,0.0,0.0,0.0,0.0,0.0,0.0,0.0,0.0,0.0,0.0,0.0,0.0,0.0,0.0,0.0,0.0,0.0,0.0,0.0,0.0,0.0,0.0,0.0,0.0,0.0,0.0,0.0,0.0,0.0,0.0,0.0,0.0,0.0,0.0,0.0,0.0,0.0,0.0,0.0,0.0,0.0,0.0,0.0,0.0,0.0,0.0,0.0,0.0,0.0,0.0,0.0,0.0,0.0,0.0,0.0,0.0,0.0,0.0,0.0,0.0,0.0,0.0,0.0,0.0,0.0,0.0,0.0,0.0,0.0,0.0,0.0,0.0,0.0,0.0,0.0,0.0,0.0,0.0,0.0,0.0,0.0,0.0,0.0,0.0,0.0,0.0,0.0,0.0,0.0,0.0,0.0,0.0,0.0,0.0,0.0,0.0,0.0,0.0,0.0,0.0,0.0,0.0,0.0,0.0,0.0,0.0,0.0,0.0,0.0,0.0,0.0,0.0,0.0,0.0,0.0,0.0,0.0,0.0,0.0,0.0,0.0,0.0,0.0,0.0,0.0,0.0,0.0,0.0,0.0,0.0,0.0,0.0,0.0,0.0,0.0,0.0,0.0,0.0,0.0,0.0,0.0,0.0,0.0,0.0,0.0,0.0,0.0,0.0,0.0,0.0,0.0,0.0,0.0,0.0,0.0,0.0,0.0,0.0,0.0,0.0,0.0,0.0,0.0,0.0,0.0,0.0,0.0,0.0,0.0,0.0,0.0,0.0,0.0,0.0,0.0,0.0,0.0,0.0,0.0,0.0,0.0,0.0,0.0,0.0,0.0,0.0,0.0,0.0,0.0,0.0,0.0,0.0,0.0,0.0,0.0,0.0,0.0,0.0,0.0,0.0,0.0,0.0,0.0,0.0,0.0,0.0,0.0,0.0,0.0,0.0,0.0,0.0,0.0,0.0,0.0,0.0,0.0,0.0,0.0,0.0,0.0,0.0,0.0,0.0,0.0,0.0,0.0,0.0,0.0,0.0,0.0,0.0,0.0,0.0,0.0,0.0,0.0,0.0,0.0,0.0,0.0,0.0,0.0,0.0,0.0,0.0,0.0,0.0,0.0,0.0,0.0,0.0,0.0,0.0,0.0,0.0,0.0,0.0,0.0,0.0,0.0,0.0,0.0,0.0,0.0,0.0,0.0,0.0,0.0,0.0,0.0,0.0,0.0,0.0,0.0,0.0,0.0,0.0,0.0,0.0,0.0,0.0,0.0,0.0,0.0,0.0,0.0,0.0,0.0,0.0,0.0,0.0,0.0,0.0,0.0,0.0,0.0,0.0,0.0,0.0,0.0,0.0,0.0,0.0,0.0,0.0,0.0,0.0,0.0,0.0,0.0,0.0,0.0,0.0,0.0,0.0,0.0,0.0,0.0,0.0,0.0,0.0,0.0,0.0,0.0,0.0,0.0,0.0,0.0,0.0,0.0,0.0,0.0,0.0,0.0,0.0,0.0,0.0,0.0,0.0,0.0,0.0,0.0,0.0,0.0,0.0,0.0,0.0,0.0,0.0,0.0,0.0,0.0,0.0,0.0,0.0,0.0,0.0,0.0,0.0,0.0,0.0,0.0,0.0,0.0,0.0,0.0,0.0,0.0,0.0,0.0,0.0,0.0,0.0,0.0,0.0,0.0,0.0,0.0,0.0,0.0,0.0,0.0,0.0,0.0,0.0,0.0,0.0,0.0,0.0,0.0,0.0,0.0,0.0,0.0,0.0,0.0,0.0,0.0,0.0,0.0,0.0,0.0,0.0,0.0,0.0,0.0,0.0,0.0,0.0,0.0,0.0,0.0,0.0,0.0,0.0,0.0,0.0,0.0,0.0,0.0,0.0,0.0,0.0,0.0,0.0,0.0,0.0,0.0,0.0,0.0,0.0,0.0,0.0,0.0,0.0,0.0,0.0,0.0,0.0,0.0,0.0,0.0,0.0,0.0,0.0,0.0,0.0,0.0,0.0,0.0,0.0,0.0,0.0,0.0,0.0,0.0,0.0,0.0,0.0,0.0,0.0,0.0,0.0,0.0,0.0,0.0,0.0,0.0,0.0,0.0,0.0,0.0,0.0,0.0,0.0,0.0,0.0,0.0,0.0,0.0,0.0,0.0,0.0,0.0,0.0,0.0,0.0,0.0,0.0,0.0,0.0,0.0,0.0,0.0,0.0,0.0,0.0,0.0,0.0,0.0,0.0,0.0,0.0,0.0,0.0,0.0,0.0,0.0,0.0,0.0,0.0,0.0,0.0,0.0,0.0,0.0,0.0,0.0,0.0,0.0,0.0,0.0,0.0,0.0,0.0,0.0,0.0,0.0,0.0,0.0,0.0,0.0,0.0,0.0,0.0,0.0,0.0,0.0,0.0,0.0,0.0,0.0,0.0,0.0,0.0,0.0,0.0,0.0,0.0,0.0,0.0,0.0,0.0,0.0,0.0,0.0,0.0,0.0,0.0,0.0,0.0,0.0,0.0,0.0,0.0,0.0,0.0,0.0,0.0,0.0,0.0,0.0,0.0,0.0,0.0,0.0,0.0,0.0,0.0,0.0,0.0,0.0,0.0,0.0,0.0,0.0,0.0,0.0,0.0,0.0,0.0,0.0,0.0,0.0,0.0,0.0,0.0,0.0,0.0,0.0,0.0,0.0,0.0,0.0,0.0,0.0,0.0,0.0,0.0,0.0,0.0,0.0,0.0,0.0,0.0,0.0,0.0,0.0,0.0,0.0,0.0,0.0,0.0,0.0,0.0,0.0,0.0,0.0,0.0,0.0,0.0,0.0,0.0,0.0,0.0,0.0,0.0,0.0,0.0,0.0,0.0,0.0,0.0,0.0,0.0,0.0,0.0,0.0,0.0,0.0,0.0,0.0,0.0,0.0,0.0,0.0,0.0,0.0,0.0,0.0,0.0,0.0,0.0,0.0,0.0,0.0,0.0,0.0,0.0,0.0,0.0,0.0,0.0,0.0,0.0,0.0,0.0,0.0,0.0,0.0,0.0,0.0,0.0,0.0,0.0,0.0,0.0,0.0,0.0,0.0,0.0,0.0,0.0,0.0,0.0,0.0,0.0,0.0,0.0,0.0,0.0,0.0,0.0,0.0,0.0,0.0,0.0,0.0,0.0,0.0,0.0,0.0,0.0,0.0,0.0,0.0,0.0,0.0,0.0,0.0,0.0,0.0,0.0,0.0,0.0,0.0,0.0,0.0,0.0,0.0,0.0,0.0,0.0,0.0,0.0,0.0,0.0,0.0,0.0,0.0,0.0,0.0,0.0,0.0,0.0,0.0,0.0,0.0,0.0,0.0,0.0,0.0,0.0,0.0,0.0,0.0,0.0,0.0,0.0,0.0,0.0,0.0,0.0,0.0,0.0,0.0,0.0,0.0,0.0,0.0,0.0,0.0,0.0,0.0,0.0,0.0,0.0,0.0,0.0,0.0,0.0,0.0,0.0,0.0,0.0,0.0,0.0,0.0,0.0,0.0,0.0,0.0,0.0,0.0,0.0,0.0,0.0,0.0,0.0,0.0,0.0,0.0,0.0,0.0,0.0,0.0,0.0,0.0,0.0,0.0,0.0,0.0,0.0,0.0,0.0,0.0,0.0,0.0,0.0,0.0,0.0,0.0,0.0,0.0,0.0,0.0,0.0,0.0,0.0,0.0,0.0,0.0,0.0,0.0,0.0,-0.1685,0.0,0.0,0.0,-0.4706,0.0,0.0,0.0,0.0,0.0,0.0,0.0,0.0,0.0,0.0,0.0,0.0,0.0,0.0,0.0,0.0,0.0,0.0,0.0,0.0,0.0,0.0,0.0,0.0,0.0,0.0,0.0,0.0,0.0,0.0,0.0,0.0,0.0,0.0,0.0,0.0,0.0,0.0,0.0,0.0,0.0,0.0,0.0,0.0,0.0,0.0,0.0,0.0,0.0,0.0,0.0,0.0,0.0,0.0,0.0,0.0,0.0,0.0,0.0,0.0,0.0,0.0,0.0,0.0,0.0,0.0,0.0,0.0,0.0,0.0,0.0,0.0,0.0,0.0,0.0,0.0,0.0,0.0,0.0,0.0,0.0,0.0,0.0,0.0,0.0,0.0,0.0,0.0,0.0,0.0,0.0,0.0,0.0,0.0,0.0,0.0,0.0,0.0,0.0,0.0,0.0,0.0,0.0,0.0,0.0,0.0,0.0,0.0,0.0,0.0,-0.1719,-0.2559,-0.3964,-0.4799,-0.5127,0.0,0.0,0.0,0.0,0.0,0.0,0.0,0.0,0.0,0.0,0.0,0.0,0.0,0.0,0.0,0.0,0.0,0.0,0.0,0.0,0.0,0.0,0.0,0.0,0.0,0.0,0.0,0.0,0.0,0.0,0.0,0.0,0.0,0.0,0.0,0.0,0.0,0.0,0.0,0.0,0.0,0.0,0.0,0.0,0.0,0.0,0.0,0.0,0.0,0.0,0.0,0.0,0.0,0.0,0.0,0.0,0.0,0.0,0.0,0.0,0.0,0.0,0.0,0.0,0.0,0.0,0.0,0.0,0.0,0.0,0.0,0.0,0.0,0.0,0.0,0.0,0.0,0.0,0.0,0.0,0.0,0.0,0.0,0.0,0.0,0.0,0.0,0.0,0.0,0.0,0.0,0.0,0.0,0.0,0.0,0.0,0.0,0.0,0.0,0.0,0.0,0.0,0.0,0.0,0.0,0.0,0.0,0.0,0.0,0.0,0.0,0.0,-0.3952,-0.4981,-0.5527,0.0,0.0,0.0,0.0,0.0,0.0,0.0,0.0,0.0,0.0,0.0,0.0,0.0,0.0,0.0,0.0,0.0,0.0,0.0,0.0,0.0,0.0,0.0,0.0,0.0,0.0,0.0,0.0,0.0,0.0,0.0,0.0,0.0,0.0,0.0,0.0,0.0,0.0,0.0,0.0,0.0,0.0,0.0,0.0,0.0,0.0,0.0,0.0,0.0,0.0,0.0,0.0,0.0,0.0,0.0,0.0,0.0,0.0,0.0,0.0,0.0,0.0,0.0,0.0,0.0,0.0,0.0,0.0,0.0,0.0,0.0,0.0,0.0,0.0,0.0,0.0,0.0,0.0,0.0,0.0,0.0,0.0,0.0,0.0,0.0,0.0,0.0,0.0,0.0,0.0,0.0,0.0,0.0,0.0,0.0,0.0,0.0,0.0,0.0,0.0,0.0,0.0,0.0,0.0,0.0,0.0,0.0,0.0,0.0,0.0,-0.2212,-0.2681,-0.4099,0.0,-0.5871,0.0,0.0,0.0,0.0,0.0,0.0,0.0,0.0,0.0,0.0,0.0,0.0,0.0,0.0,0.0,0.0,0.0,0.0,0.0,0.0,0.0,0.0,0.0,0.0,0.0,0.0,0.0,0.0,0.0,0.0,0.0,0.0,0.0,0.0,0.0,0.0,0.0,0.0,0.0,0.0,0.0,0.0,0.0,0.0,0.0,0.0,0.0,0.0,0.0,0.0,0.0,0.0,0.0,0.0,0.0,0.0,0.0,0.0,0.0,0.0,0.0,0.0,0.0,0.0,0.0,0.0,0.0,0.0,0.0,0.0,0.0,0.0,0.0,0.0,0.0,0.0,0.0,0.0,0.0,0.0,0.0,0.0,0.0,0.0,0.0,0.0,0.0,0.0,0.0,0.0,0.0,0.0,0.0,0.0,0.0,0.0,0.0,0.0,0.0,0.0,0.0,0.0,0.0,0.0,0.0,0.0,0.0,0.0,0.0,0.0,-0.2728,-0.3169,-0.472,-0.574,0.0,0.0,0.0,0.0,0.0,0.0,0.0,0.0,0.0,0.0,0.0,0.0,0.0,0.0,0.0,0.0,0.0,0.0,0.0,0.0,0.0,0.0,0.0,0.0,0.0,0.0,0.0,0.0,0.0,0.0,0.0,0.0,0.0,0.0,0.0,0.0,0.0,0.0,0.0,0.0,0.0,0.0,0.0,0.0,0.0,0.0,0.0,0.0,0.0,0.0,0.0,0.0,0.0,0.0,0.0,0.0,0.0,0.0,0.0,0.0,0.0,0.0,0.0,0.0,0.0,0.0,0.0,0.0,0.0,0.0,0.0,0.0,0.0,0.0,0.0,0.0,0.0,0.0,0.0,0.0,0.0,0.0,0.0,0.0,0.0,0.0,0.0,0.0,0.0,0.0,0.0,0.0,0.0,0.0,0.0,0.0,0.0,0.0,0.0,0.0,0.0,0.0,0.0,0.0,0.0,0.0,0.0,0.0,0.0,0.0,-0.2726,-0.329,-0.4019,-0.5328,-0.6138,-0.6043,0.0,0.0,0.0,0.0,0.0,0.0,0.0,0.0,0.0,0.0,0.0,0.0,0.0,0.0,0.0,0.0,0.0,0.0,0.0,0.0,0.0,0.0,0.0,0.0,0.0,0.0,0.0,0.0,0.0,0.0,0.0,0.0,0.0,0.0,0.0,0.0,0.0,0.0,0.0,0.0,0.0,0.0,0.0,0.0,0.0,0.0,0.0,0.0,0.0,0.0,0.0,0.0,0.0,0.0,0.0,0.0,0.0,0.0,0.0,0.0,0.0,0.0,0.0,0.0,0.0,0.0,0.0,0.0,0.0,0.0,0.0,0.0,0.0,0.0,0.0,0.0,0.0,0.0,0.0,0.0,0.0,0.0,0.0,0.0,0.0,0.0,0.0,0.0,0.0,0.0,0.0,0.0,0.0,0.0,0.0,0.0,0.0,0.0,0.0,0.0,0.0,0.0,0.0,0.0,0.0,0.0,0.0,0.0,-0.2267,-0.2912,-0.3849,-0.527,-0.5813,-0.6138,0.0,0.0,0.0,0.0,0.0,0.0,0.0,0.0,0.0,0.0,0.0,0.0,0.0,0.0,0.0,0.0,0.0,0.0,0.0,0.0,0.0,0.0,0.0,0.0,0.0,0.0,0.0,0.0,0.0,0.0,0.0,0.0,0.0,0.0,0.0,0.0,0.0,0.0,0.0,0.0,0.0,0.0,0.0,0.0,0.0,0.0,0.0,0.0,0.0,0.0,0.0,0.0,0.0,0.0,0.0,0.0,0.0,0.0,0.0,0.0,0.0,0.0,0.0,0.0,0.0,0.0,0.0,0.0,0.0,0.0,0.0,0.0,0.0,0.0,0.0,0.0,0.0,0.0,0.0,0.0,0.0,0.0,0.0,0.0,0.0,0.0,0.0,0.0,0.0,0.0,0.0,0.0,0.0,0.0,0.0,0.0,0.0,0.0,0.0,0.0,0.0,0.0,0.0,0.0,0.0,0.0,0.0,0.0,0.0,-0.2947,-0.4142,-0.507,-0.5748,-0.6297,-0.658,0.0,0.0,0.0,0.0,0.0,0.0,0.0,0.0,0.0,0.0,0.0,0.0,0.0,0.0,0.0,0.0,0.0,0.0,0.0,0.0,0.0,0.0,0.0,0.0,0.0,0.0,0.0,0.0,0.0,0.0,0.0,0.0,0.0,0.0,0.0,0.0,0.0,0.0,0.0,0.0,0.0,0.0,0.0,0.0,0.0,0.0,0.0,0.0,0.0,0.0,0.0,0.0,0.0,0.0,0.0,0.0,0.0,0.0,0.0,0.0,0.0,0.0,0.0,0.0,0.0,0.0,0.0,0.0,0.0,0.0,0.0,0.0,0.0,0.0,0.0,0.0,0.0,0.0,0.0,0.0,0.0,0.0,0.0,0.0,0.0,0.0,0.0,0.0,0.0,0.0,0.0,0.0,0.0,0.0,0.0,0.0,0.0,0.0,0.0,0.0,0.0,0.0,0.0,0.0,0.0,0.0,0.0,0.0,0.0,-0.3905,-0.5089,-0.5958,-0.6328,-0.6759,-0.6853,0.0,0.0,0.0,0.0,0.0,0.0,0.0,0.0,0.0,0.0,0.0,0.0,0.0,0.0,0.0,0.0,0.0,0.0,0.0,0.0,0.0,0.0,0.0,0.0,0.0,0.0,0.0,0.0,0.0,0.0,0.0,0.0,0.0,0.0,0.0,0.0,0.0,0.0,0.0,0.0,0.0,0.0,0.0,0.0,0.0,0.0,0.0,0.0,0.0,0.0,0.0,0.0,0.0,0.0,0.0,0.0,0.0,0.0,0.0,0.0,0.0,0.0,0.0,0.0,0.0,0.0,0.0,0.0,0.0,0.0,0.0,0.0,0.0,0.0,0.0,0.0,0.0,0.0,0.0,0.0,0.0,0.0,0.0,0.0,0.0,0.0,0.0,0.0,0.0,0.0,0.0,0.0,0.0,0.0,0.0,0.0,0.0,0.0,0.0,0.0,0.0,0.0,0.0,0.0,0.0,0.0,0.0,0.0,-0.3566,-0.516,-0.5842,-0.6478,-0.712,-0.7098,-0.7034,0.0,0.0,0.0,0.0,0.0,0.0,0.0,0.0,0.0,0.0,0.0,0.0,0.0,0.0,0.0,0.0,0.0,0.0,0.0,0.0,0.0,0.0,0.0,0.0,0.0,0.0,0.0,0.0,0.0,0.0,0.0,0.0,0.0,0.0,0.0,0.0,0.0,0.0,0.0,0.0,0.0,0.0,0.0,0.0,0.0,0.0,0.0,0.0,0.0,0.0,0.0,0.0,0.0,0.0,0.0,0.0,0.0,0.0,0.0,0.0,0.0,0.0,0.0,0.0,0.0,0.0,0.0,0.0,0.0,0.0,0.0,0.0,0.0,0.0,0.0,0.0,0.0,0.0,0.0,0.0,0.0,0.0,0.0,0.0,0.0,0.0,0.0,0.0,0.0,0.0,0.0,0.0,0.0,0.0,0.0,0.0,0.0,0.0,0.0,0.0,0.0,0.0,0.0,0.0,0.0,0.0,0.0,0.0,0.0,-0.5786,-0.6592,-0.7211,-0.7511,-0.7561,-0.7416,0.0,0.0,0.0,0.0,0.0,0.0,0.0,0.0,0.0,0.0,0.0,0.0,0.0,0.0,0.0,0.0,0.0,0.0,0.0,0.0,0.0,0.0,0.0,0.0,0.0,0.0,0.0,0.0,0.0,0.0,0.0,0.0,0.0,0.0,0.0,0.0,0.0,0.0,0.0,0.0,0.0,0.0,0.0,0.0,0.0,0.0,0.0,0.0,0.0,0.0,0.0,0.0,0.0,0.0,0.0,0.0,0.0,0.0,0.0,0.0,0.0,0.0,0.0,0.0,0.0,0.0,0.0,0.0,0.0,0.0,0.0,0.0,0.0,0.0,0.0,0.0,0.0,0.0,0.0,0.0,0.0,0.0,0.0,0.0,0.0,0.0,0.0,0.0,0.0,0.0,0.0,0.0,0.0,0.0,0.0,0.0,0.0,0.0,0.0,0.0,0.0,0.0,0.0,0.0,0.0,0.0,0.0,0.0,0.0,-0.6703,-0.7425,-0.7814,-0.7988,-0.7939,-0.774,-0.74,0.0,0.0,0.0,0.0,0.0,0.0,0.0,0.0,0.0,0.0,0.0,0.0,0.0,0.0,0.0,0.0,0.0,0.0,0.0,0.0,0.0,0.0,0.0,0.0,0.0,0.0,0.0,0.0,0.0,0.0,0.0,0.0,0.0,0.0,0.0,0.0,0.0,0.0,0.0,0.0,0.0,0.0,0.0,0.0,0.0,0.0,0.0,0.0,0.0,0.0,0.0,0.0,0.0,0.0,0.0,0.0,0.0,0.0,0.0,0.0,0.0,0.0,0.0,0.0,0.0,0.0,0.0,0.0,0.0,0.0,0.0,0.0,0.0,0.0,0.0,0.0,0.0,0.0,0.0,0.0,0.0,0.0,0.0,0.0,0.0,0.0,0.0,0.0,0.0,0.0,0.0,0.0,0.0,0.0,0.0,0.0,0.0,0.0,0.0,0.0,0.0,0.0,0.0,0.0,0.0,0.0,0.0,0.0,-0.7733,-0.8037,-0.8388,-0.871,-0.8296,-0.7991,0.0,0.0,0.0,0.0,0.0,0.0,0.0,0.0,0.0,0.0,0.0,0.0,0.0,0.0,0.0,0.0,0.0,0.0,0.0,0.0,0.0,0.0,0.0,0.0,0.0,0.0,0.0,0.0,0.0,0.0,0.0,0.0,0.0,0.0,0.0,0.0,0.0,0.0,0.0,0.0,0.0,0.0,0.0,0.0,0.0,0.0,0.0,0.0,0.0,0.0,0.0,0.0,0.0,0.0,0.0,0.0,0.0,0.0,0.0,0.0,0.0,0.0,0.0,0.0,0.0,0.0,0.0,0.0,0.0,0.0,0.0,0.0,0.0,0.0,0.0,0.0,0.0,0.0,0.0,0.0,0.0,0.0,0.0,0.0,0.0,0.0,0.0,0.0,0.0,0.0,0.0,0.0,0.0,0.0,0.0,0.0,0.0,0.0,0.0,0.0,0.0,0.0,0.0,0.0,0.0,0.0,0.0,0.0,0.0,-0.8341,-0.9131,-0.9398,-0.9208,-0.9082,-0.886,0.0,0.0,0.0,0.0,0.0,0.0,0.0,0.0,0.0,0.0,0.0,0.0,0.0,0.0,0.0,0.0,0.0,0.0,0.0,0.0,0.0,0.0,0.0,0.0,0.0,0.0,0.0,0.0,0.0,0.0,0.0,0.0,0.0,0.0,0.0,0.0,0.0,0.0,0.0,0.0,0.0,0.0,0.0,0.0,0.0,0.0,0.0,0.0,0.0,0.0,0.0,0.0,0.0,0.0,0.0,0.0,0.0,0.0,0.0,0.0,0.0,0.0,0.0,0.0,0.0,0.0,0.0,0.0,0.0,0.0,0.0,0.0,0.0,0.0,0.0,0.0,0.0,0.0,0.0,0.0,0.0,0.0,0.0,0.0,0.0,0.0,0.0,0.0,0.0,0.0,0.0,0.0,0.0,0.0,0.0,0.0,0.0,0.0,0.0,0.0,0.0,0.0,0.0,0.0,0.0,0.0,0.0,0.0,-0.7766,-0.8991,-1.0044,-1.0499,-1.047,-1.0069,-0.9692,0.0,0.0,0.0,0.0,0.0,0.0,0.0,0.0,0.0,0.0,0.0,0.0,0.0,0.0,0.0,0.0,0.0,0.0,0.0,0.0,0.0,0.0,0.0,0.0,0.0,0.0,0.0,0.0,0.0,0.0,0.0,0.0,0.0,0.0,0.0,0.0,0.0,0.0,0.0,0.0,0.0,0.0,0.0,0.0,0.0,0.0,0.0,0.0,0.0,0.0,0.0,0.0,0.0,0.0,0.0,0.0,0.0,0.0,0.0,0.0,0.0,0.0,0.0,0.0,0.0,0.0,0.0,0.0,0.0,0.0,0.0,0.0,0.0,0.0,0.0,0.0,0.0,0.0,0.0,0.0,0.0,0.0,0.0,0.0,0.0,0.0,0.0,0.0,0.0,0.0,0.0,0.0,0.0,0.0,0.0,0.0,0.0,0.0,0.0,0.0,0.0,0.0,0.0,0.0,0.0,0.0,0.0,0.0,-0.8493,-0.9612,-1.0711,-1.1559,-1.209,-1.1109,-1.055,0.0,0.0,0.0,0.0,0.0,0.0,0.0,0.0,0.0,0.0,0.0,0.0,0.0,0.0,0.0,0.0,0.0,0.0,0.0,0.0,0.0,0.0,0.0,0.0,0.0,0.0,0.0,0.0,0.0,0.0,0.0,0.0,0.0,0.0,0.0,0.0,0.0,0.0,0.0,0.0,0.0,0.0,0.0,0.0,0.0,0.0,0.0,0.0,0.0,0.0,0.0,0.0,0.0,0.0,0.0,0.0,0.0,0.0,0.0,0.0,0.0,0.0,0.0,0.0,0.0,0.0,0.0,0.0,0.0,0.0,0.0,0.0,0.0,0.0,0.0,0.0,0.0,0.0,0.0,0.0,0.0,0.0,0.0,0.0,0.0,0.0,0.0,0.0,0.0,0.0,0.0,0.0,0.0,0.0,0.0,0.0,0.0,0.0,0.0,0.0,0.0,0.0,0.0,0.0,0.0,0.0,0.0,0.0,-0.8543,-0.9754,-1.1012,-1.2097,-1.2892,-1.2434,-1.2046,0.0,0.0,0.0,0.0,0.0,0.0,0.0,0.0,0.0,0.0,0.0,0.0,0.0,0.0,0.0,0.0,0.0,0.0,0.0,0.0,0.0,0.0,0.0,0.0,0.0,0.0,0.0,0.0,0.0,0.0,0.0,0.0,0.0,0.0,0.0,0.0,0.0,0.0,0.0,0.0,0.0,0.0,0.0,0.0,0.0,0.0,0.0,0.0,-1.7382,0.0,0.0,0.0,0.0,0.0,0.0,0.0,0.0,0.0,0.0,0.0,0.0,0.0,0.0,0.0,0.0,0.0,0.0,0.0,0.0,0.0,0.0,0.0,0.0,0.0,0.0,0.0,0.0,0.0,0.0,0.0,0.0,0.0,0.0,0.0,0.0,0.0,0.0,0.0,0.0,0.0,0.0,0.0,0.0,0.0,0.0,0.0,0.0,0.0,0.0,0.0,0.0,0.0,0.0,0.0,0.0,0.0,0.0,0.0,-0.9208,-1.0528,-1.176,-1.2955,-1.4023,-1.4198,-1.4072,0.0,0.0,0.0,0.0,0.0,0.0,0.0,0.0,0.0,0.0,0.0,0.0,0.0,0.0,0.0,0.0,0.0,0.0,0.0,0.0,0.0,0.0,0.0,0.0,0.0,0.0,0.0,0.0,0.0,0.0,0.0,0.0,0.0,0.0,0.0,0.0,0.0,0.0,0.0,0.0,0.0,0.0,0.0,0.0,0.0,0.0,0.0,0.0,0.0,0.0,0.0,0.0,0.0,0.0,0.0,0.0,0.0,0.0,0.0,0.0,0.0,0.0,0.0,0.0,0.0,0.0,0.0,0.0,0.0,0.0,0.0,0.0,0.0,0.0,0.0,0.0,0.0,0.0,0.0,0.0,0.0,0.0,0.0,0.0,0.0,0.0,0.0,0.0,0.0,0.0,0.0,0.0,0.0,0.0,0.0,0.0,0.0,0.0,0.0,0.0,0.0,0.0,0.0,0.0,0.0,0.0,0.0,-0.903,-1.0134,-1.1374,-1.2715,-1.3913,-1.5224,-1.5966,-1.5951,-1.5121,0.0,0.0,0.0,0.0,0.0,0.0,0.0,0.0,0.0,0.0,0.0,0.0,0.0,0.0,0.0,0.0,0.0,0.0,0.0,0.0,0.0,0.0,0.0,0.0,0.0,0.0,0.0,0.0,0.0,0.0,0.0,0.0,0.0,0.0,0.0,0.0,0.0,0.0,-1.6005,-1.7089,0.0,0.0,0.0,0.0,0.0,0.0,0.0,0.0,-1.9372,0.0,0.0,0.0,0.0,0.0,0.0,0.0,0.0,0.0,0.0,0.0,0.0,0.0,0.0,0.0,0.0,0.0,0.0,0.0,0.0,0.0,0.0,0.0,0.0,0.0,0.0,0.0,0.0,0.0,0.0,0.0,0.0,0.0,0.0,0.0,0.0,0.0,0.0,0.0,0.0,0.0,0.0,0.0,0.0,0.0,0.0,0.0,0.0,0.0,0.0,0.0,0.0,0.0,0.0,0.0,0.0,-0.8997,-0.9641,-1.0591,-1.1985,-1.3315,-1.4629,-1.5924,-1.6819,-1.7227,-1.7055,0.0,0.0,0.0,0.0,0.0,0.0,0.0,0.0,0.0,0.0,0.0,0.0,0.0,0.0,0.0,0.0,0.0,0.0,0.0,0.0,0.0,0.0,0.0,0.0,0.0,0.0,0.0,0.0,0.0,0.0,0.0,0.0,0.0,0.0,0.0,0.0,0.0,0.0,0.0,-1.832,-1.9122,0.0,0.0,0.0,0.0,0.0,0.0,0.0,0.0,-2.0241,0.0,0.0,0.0,0.0,0.0,0.0,0.0,0.0,0.0,0.0,0.0,0.0,0.0,0.0,0.0,0.0,0.0,0.0,0.0,0.0,0.0,0.0,0.0,0.0,0.0,0.0,0.0,0.0,0.0,0.0,0.0,0.0,0.0,0.0,0.0,0.0,0.0,0.0,0.0,0.0,0.0,0.0,0.0,0.0,0.0,0.0,0.0,0.0,0.0,0.0,0.0,0.0,0.0,0.0,0.0,-0.9588,-1.0738,-1.1993,-1.3364,-1.4841,-1.6002,-1.697,-1.7769,-1.8122,0.0,0.0,0.0,0.0,0.0,0.0,0.0,0.0,0.0,0.0,0.0,0.0,0.0,0.0,0.0,0.0,0.0,0.0,0.0,0.0,0.0,0.0,0.0,0.0,0.0,0.0,0.0,0.0,0.0,0.0,0.0,0.0,0.0,0.0,0.0,0.0,0.0,0.0,0.0,0.0,-1.8951,-1.9676,-1.9987,0.0,0.0,0.0,0.0,0.0,0.0,-2.1162,-2.1149,0.0,0.0,0.0,0.0,0.0,0.0,0.0,0.0,0.0,0.0,0.0,0.0,0.0,0.0,0.0,0.0,0.0,0.0,0.0,0.0,0.0,0.0,0.0,0.0,0.0,0.0,0.0,0.0,0.0,0.0,0.0,0.0,0.0,0.0,0.0,0.0,0.0,0.0,0.0,0.0,0.0,0.0,0.0,0.0,0.0,0.0,0.0,0.0,0.0,0.0,0.0,0.0,0.0,0.0,0.0,-1.0439,-1.1988,-1.3432,-1.4768,-1.628,-1.7422,-1.8203,-1.8644,-1.8814,0.0,0.0,0.0,0.0,0.0,0.0,0.0,0.0,0.0,0.0,0.0,0.0,0.0,0.0,0.0,0.0,0.0,0.0,0.0,0.0,0.0,0.0,0.0,0.0,0.0,0.0,0.0,0.0,0.0,0.0,0.0,0.0,0.0,0.0,0.0,0.0,0.0,0.0,0.0,0.0,0.0,-2.0294,-2.0935,-2.1269,0.0,0.0,0.0,0.0,-2.1911,-2.2058,0.0,0.0,0.0,0.0,0.0,0.0,0.0,0.0,0.0,0.0,0.0,0.0,0.0,0.0,0.0,0.0,0.0,0.0,0.0,0.0,0.0,0.0,0.0,0.0,0.0,0.0,0.0,0.0,0.0,0.0,0.0,0.0,0.0,0.0,0.0,0.0,0.0,0.0,0.0,0.0,0.0,0.0,0.0,0.0,0.0,0.0,0.0,0.0,0.0,0.0,0.0,0.0,0.0,0.0,0.0,0.0,-1.1795,-1.3259,-1.4686,-1.6156,-1.7168,-1.8141,-1.9082,-1.9163,-1.9102,0.0,0.0,0.0,0.0,0.0,0.0,0.0,0.0,0.0,0.0,0.0,0.0,0.0,0.0,0.0,0.0,0.0,0.0,0.0,0.0,0.0,0.0,0.0,0.0,0.0,0.0,0.0,0.0,0.0,0.0,0.0,0.0,0.0,0.0,0.0,0.0,0.0,0.0,0.0,0.0,0.0,-2.1269,-2.2098,-2.2472,-2.2659,0.0,0.0,-2.3126,-2.3126,-2.2926,0.0,0.0,0.0,0.0,0.0,0.0,0.0,0.0,0.0,0.0,0.0,0.0,0.0,0.0,0.0,0.0,0.0,0.0,0.0,0.0,0.0,0.0,0.0,0.0,0.0,0.0,0.0,0.0,0.0,0.0,0.0,0.0,0.0,0.0,0.0,0.0,0.0,0.0,0.0,0.0,0.0,0.0,0.0,0.0,0.0,0.0,0.0,0.0,0.0,0.0,0.0,0.0,0.0,0.0,0.0,-1.1456,-1.3049,-1.4558,-1.6074,-1.7564,-1.8447,-1.9137,-1.9743,-2.013,-1.9867,0.0,0.0,0.0,0.0,0.0,0.0,0.0,0.0,0.0,0.0,0.0,0.0,0.0,0.0,0.0,0.0,0.0,0.0,0.0,0.0,0.0,0.0,0.0,0.0,0.0,0.0,0.0,0.0,0.0,0.0,0.0,0.0,0.0,0.0,0.0,0.0,0.0,0.0,0.0,0.0,0.0,0.0,-2.2552,-2.3073,0.0,0.0,0.0,-2.3634,-2.3808,0.0,0.0,0.0,0.0,0.0,0.0,0.0,0.0,0.0,0.0,0.0,0.0,0.0,0.0,0.0,0.0,0.0,0.0,0.0,0.0,0.0,0.0,0.0,0.0,0.0,0.0,0.0,0.0,0.0,0.0,0.0,0.0,0.0,0.0,0.0,0.0,0.0,0.0,0.0,0.0,0.0,0.0,0.0,0.0,0.0,0.0,0.0,0.0,0.0,0.0,0.0,0.0,0.0,0.0,0.0,0.0,0.0,-1.4262,-1.6038,-1.7691,-1.9016,-1.972,-2.017,-2.0637,-2.0882,0.0,0.0,0.0,0.0,0.0,0.0,0.0,0.0,0.0,0.0,0.0,0.0,0.0,0.0,0.0,0.0,0.0,0.0,0.0,0.0,0.0,0.0,0.0,0.0,0.0,0.0,0.0,-1.5217,0.0,0.0,0.0,0.0,0.0,0.0,0.0,0.0,0.0,0.0,0.0,0.0,0.0,0.0,-2.2124,-2.306,-2.3714,-2.4128,0.0,0.0,-2.4275,-2.4502,-2.4289,-2.4075,0.0,0.0,0.0,0.0,0.0,0.0,0.0,0.0,0.0,0.0,0.0,0.0,0.0,0.0,0.0,0.0,0.0,0.0,0.0,0.0,0.0,0.0,0.0,0.0,0.0,0.0,0.0,0.0,0.0,0.0,0.0,0.0,0.0,0.0,0.0,0.0,0.0,0.0,0.0,0.0,0.0,0.0,0.0,0.0,0.0,0.0,0.0,0.0,0.0,0.0,0.0,0.0,0.0,0.0,-1.3487,-1.5698,-1.7621,-1.9145,-2.0358,-2.0704,-2.1227,-2.1884,-2.1363,-2.0788,0.0,0.0,0.0,0.0,0.0,0.0,0.0,0.0,0.0,0.0,0.0,0.0,0.0,0.0,0.0,0.0,0.0,0.0,0.0,0.0,0.0,0.0,0.0,0.0,0.0,0.0,0.0,0.0,0.0,0.0,0.0,0.0,0.0,0.0,0.0,0.0,0.0,0.0,0.0,0.0,0.0,-2.2792,-2.3955,-2.4623,-2.509,0.0,0.0,-2.5398,-2.5424,-2.5184,-2.4903,-2.4623,0.0,0.0,0.0,0.0,0.0,0.0,0.0,0.0,0.0,0.0,0.0,0.0,0.0,0.0,0.0,0.0,0.0,0.0,0.0,0.0,0.0,0.0,0.0,0.0,0.0,0.0,0.0,0.0,0.0,0.0,0.0,0.0,0.0,0.0,0.0,0.0,0.0,0.0,0.0,0.0,0.0,0.0,0.0,0.0,0.0,0.0,0.0,0.0,0.0,0.0,0.0,0.0,0.0,-1.4552,-1.6861,-1.8447,-1.9923,-2.1018,-2.1384,-2.1714,-2.1991,-2.2195,-2.1719,0.0,0.0,0.0,0.0,0.0,0.0,0.0,0.0,0.0,0.0,0.0,0.0,0.0,0.0,0.0,0.0,0.0,0.0,0.0,0.0,0.0,0.0,0.0,0.0,0.0,0.0,0.0,0.0,-1.9052,-1.9225,-1.9052,0.0,0.0,0.0,0.0,0.0,0.0,0.0,0.0,0.0,0.0,-2.334,-2.4329,-2.497,0.0,0.0,-2.5785,-2.5905,-2.6266,-2.6079,-2.5905,-2.5972,-2.5344,0.0,0.0,0.0,0.0,0.0,0.0,0.0,0.0,0.0,0.0,0.0,0.0,0.0,0.0,0.0,0.0,0.0,0.0,0.0,0.0,0.0,0.0,0.0,0.0,0.0,0.0,0.0,0.0,0.0,0.0,0.0,0.0,0.0,0.0,0.0,0.0,0.0,0.0,0.0,0.0,0.0,0.0,0.0,0.0,0.0,0.0,0.0,0.0,0.0,0.0,0.0,0.0,-1.5594,-1.7895,-1.9546,-2.0835,-2.1844,-2.2136,-2.2364,-2.2512,-2.2903,-2.2599,0.0,0.0,0.0,0.0,0.0,0.0,0.0,0.0,0.0,0.0,0.0,0.0,0.0,0.0,0.0,0.0,0.0,0.0,0.0,0.0,0.0,0.0,0.0,0.0,0.0,0.0,0.0,0.0,-1.9933,-1.988,-1.9412,0.0,0.0,0.0,0.0,0.0,0.0,0.0,0.0,0.0,0.0,-2.4035,-2.4903,-2.5531,-2.6039,-2.6413,-2.6413,-2.652,-2.7014,-2.6907,-2.6827,-2.6934,0.0,0.0,0.0,0.0,0.0,0.0,0.0,0.0,0.0,0.0,0.0,0.0,0.0,0.0,0.0,0.0,0.0,0.0,0.0,0.0,0.0,0.0,0.0,0.0,0.0,0.0,0.0,0.0,0.0,0.0,-0.0175,0.0,0.0,0.0,0.0,0.0,0.0,0.0,0.0,0.0,0.0,0.0,0.0,0.0,0.0,0.0,0.0,0.0,0.0,0.0,0.0,0.0,0.0,-1.6879,-1.8888,-2.0876,-2.2133,-2.2846,-2.2933,-2.3209,-2.3701,-2.3768,-2.3322,-2.2378,0.0,0.0,0.0,0.0,0.0,0.0,0.0,0.0,0.0,0.0,0.0,0.0,0.0,0.0,0.0,0.0,0.0,0.0,0.0,0.0,0.0,0.0,0.0,0.0,0.0,0.0,-2.0561,-2.0655,-2.0321,0.0,0.0,0.0,0.0,0.0,0.0,0.0,0.0,0.0,0.0,-2.4062,-2.493,-2.5812,-2.6426,-2.7001,-2.7562,-2.7428,-2.7348,-2.7642,-2.7682,-2.7575,0.0,0.0,0.0,0.0,0.0,0.0,0.0,0.0,0.0,0.0,0.0,0.0,0.0,0.0,0.0,0.0,0.0,0.0,0.0,0.0,0.0,0.0,0.0,0.0,0.0,0.0,0.0,0.1536,0.031,0.0,0.0,0.0,0.0,0.0,0.0,0.0,0.0,0.0,0.0,0.0,-0.8902,-0.9055,0.0,0.0,0.0,0.0,0.0,0.0,0.0,0.0,0.0,0.0,0.0,0.0,-1.78,-1.9948,-2.1456,-2.2691,-2.3447,-2.3647,-2.3612,-2.3781,-2.3843,-2.3507,-2.2726,0.0,0.0,0.0,0.0,0.0,0.0,0.0,0.0,0.0,0.0,0.0,0.0,0.0,0.0,0.0,0.0,0.0,0.0,0.0,0.0,0.0,0.0,0.0,0.0,0.0,-2.0802,0.0,0.0,0.0,0.0,0.0,0.0,0.0,0.0,0.0,0.0,0.0,-2.3273,-2.4356,-2.5411,-2.6266,-2.676,-2.7321,-2.7843,0.0,0.0,0.0,0.0,0.0,0.0,0.0,0.0,0.0,0.0,0.0,0.0,0.0,0.0,-2.668,-2.5692,-2.5518,-2.5571,-2.5758,0.0,0.0,0.0,0.0,0.0,0.0,0.0,0.0,0.0,0.0,0.0,0.0,0.0,0.0,-0.0341,0.0,-0.2676,0.0,0.0,0.0,0.0,0.0,0.0,0.0,0.0,-0.867,-0.9368,-0.9973,-0.998,-1.0263,0.0,-1.0849,-1.0696,0.0,0.0,0.0,0.0,0.0,0.0,0.0,0.0,-1.8981,-2.0781,-2.2134,-2.328,-2.3901,-2.4179,-2.4233,-2.4075,-2.4125,-2.3897,-2.334,-2.2579,-2.1897,0.0,0.0,0.0,0.0,0.0,0.0,0.0,0.0,0.0,0.0,0.0,0.0,0.0,0.0,0.0,0.0,0.0,0.0,0.0,0.0,0.0,0.0,0.0,-2.183,0.0,0.0,0.0,0.0,0.0,0.0,0.0,0.0,0.0,-2.2752,-2.3607,-2.4623,-2.5705,-2.6587,-2.7268,-2.7682,0.0,0.0,0.0,0.0,0.0,0.0,0.0,-2.9566,-2.9753,-2.9713,-2.9673,-2.978,-2.9392,-2.9098,-2.9205,0.0,0.0,-2.7562,-2.7308,-2.7362,-2.7549,-2.7669,-2.7816,-2.8003,-2.8511,-2.8951,0.0,0.0,0.0,0.0,0.0,0.0,0.0,0.0,-0.1382,-0.2506,0.0,-0.5056,0.0,0.0,0.0,0.0,0.0,-0.7536,0.0,0.0,-0.982,-1.0424,-1.0554,-1.0833,-1.105,-1.1324,-1.2007,-1.2194,-1.1985,-1.1662,0.0,0.0,0.0,0.0,0.0,0.0,-2.0421,-2.1539,-2.306,-2.3915,-2.4209,-2.4489,-2.4636,-2.4636,-2.4382,-2.4235,-2.4222,-2.3688,-2.31,-2.2498,-2.1643,0.0,0.0,0.0,0.0,0.0,0.0,0.0,0.0,0.0,0.0,0.0,0.0,0.0,0.0,0.0,0.0,0.0,0.0,0.0,0.0,-2.2111,0.0,0.0,0.0,0.0,0.0,0.0,0.0,0.0,0.0,0.0,-2.4369,-2.485,-2.5692,-2.7121,0.0,0.0,0.0,0.0,-2.9619,-2.99,-2.994,-3.0034,-3.0314,-3.0368,-3.0368,-3.0381,0.0,0.0,-3.0461,-3.0181,-3.0087,-3.0354,-3.0621,-3.0474,-2.9379,-2.9152,-2.9125,-2.9138,-2.9352,-2.9539,-2.9593,-3.0007,-3.0501,0.2954,0.0,0.0,0.0,0.0,0.1825,0.0132,-0.1758,-0.2418,-0.4008,-0.6249,-0.6515,0.0,0.0,0.0,0.0,0.0,0.0,-0.9753,-1.0391,-1.0994,-1.1443,-1.1865,-1.2008,-1.2237,-1.2678,-1.2994,-1.334,-1.3555,-1.419,-1.4119,-1.3563,0.0,0.0,0.0,0.0,-2.1255,-2.2626,-2.3549,-2.4222,-2.4502,-2.4596,-2.4743,-2.4943,-2.4877,-2.493,-2.513,-2.477,-2.4302,-2.3714,-2.3046,0.0,0.0,0.0,0.0,0.0,0.0,0.0,0.0,0.0,0.0,0.0,0.0,0.0,0.0,0.0,0.0,0.0,0.0,0.0,-2.3205,-2.3785,-2.4008,0.0,0.0,0.0,0.0,0.0,0.0,0.0,0.0,0.0,-2.6934,-2.6974,-2.7268,0.0,0.0,-2.9339,-2.9513,-3.0047,-3.0448,-3.0528,-3.0541,0.0,-3.0648,-3.0675,-3.0742,-3.0942,-3.1181,-3.1487,-3.161,-3.1543,-3.1705,-3.1583,-3.1664,-3.1677,-3.157,-3.1196,-3.0929,-3.0929,-3.0982,-3.1049,-3.1076,-3.1503,-3.1944,0.1175,0.1414,0.2336,0.2331,0.1531,0.028,-0.1696,-0.3873,-0.4715,-0.6256,-0.8062,-0.8208,-0.8507,-0.8957,-0.9151,0.0,0.0,0.0,-1.0972,-1.1572,-1.1866,-1.2422,-1.3096,-1.3311,-1.369,-1.409,-1.4654,-1.4893,-1.5103,-1.6168,-1.6461,-1.5895,0.0,0.0,-1.9399,-2.0909,-2.2192,-2.3484,-2.4249,-2.469,-2.497,-2.4983,-2.5064,-2.5237,-2.5251,-2.5331,-2.5504,-2.5344,-2.5037,-2.4569,-2.4102,-2.3367,0.0,0.0,0.0,0.0,0.0,0.0,0.0,0.0,0.0,0.0,0.0,-1.9125,-1.9381,0.0,0.0,0.0,-2.1121,-2.2614,-2.4873,-2.505,0.0,0.0,0.0,0.0,0.0,0.0,0.0,-2.6119,-2.6987,-2.7816,-2.8564,-2.8724,-2.8845,-2.9098,-2.9686,-3.0127,-3.0247,0.0,-3.1009,-3.1116,-3.1236,-3.1356,-3.1463,-3.149,-3.1557,-3.1717,-3.1819,-3.2045,-3.2265,-3.2485,-3.2485,-3.2291,-3.2372,-3.2505,-3.2679,-3.2612,-3.2412,-3.2091,-3.2104,-3.2185,-3.2185,-3.2666,-3.308,-0.063,-0.2669,-0.045,0.0147,-0.0441,-0.1336,-0.3276,-0.5961,-0.7536,-0.8566,-0.905,-0.9792,-1.0396,-1.0599,-1.0599,0.0,-1.1051,-1.1312,-1.1877,-1.2626,-1.2777,-1.329,-1.4034,-1.4635,-1.5161,-1.563,-1.6581,-1.6876,-1.6852,-1.7921,-1.8715,-1.8948,-1.9239,-1.9804,-2.0828,-2.2082,-2.322,-2.4219,-2.4807,-2.5237,-2.5504,-2.5518,-2.5531,-2.5585,-2.5585,-2.5611,-2.5651,-2.5651,-2.5518,-2.5224,-2.4957,-2.4409,-2.3541,0.0,0.0,0.0,0.0,0.0,0.0,0.0,0.0,0.0,0.0,0.0,0.0,0.0,0.0,0.0,-2.2571,0.0,-2.6012,-2.5852,0.0,0.0,0.0,-2.5798,-2.6092,-2.64,-2.6827,-2.7415,0.0,0.0,-2.9513,-3.0074,-3.0341,-3.0087,-3.0274,-3.0528,-3.0822,-3.1116,-3.1396,-3.1704,-3.1957,-3.2211,-3.2385,-3.2438,-3.2452,-3.2519,-3.2377,-3.2417,-3.2679,-3.2942,-3.2915,-3.2746,-3.2906,-3.3093,-3.3093,-3.3521,-3.3681,-3.2893,-3.2933,-3.3093,-3.316,-3.3587,-3.4002,-0.2906,-0.4678,-0.4146,-0.3142,-0.2007,-0.3067,-0.4891,-0.6876,-0.7655,-0.8824,-1.007,-1.0816,-1.1373,-1.1757,-1.1757,-1.1817,-1.1931,-1.1998,-1.2388,-1.2949,-1.3304,-1.4228,-1.559,-1.6089,-1.6867,-1.7796,-1.8306,-1.8692,-1.8968,-2.0045,-2.088,-2.159,-2.2234,-2.2347,-2.2116,-2.2815,-2.3857,-2.482,-2.5264,-2.5438,-2.5504,-2.5518,-2.5718,-2.6172,-2.6186,-2.6386,-2.6827,-2.6854,-2.6707,-2.6426,-2.6346,-2.5905,-2.5037,-2.4436,0.0,0.0,0.0,0.0,0.0,0.0,0.0,0.0,0.0,-2.1632,-2.2329,0.0,-2.1916,0.0,-2.4402,-2.586,-2.7241,-2.7228,0.0,0.0,-2.7215,-2.7295,-2.7589,-2.8096,-2.8644,-2.9219,-2.9673,-3.0074,-3.0434,-3.0795,-3.1076,-3.1223,-3.1116,-3.1129,-3.1423,-3.1704,-3.1998,-3.2265,-3.2385,-3.2465,-3.2559,-3.2545,-3.2652,-3.2839,-3.2617,-3.2828,-3.3507,-3.3748,-3.3908,-3.3895,-3.3948,-3.4002,-3.3975,-3.4135,-3.4242,-3.4202,-3.4122,-3.4068,-3.4282,-3.4629,-3.4937,-0.4296,-0.5119,-0.5584,-0.535,-0.4618,-0.5353,-0.6555,-0.807,-0.8683,-0.9725,-1.1042,-1.165,-1.2105,-1.2257,-1.2257,-1.2305,-1.2386,-1.2539,-1.3077,-1.3841,-1.4617,-1.5889,-1.7672,-1.8444,-1.9357,-2.0298,-2.0737,-2.0957,-2.1134,-2.2032,-2.2567,-2.3043,-2.3661,-2.3884,-2.3604,-2.3894,-2.4566,-2.5478,-2.5892,-2.6092,-2.6092,-2.6226,-2.6453,-2.676,-2.6774,-2.6921,-2.7255,-2.7268,-2.7188,-2.7028,-2.7028,-2.6734,-2.6132,-2.5545,-2.489,0.0,0.0,0.0,0.0,0.0,0.0,0.0,0.0,0.0,0.0,0.0,-2.3436,-2.445,-2.5893,-2.7161,-2.8257,-2.8297,-2.8404,-2.8657,-2.8684,-2.8804,-2.9098,-2.9419,-2.9806,-3.0247,-3.0568,-3.0862,-3.1142,-3.1436,-3.1717,-3.2011,-3.1917,-3.1877,-3.2038,-3.2198,-3.2398,-3.2679,-3.2732,-3.2853,-3.3093,-3.3253,-3.3387,-3.3547,-3.325,-3.3193,-3.4042,-3.4447,-3.4568,-3.4336,-3.4322,-3.4322,-3.4336,-3.4549,-3.4763,-3.4897,-3.5044,-3.511,-3.5137,-3.5378,-3.5672,-0.5219,-0.4873,-0.5989,-0.6909,-0.7479,-0.7894,-0.8427,-0.908,-0.9858,-1.0796,-1.2037,-1.2367,-1.2528,-1.2535,-1.2549,-1.2562,-1.2711,-1.3028,-1.3878,-1.4955,-1.6199,-1.7842,-1.974,-2.0845,-2.1935,-2.271,-2.3068,-2.3247,-2.3247,-2.3785,-2.3965,-2.3965,-2.4481,-2.4804,-2.5114,-2.5268,-2.5528,-2.6079,-2.66,-2.6881,-2.6881,-2.7134,-2.7281,-2.7321,-2.7321,-2.7335,-2.7375,-2.7375,-2.7375,-2.7375,-2.7375,-2.7241,-2.6947,-2.6426,-2.5879,0.0,-2.4783,0.0,0.0,0.0,0.0,0.0,0.0,0.0,0.0,-2.4407,-2.5071,-2.6386,-2.7196,-2.8128,-2.8977,-2.9232,-2.9472,-2.9967,-3.0034,-3.014,-3.0434,-3.0474,-3.0581,-3.0875,-3.1156,-3.1436,-3.1677,-3.1984,-3.2265,-3.2297,-3.2545,-3.2599,-3.2706,-3.2706,-3.2786,-3.3053,-3.3133,-3.3387,-3.3801,-3.4108,-3.4255,-3.4282,-3.3897,-3.373,-3.4223,-3.5004,-3.5058,-3.4603,-3.4629,-3.4603,-3.4549,-3.499,-3.5324,-3.5458,-3.5832,-3.6059,-3.5899,-3.6006,-3.6286,-0.5552,-0.605,-0.7208,-0.8314,-0.9375,-1.0172,-1.0307,-0.9864,-1.0641,-1.1572,-1.2353,-1.263,-1.2684,-1.2698,-1.282,-1.3034,-1.3497,-1.3822,-1.4789,-1.5931,-1.7187,-1.8926,-2.0834,-2.1791,-2.2889,-2.3982,-2.4183,-2.4452,-2.4465,-2.5238,-2.5775,-2.5775,-2.6331,-2.6773,-2.6773,0.0,0.0,0.0,-2.7001,-2.7188,-2.7188,-2.7228,-2.7375,-2.7602,-2.7615,0.0,-2.7963,-2.7976,-2.7976,-2.7976,-2.7976,0.0,0.0,0.0,0.0,0.0,0.0,0.0,0.0,0.0,0.0,0.0,-2.7105,-2.6877,-2.6452,-2.7037,-2.751,-2.8165,-2.8934,-2.9427,-2.97,-3.0119,-3.0515,-3.0818,-3.0635,-3.0742,-3.1022,-3.1062,-3.1169,-3.1476,-3.1757,-3.1957,-3.2038,-3.2278,-3.2559,-3.2642,-3.2893,-3.3106,-3.3561,-3.3387,-3.3374,-3.3668,-3.3868,-3.4082,-3.4215,-3.4295,-3.4402,-3.4362,-3.4267,-3.4295,-3.4833,-3.5431,-3.5939,-3.5698,-3.5738,-3.5712,-3.5712,-3.5832,-3.6019,-3.65,-3.6687,-3.6754,-3.67,-3.674,-3.6927,-0.6325,0.0,-0.848,-0.9913,0.0,-1.1564,-1.1714,-1.1464,-1.1622,-1.2095,-1.2732,-1.2813,-1.2999,-1.3158,-1.3235,-1.3589,-1.4229,-1.4867,-1.6031,-1.7385,-1.9125,-2.0759,-2.2472,-2.3708,-2.473,-2.5531,-2.5818,-2.5948,-2.5974,-2.641,-2.6716,-2.6716,-2.7201,-2.7268,-2.7268,-2.7402,-2.7335,-2.7041,-2.7335,-2.7549,-2.7696,-2.7843,-2.807,-2.835,-2.8364,0.0,0.0,0.0,0.0,0.0,0.0,0.0,0.0,0.0,0.0,-2.7709,-2.7415,-2.7388,-2.7682,-2.7829,-2.811,-2.8551,-2.895,-2.8811,-2.7985,-2.85,-2.9054,-2.9378,-2.9847,-3.0254,-3.0557,-3.073,-3.1076,-3.141,-3.1236,-3.1289,-3.141,-3.145,-3.1557,-3.1837,-3.2011,-3.2198,-3.2505,-3.2652,-3.2933,-3.3107,-3.3213,-3.3587,-3.3975,-3.3841,-3.3761,-3.4055,-3.4349,-3.4536,-3.4563,-3.4817,-3.4963,-3.5017,-3.4861,-3.5098,-3.5618,-3.6114,-3.6329,-3.6086,-3.6072,-3.6072,-3.6086,-3.6179,-3.642,-3.6834,-3.7061,-3.7275,-3.7489,-3.7475,-3.7502,-0.7295,-0.8149,-0.9782,-1.121,-1.2266,-1.2478,-1.284,-1.3037,0.0,0.0,0.0,-1.315,-1.3311,-1.3785,-1.3814,-1.4479,-1.5441,-1.6275,-1.7485,-1.9082,-2.105,-2.2785,-2.4282,-2.5647,-2.641,-2.6907,-2.7148,-2.7268,-2.7268,-2.7321,-2.7348,-2.7348,-2.7388,-2.7455,-2.7522,-2.7789,-2.7816,-2.7602,-2.7762,-2.8003,-2.8297,-2.8551,-2.8791,-2.9032,-2.9045,-2.9045,-2.9045,-2.9045,-2.9045,-2.9045,-2.9098,-2.9112,-2.9112,-2.8938,-2.8845,-2.8831,-2.8644,-2.8631,-2.8898,-2.9192,-2.9486,-2.978,-3.0234,-3.0122,-2.9337,-2.9743,-3.0044,-3.028,-3.073,-3.1049,-3.1263,-3.1303,-3.1396,-3.165,-3.1677,-3.1664,-3.1677,-3.1717,-3.1837,-3.2064,-3.2198,-3.2425,-3.2879,-3.308,-3.3293,-3.3303,-3.3665,-3.4095,-3.4349,-3.4242,-3.4175,-3.4456,-3.4763,-3.4923,-3.499,-3.5338,-3.5685,-3.5658,-3.5455,-3.564,-3.6139,-3.6667,-3.6707,-3.6286,-3.6233,-3.6246,-3.6259,-3.6433,-3.67,-3.7021,-3.7288,-3.7635,-3.8157,-3.8143,-3.8063,-0.7988,-0.9012,-1.0897,-1.2021,-1.292,-1.3237,-1.3478,-1.3322,-1.3071,-1.2963,-1.2969,-1.3415,-1.3951,-1.4437,-1.4914,-1.5795,-1.694,-1.8083,-1.9492,-2.1349,-2.2871,-2.4303,-2.5653,-2.6358,-2.6875,-2.7201,-2.7241,-2.7268,-2.7295,-2.7522,-2.7642,-2.7669,-2.7896,-2.815,-2.8417,-2.8711,-2.8831,-2.8791,-2.8591,-2.8617,-2.8911,-2.8965,-2.9005,-2.9032,-2.9045,-2.9045,-2.9045,-2.9058,-2.9045,-2.9045,-2.9285,-2.9419,-2.9432,-2.9619,-2.974,-2.974,-2.9721,-2.9853,-3.0114,-3.059,-3.0872,-3.0942,-3.1062,-3.0996,-3.0584,-3.077,-3.0929,-3.0982,-3.1383,-3.1557,-3.1597,-3.1597,-3.161,-3.1664,-3.1677,-3.1677,-3.169,-3.1891,-3.2051,-3.2144,-3.2559,-3.2853,-3.304,-3.3427,-3.3532,-3.3665,-3.397,-3.4469,-3.487,-3.4817,-3.4776,-3.503,-3.5324,-3.5485,-3.5511,-3.5778,-3.5979,-3.6006,-3.6246,-3.6201,-3.6433,-3.662,-3.6754,-3.6794,-3.6754,-3.6767,-3.678,-3.6847,-3.7061,-3.7462,-3.7649,-3.7903,-3.845,-3.8544,-3.8571,-0.8648,-1.0044,-1.1558,-1.2718,-1.3693,-1.3606,-1.3702,-1.3627,-1.3498,-1.3556,-1.3816,-1.4217,-1.5119,-1.6036,-1.6776,-1.7978,-1.9649,-2.0568,-2.1782,-2.328,-2.4564,-2.545,-2.6285,-2.6921,-2.733,-2.7509,-2.7669,-2.7736,-2.7776,-2.8043,-2.819,-2.8217,-2.8484,-2.8698,-2.8845,-2.8978,-2.9112,-2.9272,-2.8991,-2.8978,-2.9272,-2.9285,-2.9352,-2.9513,-2.9659,-2.9753,-2.9753,-2.99,-2.9993,-2.9993,-3.0114,-3.0194,-3.0207,-3.0314,-3.0394,-3.0394,-3.0305,-3.0451,-3.0822,-3.1302,-3.1531,-3.1463,-3.1463,-3.141,-3.1289,-3.1396,-3.1463,-3.1463,-3.1597,-3.1677,-3.1677,-3.1677,-3.1677,-3.1677,-3.1677,-3.173,-3.1877,-3.2011,-3.2225,-3.2532,-3.2799,-3.3106,-3.344,-3.3721,-3.4028,-3.3858,-3.4723,-3.5361,-3.5404,-3.5458,-3.5511,-3.5658,-3.5792,-3.5859,-3.5885,-3.6112,-3.6286,-3.6313,-3.6553,-3.6714,-3.674,-3.6874,-3.6914,-3.6941,-3.6941,-3.6941,-3.6941,-3.6941,-3.7141,-3.7435,-3.7582,-3.7823,-3.8303,-3.8597,-3.8718,-0.8943,-1.1078,-1.2408,-1.3404,-1.4061,-1.3905,-1.3838,-1.3838,-1.3838,-1.4309,-1.474,-1.5202,-1.6269,-1.7578,-1.8753,-2.0269,-2.1787,-2.2844,-2.3867,-2.5041,-2.5931,-2.6631,-2.6974,-2.7529,-2.7802,-2.7829,-2.8096,-2.8243,-2.8283,-2.8564,-2.8711,-2.8738,-2.9005,-2.9138,-2.9138,-2.9205,-2.9352,-2.9553,-2.9419,-2.9419,-2.9579,-2.9646,-2.978,-3.002,-3.0301,-3.0461,-3.0461,-3.0675,-3.0795,-3.0795,-3.0849,-3.0889,-3.0902,-3.0955,-3.0982,-3.0982,-3.0796,-3.0876,-3.1303,-3.153,-3.1677,-3.1677,-3.1677,-3.1677,-3.1677,-3.1677,-3.1677,-3.1677,-3.1664,-3.1677,-3.1677,-3.1677,-3.1677,-3.1677,-3.173,-3.1864,-3.2064,-3.2211,-3.2465,-3.2906,-3.304,-3.3293,-3.3734,-3.3948,-3.4215,-3.4555,-3.5324,-3.5872,-3.5738,-3.5979,-3.6166,-3.6246,-3.6219,-3.6166,-3.6193,-3.642,-3.658,-3.6607,-3.678,-3.6887,-3.6914,-3.6927,-3.6941,-3.6941,-3.6941,-3.6941,-3.6941,-3.6941,-3.7061,-3.7328,-3.7422,-3.7595,-3.8157,-3.8437,-3.8638,-0.8939,-1.1982,-1.2857,-1.3487,-1.4068,-1.3912,-1.3851,-1.3851,-1.4365,-1.5123,-1.5902,-1.6275,-1.7222,-1.8753,-2.0447,-2.1976,-2.3344,-2.4377,-2.5322,-2.6196,-2.6942,-2.7564,-2.8043,-2.8096,-2.811,-2.815,-2.8417,-2.8564,-2.8577,-2.8858,-2.9005,-2.9032,-2.9299,-2.9446,-2.9472,-2.97,-2.9847,-2.9873,-3.0114,-3.0114,-2.9913,-3.014,-3.0287,-3.0314,-3.0608,-3.0755,-3.0755,-3.0782,-3.0795,-3.0808,-3.1049,-3.1183,-3.1209,-3.1436,-3.1583,-3.1583,-3.1583,-3.161,-3.1623,-3.1664,-3.1677,-3.1677,-3.1677,-3.1677,-3.1677,-3.1677,-3.1677,-3.1677,-3.1677,-3.1677,-3.1677,-3.1677,-3.1704,-3.173,-3.1931,-3.2078,-3.2185,-3.2585,-3.2919,-3.2959,-3.3227,-3.3507,-3.3855,-3.4148,-3.4523,-3.503,-3.5404,-3.5952,-3.5965,-3.6233,-3.6513,-3.67,-3.6633,-3.6487,-3.65,-3.67,-3.6834,-3.6874,-3.6901,-3.6941,-3.6941,-3.6941,-3.6941,-3.6941,-3.6941,-3.6941,-3.6941,-3.6954,-3.7034,-3.7235,-3.7382,-3.7555,-3.8076,-3.8303,-3.8424,-0.9613,-1.2269,-1.2985,-1.3623,-1.4204,-1.4136,-1.4109,-1.4116,-1.4632,-1.5533,-1.68,-1.794,-1.9284,-2.0828,-2.2533,-2.4071,-2.5445,-2.623,-2.6786,-2.7499,-2.7944,-2.8247,-2.843,-2.8604,-2.8671,-2.8671,-2.8804,-2.8858,-2.8911,-2.9165,-2.9392,-2.9553,-2.9686,-2.974,-2.9753,-3.0034,-3.0181,-3.0194,-3.0474,-3.0555,-3.0461,-3.0555,-3.0621,-3.0648,-3.0902,-3.1049,-3.1062,-3.1209,-3.1316,-3.1316,-3.1423,-3.149,-3.149,-3.161,-3.1677,-3.1677,-3.1677,-3.1677,-3.1677,-3.1677,-3.1677,-3.1677,-3.1677,-3.1677,-3.1677,-3.1677,-3.1677,-3.1677,-3.1677,-3.1677,-3.169,-3.1824,-3.1931,-3.2189,-3.2391,-3.2425,-3.2612,-3.2826,-3.3026,-3.3213,-3.3507,-3.3801,-3.4135,-3.4549,-3.491,-3.5204,-3.5471,-3.5979,-3.6046,-3.6313,-3.6607,-3.6847,-3.6834,-3.678,-3.6767,-3.6847,-3.6927,-3.6941,-3.6941,-3.6941,-3.6941,-3.6941,-3.6941,-3.6941,-3.6941,-3.6941,-3.6941,-3.6941,-3.6994,-3.7168,-3.7328,-3.7515,-3.7916,-3.8143,-3.8357,-1.0259,-1.253,-1.3207,-1.3853,-1.4299,-1.4299,-1.4299,-1.4653,-1.5175,-1.6248,-1.7697,-1.9618,-2.1383,-2.2631,-2.4327,-2.5897,-2.7183,-2.7709,-2.805,-2.8417,-2.8631,-2.8724,-2.8751,-2.8938,-2.9045,-2.9058,-2.9125,-2.9205,-2.9285,-2.9486,-2.9713,-2.99,-2.9993,-3.0047,-3.0074,-3.0327,-3.0474,-3.0501,-3.0768,-3.0915,-3.0915,-3.0996,-3.0996,-3.0955,-3.1196,-3.1343,-3.1356,-3.1557,-3.1677,-3.1677,-3.1677,-3.1677,-3.1677,-3.1677,-3.1704,-3.1784,-3.1784,-3.1784,-3.1784,-3.1797,-3.1757,-3.1677,-3.1677,-3.1677,-3.1677,-3.1677,-3.1717,-3.1797,-3.1784,-3.1797,-3.1824,-3.2051,-3.2418,-3.2678,-3.27,-3.2759,-3.2933,-3.3026,-3.3227,-3.3507,-3.3721,-3.4042,-3.4416,-3.4857,-3.5204,-3.5338,-3.5591,-3.5872,-3.6153,-3.6446,-3.6714,-3.6901,-3.6941,-3.6927,-3.6941,-3.6927,-3.6941,-3.6941,-3.6941,-3.6941,-3.6941,-3.6941,-3.6941,-3.6941,-3.6941,-3.7008,-3.7101,-3.7088,-3.7114,-3.7208,-3.7355,-3.7609,-3.7956,-3.8143,-3.8357,-1.0623,-1.3071,-1.4011,-1.4312,-1.4299,-1.4306,-1.4476,-1.5013,-1.5888,-1.7201,-1.8947,-2.1253,-2.292,-2.4107,-2.5706,-2.7157,-2.8256,-2.8604,-2.8951,-2.8951,-2.9005,-2.9018,-2.9018,-2.9032,-2.9058,-2.9138,-2.9352,-2.9593,-2.9847,-2.9887,-2.99,-2.9953,-3.0207,-3.0341,-3.0381,-3.0621,-3.0768,-3.0808,-3.1062,-3.1209,-3.1236,-3.1476,-3.1463,-3.1263,-3.149,-3.1623,-3.1637,-3.165,-3.1677,-3.1677,-3.1677,-3.1677,-3.1677,-3.1677,-3.181,-3.2024,-3.2078,-3.2078,-3.2064,-3.2064,-3.1957,-3.1717,-3.1677,-3.1677,-3.1677,-3.1704,-3.181,-3.2051,-3.2091,-3.2131,-3.2351,-3.2372,-3.2727,-3.2767,-3.2996,-3.2959,-3.3013,-3.3267,-3.3521,-3.3788,-3.3921,-3.4202,-3.4683,-3.5004,-3.5311,-3.5565,-3.5845,-3.6126,-3.6393,-3.67,-3.6861,-3.6914,-3.6941,-3.6941,-3.6941,-3.6941,-3.6941,-3.6941,-3.6941,-3.6941,-3.6941,-3.6941,-3.6954,-3.6981,-3.7048,-3.7155,-3.7301,-3.7408,-3.7489,-3.7555,-3.7635,-3.7849,-3.8076,-3.8197,-3.8397,-1.1536,-1.3919,-1.4316,-1.4387,-1.4312,-1.4394,-1.4792,-1.5334,-1.6324,-1.8007,-2.0027,-2.2183,-2.4064,-2.5666,-2.7221,-2.8413,-2.8884,-2.9045,-2.9045,-2.9058,-2.9232,-2.9325,-2.9339,-2.9499,-2.9606,-2.9619,-2.9713,-2.9913,-3.0167,-3.0207,-3.0301,-3.0461,-3.0581,-3.0635,-3.0688,-3.0929,-3.1062,-3.1102,-3.1356,-3.1517,-3.1503,-3.161,-3.161,-3.153,-3.161,-3.1677,-3.1677,-3.1677,-3.1677,-3.1677,-3.1677,-3.1677,-3.169,-3.1851,-3.1984,-3.2104,-3.2278,-3.2305,-3.2131,-3.2104,-3.1971,-3.1704,-3.1677,-3.1677,-3.1704,-3.1837,-3.1998,-3.2144,-3.2478,-3.2652,-3.2679,-3.2772,-3.3036,-3.309,-3.3291,-3.3334,-3.3507,-3.3654,-3.3828,-3.4108,-3.4322,-3.4616,-3.4963,-3.5297,-3.5511,-3.5631,-3.5885,-3.6193,-3.6433,-3.6607,-3.674,-3.6901,-3.6941,-3.6941,-3.6941,-3.6941,-3.6941,-3.6941,-3.6941,-3.6954,-3.6954,-3.7155,-3.7221,-3.7275,-3.7301,-3.7435,-3.7635,-3.7716,-3.7809,-3.7823,-3.7889,-3.8063,-3.8197,-3.8317,-3.845,-1.2935,-1.4434,-1.4645,-1.4529,-1.4455,-1.4723,-1.5125,-1.5852,-1.7033,-1.8923,-2.1132,-2.3125,-2.5034,-2.6653,-2.8156,-2.9172,-2.9528,-2.9339,-2.9312,-2.9339,-2.9539,-2.9619,-2.9659,-2.982,-2.9913,-2.9927,-2.9827,-3.0154,-3.0354,-3.067,-3.0818,-3.0768,-3.0875,-3.0942,-3.0982,-3.1223,-3.137,-3.141,-3.157,-3.1664,-3.1677,-3.1677,-3.1677,-3.1677,-3.1677,-3.1677,-3.1677,-3.1677,-3.1677,-3.1677,-3.1677,-3.1704,-3.1824,-3.1998,-3.2198,-3.2372,-3.2478,-3.2465,-3.2265,-3.2158,-3.1984,-3.1704,-3.1677,-3.169,-3.1797,-3.1998,-3.2171,-3.2412,-3.2706,-3.3,-3.3093,-3.312,-3.312,-3.3385,-3.36,-3.3641,-3.3855,-3.3961,-3.4148,-3.4442,-3.4817,-3.511,-3.5324,-3.5605,-3.5792,-3.5885,-3.6099,-3.6313,-3.6567,-3.6647,-3.67,-3.6887,-3.6941,-3.6941,-3.6941,-3.6941,-3.6954,-3.6954,-3.7101,-3.7074,-3.7141,-3.7355,-3.7515,-3.7555,-3.7662,-3.7809,-3.7943,-3.8036,-3.8076,-3.8076,-3.8183,-3.8357,-3.841,-3.8424,-3.8611,-1.4606,-1.5128,-1.4808,-1.4726,-1.4706,-1.5265,-1.6,-1.6915,-1.838,-2.0134,-2.2283,-2.4272,-2.5815,-2.7267,-2.8578,-2.9515,-2.9833,-2.982,-2.982,-2.9833,-2.9873,-2.9873,-2.9887,-2.99,-2.994,-2.998,-2.9832,-3.0159,-3.0448,-3.111,-3.1443,-3.1074,-3.1116,-3.1223,-3.1236,-3.149,-3.165,-3.1637,-3.1664,-3.1677,-3.1677,-3.1677,-3.1677,-3.1677,-3.1677,-3.1677,-3.1677,-3.1677,-3.1677,-3.1677,-3.169,-3.1824,-3.2064,-3.2158,-3.2372,-3.2746,-3.2692,-3.2572,-3.2478,-3.2238,-3.1984,-3.173,-3.169,-3.1824,-3.2011,-3.2144,-3.2385,-3.2786,-3.2973,-3.3093,-3.3334,-3.34,-3.3427,-3.344,-3.3668,-3.3841,-3.3988,-3.4175,-3.4442,-3.479,-3.5231,-3.5578,-3.5685,-3.5885,-3.6139,-3.634,-3.6473,-3.6593,-3.6807,-3.6861,-3.6914,-3.6927,-3.6941,-3.6954,-3.6954,-3.6954,-3.6967,-3.7008,-3.7208,-3.7315,-3.7435,-3.7622,-3.7782,-3.7849,-3.7969,-3.8116,-3.825,-3.8344,-3.8464,-3.8504,-3.8597,-3.8584,-3.8597,-3.8638,-3.8825,-1.4686,-1.5162,-1.4923,-1.4835,-1.476,-1.5392,-1.6169,-1.7285,-1.886,-2.0786,-2.3044,-2.506,-2.6749,-2.8269,-2.9375,-2.9734,-2.9913,-2.9913,-2.9913,-2.9913,-2.9913,-2.9913,-2.9913,-2.9913,-3.002,-3.0234,-2.9913,-3.0333,-3.0929,-3.1461,-3.1597,-3.1396,-3.1476,-3.153,-3.1517,-3.1623,-3.1677,-3.1677,-3.1677,-3.1677,-3.1677,-3.1677,-3.1677,-3.1677,-3.1677,-3.1677,-3.1677,-3.1677,-3.1677,-3.1677,-3.1864,-3.2104,-3.2372,-3.2599,-3.2692,-3.2692,-3.2799,-3.2639,-3.2291,-3.2158,-3.1971,-3.177,-3.1837,-3.1984,-3.2144,-3.2478,-3.2746,-3.3,-3.3146,-3.3334,-3.3427,-3.3627,-3.3721,-3.3748,-3.3828,-3.4082,-3.4429,-3.4723,-3.5044,-3.5311,-3.5525,-3.5698,-3.5925,-3.6179,-3.6406,-3.6513,-3.666,-3.6847,-3.6914,-3.6941,-3.6941,-3.6941,-3.6954,-3.7061,-3.7181,-3.7275,-3.7315,-3.7368,-3.7502,-3.7609,-3.7729,-3.7903,-3.8063,-3.8157,-3.829,-3.8384,-3.8517,-3.8611,-3.8691,-3.8718,-3.8678,-3.8691,-3.8731,-3.8851,-3.9012,-1.4939,-1.5245,-1.5052,-1.4997,-1.4916,-1.5746,-1.671,-1.7837,-1.9419,-2.15,-2.3709,-2.5548,-2.7208,-2.8693,-2.9388,-2.9734,-2.9913,-2.9913,-2.9913,-2.9913,-2.9913,-2.9913,-2.994,-3.0034,-3.0234,-3.0528,-3.0399,-3.0624,-3.1223,-3.1544,-3.1692,-3.1637,-3.1677,-3.1664,-3.1677,-3.1677,-3.1677,-3.1677,-3.1677,-3.1677,-3.1677,-3.1677,-3.1677,-3.1677,-3.1677,-3.173,-3.181,-3.1824,-3.1837,-3.1877,-3.2118,-3.2398,-3.2692,-3.2866,-3.2893,-3.2772,-3.2732,-3.2599,-3.2171,-3.1998,-3.1931,-3.1877,-3.1998,-3.2225,-3.2425,-3.2826,-3.2986,-3.316,-3.3293,-3.3467,-3.3601,-3.3748,-3.3961,-3.4202,-3.4229,-3.4429,-3.4857,-3.5084,-3.5297,-3.5538,-3.5725,-3.5925,-3.6193,-3.6473,-3.666,-3.67,-3.6821,-3.6941,-3.6941,-3.6941,-3.6981,-3.7048,-3.7141,-3.7288,-3.7489,-3.7595,-3.7676,-3.7756,-3.7863,-3.7916,-3.7996,-3.8237,-3.8437,-3.845,-3.8544,-3.8544,-3.8651,-3.8664,-3.8718,-3.8718,-3.8718,-3.8731,-3.8771,-3.8958,-3.9145,-1.5181,-1.5181,-1.5181,-1.5167,-1.5348,-1.6292,-1.7219,-1.8354,-2.0214,-2.2063,-2.3903,-2.5548,-2.722,-2.85,-2.9015,-2.9541,-2.9913,-2.9913,-2.9913,-2.9927,-2.9953,-2.998,-3.002,-3.0314,-3.0595,-3.0822,-3.0916,-3.1236,-3.1316,-3.1517,-3.1677,-3.1664,-3.1677,-3.1677,-3.1677,-3.1677,-3.1677,-3.1677,-3.1677,-3.1677,-3.1677,-3.1677,-3.1677,-3.1677,-3.1717,-3.1837,-3.2011,-3.2144,-3.2171,-3.2185,-3.2438,-3.2706,-3.2933,-3.3,-3.2959,-3.2879,-3.2666,-3.2385,-3.2091,-3.1904,-3.1851,-3.2038,-3.2185,-3.2358,-3.2826,-3.2986,-3.3146,-3.3334,-3.344,-3.3574,-3.3788,-3.3975,-3.4229,-3.467,-3.4736,-3.4883,-3.5137,-3.5191,-3.5351,-3.5631,-3.5912,-3.6193,-3.646,-3.6754,-3.6861,-3.6914,-3.6927,-3.6927,-3.6954,-3.7008,-3.7114,-3.7221,-3.7328,-3.7569,-3.7782,-3.7849,-3.7956,-3.8143,-3.821,-3.8237,-3.8263,-3.8477,-3.8638,-3.8664,-3.8691,-3.8704,-3.8718,-3.8718,-3.8718,-3.8718,-3.8718,-3.8731,-3.8878,-3.9092,-3.9346,-1.5181,-1.5181,-1.5181,-1.5181,-1.5368,-1.6306,-1.7055,-1.7803,-1.9666,-2.151,-2.3168,-2.5012,-2.6652,-2.7933,-2.8822,-2.9375,-2.9734,-2.9927,-2.9913,-2.9953,-3.0154,-3.0234,-3.0354,-3.0755,-3.1022,-3.1142,-3.1383,-3.1557,-3.1557,-3.1623,-3.1677,-3.1677,-3.1677,-3.1677,-3.1677,-3.1677,-3.1677,-3.1677,-3.1677,-3.1677,-3.1677,-3.1677,-3.1677,-3.169,-3.2082,-3.223,-3.2158,-3.2532,-3.2746,-3.2746,-3.2812,-3.3,-3.3227,-3.3093,-3.2893,-3.2679,-3.2398,-3.2104,-3.1891,-3.1917,-3.2024,-3.2131,-3.2492,-3.2812,-3.2946,-3.3173,-3.3307,-3.3454,-3.3601,-3.3788,-3.3935,-3.4269,-3.467,-3.499,-3.5057,-3.5097,-3.5177,-3.5217,-3.5378,-3.5859,-3.6019,-3.6313,-3.6674,-3.6861,-3.6941,-3.6941,-3.6941,-3.6967,-3.7008,-3.7141,-3.7275,-3.7408,-3.7542,-3.7823,-3.8036,-3.8103,-3.825,-3.8504,-3.8571,-3.8544,-3.8557,-3.8624,-3.8691,-3.8718,-3.8704,-3.8718,-3.8718,-3.8718,-3.8718,-3.8758,-3.8771,-3.8811,-3.9065,-3.9306,-3.9586,-1.5181,-1.5181,-1.5181,-1.5181,-1.5368,-1.5931,-1.6681,-1.7429,-1.8913,-2.0584,-2.2248,-2.4086,-2.5913,-2.7365,-2.8462,-2.9195,-2.9927,-3.0047,-3.0114,-3.0181,-3.0541,-3.0715,-3.0822,-3.1116,-3.1289,-3.1423,-3.1583,-3.165,-3.1664,-3.1677,-3.1677,-3.1677,-3.1677,-3.1677,-3.1677,-3.1677,-3.1677,-3.1677,-3.1677,-3.1677,-3.1677,-3.1677,-3.1757,-3.1837,-3.227,-3.2611,-3.2492,-3.2919,-3.3106,-3.304,-3.3093,-3.324,-3.3347,-3.3146,-3.2853,-3.2559,-3.2265,-3.2024,-3.1917,-3.2024,-3.2225,-3.2452,-3.2839,-3.3013,-3.316,-3.3334,-3.3414,-3.344,-3.3708,-3.3921,-3.4148,-3.4603,-3.4977,-3.5151,-3.5204,-3.5204,-3.5204,-3.5311,-3.5578,-3.5939,-3.6206,-3.6406,-3.6874,-3.6927,-3.6941,-3.6941,-3.6941,-3.7021,-3.7128,-3.7301,-3.7502,-3.7676,-3.7836,-3.8103,-3.8303,-3.8397,-3.8397,-3.8651,-3.8704,-3.8718,-3.8718,-3.8718,-3.8718,-3.8718,-3.8718,-3.8731,-3.8758,-3.8784,-3.8825,-3.8851,-3.8865,-3.9025,-3.9292,-3.9519,-3.9786,-1.5181,-1.5181,-1.5181,-1.5181,-1.5368,-1.5751,-1.6119,-1.6868,-1.8168,-1.9657,-2.114,-2.2984,-2.5001,-2.6821,-2.792,-2.8861,-2.98,-3.0207,-3.0394,-3.0581,-3.0915,-3.1169,-3.1236,-3.1276,-3.1436,-3.1597,-3.1664,-3.1677,-3.1677,-3.1677,-3.1677,-3.1677,-3.1677,-3.1677,-3.1677,-3.1677,-3.1677,-3.1677,-3.1677,-3.1677,-3.169,-3.1744,-3.1864,-3.2038,-3.2458,-3.2754,-3.2919,-3.324,-3.3267,-3.2986,-3.324,-3.3307,-3.3307,-3.3066,-3.2759,-3.2505,-3.2238,-3.2091,-3.2118,-3.2185,-3.2425,-3.2826,-3.2973,-3.312,-3.332,-3.34,-3.344,-3.3521,-3.3748,-3.4095,-3.4456,-3.491,-3.5124,-3.5204,-3.5204,-3.5204,-3.5257,-3.5458,-3.5752,-3.6046,-3.6326,-3.6607,-3.6834,-3.6941,-3.6941,-3.6954,-3.6994,-3.7155,-3.7328,-3.7542,-3.7796,-3.8063,-3.8237,-3.8397,-3.8557,-3.8678,-3.8664,-3.8718,-3.8718,-3.8718,-3.8718,-3.8718,-3.8718,-3.8731,-3.8811,-3.8851,-3.8851,-3.8891,-3.8985,-3.9078,-3.9185,-3.9372,-3.9573,-3.9746,-3.9974,-1.5181,-1.5181,-1.5181,-1.5181,-1.5368,-1.5751,-1.5938,-1.6126,-1.7616,-1.8913,-2.0214,-2.2054,-2.4075,-2.5913,-2.739,-2.8576,-2.9677,-3.0185,-3.0581,-3.1049,-3.1129,-3.137,-3.1517,-3.1557,-3.1597,-3.1677,-3.1677,-3.1677,-3.1677,-3.1677,-3.1677,-3.1677,-3.1677,-3.1677,-3.1677,-3.1677,-3.1677,-3.1677,-3.1677,-3.1677,-3.173,-3.2095,-3.2051,-3.2185,-3.2559,-3.2946,-3.324,-3.3374,-3.3267,-3.308,-3.3026,-3.3066,-3.2986,-3.2599,-3.2345,-3.2278,-3.2185,-3.2104,-3.2185,-3.2519,-3.2826,-3.2973,-3.3187,-3.3347,-3.3387,-3.3427,-3.3547,-3.3748,-3.4055,-3.4429,-3.487,-3.5084,-3.5191,-3.5204,-3.5204,-3.5204,-3.5244,-3.5458,-3.5778,-3.6046,-3.634,-3.662,-3.6901,-3.6927,-3.6954,-3.6967,-3.7101,-3.7288,-3.7529,-3.7796,-3.805,-3.833,-3.8464,-3.8571,-3.8611,-3.8718,-3.8718,-3.8758,-3.8784,-3.8811,-3.8798,-3.8851,-3.8891,-3.8918,-3.8945,-3.8985,-3.9038,-3.9225,-3.9372,-3.9452,-3.9519,-3.968,-3.9853,-4.0,-4.0107,-1.5181,-1.5181,-1.5181,-1.5181,-1.5181,-1.5368,-1.5563,-1.5744,-1.6868,-1.7981,-1.9285,-2.1315,-2.3352,-2.5206,-2.7135,-2.8572,-2.9651,-3.0478,-3.0996,-3.1356,-3.1436,-3.1517,-3.1623,-3.1677,-3.1677,-3.1677,-3.1677,-3.1677,-3.1677,-3.1677,-3.1677,-3.1677,-3.1677,-3.1677,-3.1677,-3.1677,-3.1677,-3.1677,-3.1677,-3.1677,-3.1717,-3.2162,-3.2512,-3.2727,-3.2946,-3.3267,-3.3387,-3.34,-3.3253,-3.3026,-3.2853,-3.2772,-3.2719,-3.2372,-3.2198,-3.2278,-3.2158,-3.2291,-3.2532,-3.2786,-3.3026,-3.3173,-3.3334,-3.3374,-3.3467,-3.3534,-3.3694,-3.3935,-3.4269,-3.4723,-3.5137,-3.5204,-3.5204,-3.5204,-3.5204,-3.5204,-3.5257,-3.5565,-3.5885,-3.6126,-3.646,-3.6714,-3.6887,-3.6927,-3.7061,-3.7141,-3.7221,-3.7422,-3.7849,-3.809,-3.8263,-3.8477,-3.8611,-3.8704,-3.8691,-3.8718,-3.8718,-3.8798,-3.8891,-3.8945,-3.8998,-3.9052,-3.9132,-3.9132,-3.9132,-3.9225,-3.9319,-3.9533,-3.9706,-3.9773,-3.9853,-3.9987,-4.0107,-4.0227,-4.0308,-1.5181,-1.5181,-1.5181,-1.5181,-1.5181,-1.5181,-1.5181,-1.5368,-1.6306,-1.7429,-1.8541,-2.077,-2.28,-2.4873,-2.7085,-2.8698,-2.9886,-3.081,-3.1423,-3.1583,-3.1623,-3.1637,-3.1677,-3.1677,-3.1677,-3.1677,-3.1677,-3.1677,-3.1677,-3.1677,-3.1677,-3.1677,-3.1677,-3.1677,-3.1677,-3.1677,-3.1677,-3.1677,-3.1677,-3.173,-3.181,-3.227,-3.2687,-3.3184,-3.3213,-3.3374,-3.3387,-3.3334,-3.3187,-3.2919,-3.2639,-3.2505,-3.2412,-3.2291,-3.2198,-3.2452,-3.2332,-3.2519,-3.2799,-3.3013,-3.3173,-3.34,-3.3414,-3.3454,-3.3534,-3.3721,-3.3921,-3.4189,-3.4523,-3.4923,-3.5164,-3.5204,-3.5204,-3.5204,-3.5204,-3.5217,-3.5351,-3.5752,-3.6006,-3.6139,-3.6513,-3.6861,-3.6914,-3.6954,-3.7141,-3.7315,-3.7408,-3.7609,-3.8036,-3.8344,-3.8491,-3.8557,-3.8678,-3.8718,-3.8718,-3.8718,-3.8718,-3.8811,-3.8945,-3.9065,-3.9159,-3.9279,-3.9332,-3.9319,-3.9346,-3.9466,-3.9626,-3.9827,-3.9974,-4.0054,-4.0134,-4.0214,-4.0334,-4.0454,-4.0481,-1.5181,-1.5181,-1.5181,-1.5181,-1.5181,-1.5181,-1.5181,-1.5368,-1.6306,-1.7242,-1.8354,-2.0399,-2.2432,-2.4529,-2.6547,-2.8741,-3.0477,-3.1396,-3.1597,-3.1664,-3.1677,-3.1677,-3.1677,-3.1677,-3.1677,-3.1677,-3.1677,-3.1677,-3.1677,-3.1677,-3.1677,-3.1677,-3.1677,-3.1677,-3.1677,-3.1677,-3.1677,-3.1677,-3.1704,-3.181,-3.2011,-3.2332,-3.2732,-3.324,-3.3347,-3.336,-3.332,-3.316,-3.2919,-3.2625,-3.2332,-3.2225,-3.2211,-3.2158,-3.2211,-3.2332,-3.2599,-3.2826,-3.3013,-3.3213,-3.332,-3.34,-3.344,-3.3574,-3.3734,-3.3908,-3.4175,-3.4549,-3.4857,-3.5137,-3.5191,-3.5204,-3.5204,-3.5204,-3.5217,-3.5297,-3.5538,-3.5819,-3.6086,-3.6179,-3.658,-3.6941,-3.6941,-3.6994,-3.7168,-3.7382,-3.7569,-3.7823,-3.8223,-3.8477,-3.8638,-3.8678,-3.8704,-3.8718,-3.8718,-3.8718,-3.8731,-3.8811,-3.8945,-3.891,-3.9279,-3.9702,-3.9783,-3.9706,-3.9746,-3.9827,-3.9987,-4.0134,-4.0214,-4.0281,-4.0348,-4.0401,-4.0441,-4.0481,-4.0481,-1.5181,-1.5181,-1.5181,-1.5181,-1.5181,-1.5181,-1.5181,-1.5368,-1.6306,-1.7242,-1.8541,-2.0584,-2.2687,-2.4855,-2.7116,-2.9216,-3.0993,-3.1583,-3.1677,-3.1677,-3.1677,-3.1677,-3.1677,-3.1677,-3.1677,-3.1677,-3.1677,-3.1677,-3.1677,-3.1677,-3.1677,-3.1677,-3.1677,-3.1677,-3.1677,-3.1677,-3.1677,-3.169,-3.181,-3.1957,-3.2144,-3.2532,-3.3,-3.3253,-3.3267,-3.32,-3.3133,-3.2906,-3.2612,-3.2385,-3.2332,-3.2238,-3.2238,-3.2372,-3.2545,-3.2599,-3.2826,-3.3066,-3.3173,-3.3347,-3.34,-3.3427,-3.3547,-3.3708,-3.3935,-3.4175,-3.4509,-3.487,-3.5057,-3.5204,-3.5204,-3.5204,-3.5204,-3.5204,-3.5204,-3.5338,-3.5605,-3.5899,-3.6099,-3.6273,-3.666,-3.6914,-3.6941,-3.7034,-3.7195,-3.7435,-3.7702,-3.8036,-3.841,-3.8571,-3.8718,-3.8718,-3.8718,-3.8718,-3.8718,-3.8718,-3.8771,-3.8865,-3.8804,-3.9003,-3.9519,-3.9773,-4.008,-4.0348,-4.0348,-4.0227,-4.0254,-4.0361,-4.0441,-4.0495,-4.0481,-4.0481,-4.0481,-4.0481,-4.0481,-1.5181,-1.5181,-1.5181,-1.5181,-1.5181,-1.5181,-1.5181,-1.5556,-1.6494,-1.7421,-1.8735,-2.0964,-2.3293,-2.5577,-2.7937,-3.0033,-3.165,-3.1677,-3.1677,-3.1677,-3.1677,-3.1677,-3.1677,-3.1677,-3.1677,-3.1677,-3.1677,-3.1677,-3.1677,-3.1677,-3.1677,-3.1677,-3.1677,-3.1677,-3.1677,-3.1677,-3.1677,-3.1824,-3.1957,-3.2118,-3.2385,-3.2772,-3.312,-3.3293,-3.3093,-3.2973,-3.2879,-3.2612,-3.2438,-3.2332,-3.2332,-3.2398,-3.2385,-3.2719,-3.2986,-3.3053,-3.3066,-3.32,-3.332,-3.34,-3.344,-3.3547,-3.3748,-3.3908,-3.4189,-3.4549,-3.4923,-3.5151,-3.5204,-3.5204,-3.5204,-3.5204,-3.5204,-3.5204,-3.5217,-3.5338,-3.5672,-3.5979,-3.6259,-3.6487,-3.6794,-3.6901,-3.6927,-3.7008,-3.7155,-3.7515,-3.7796,-3.813,-3.845,-3.8611,-3.8718,-3.8718,-3.8718,-3.8718,-3.8718,-3.8718,-3.8811,-3.8945,-3.8964,-3.8979,-3.9574,-4.0161,-4.0468,-4.0748,-4.0722,-4.0615,-4.0615,-4.0628,-4.0722,-4.0735,-4.0628,-4.0535,-4.0508,-4.0481,-4.0481,-1.5181,-1.5181,-1.5181,-1.5181,-1.5181,-1.5181,-1.5368,-1.5938,-1.6868,-1.8168,-1.9657,-2.1714,-2.3868,-2.6411,-2.9093,-3.0792,-3.1394,-3.1677,-3.1677,-3.1677,-3.1677,-3.1677,-3.1677,-3.1677,-3.1677,-3.1677,-3.1677,-3.1677,-3.1677,-3.1677,-3.1677,-3.1677,-3.1677,-3.169,-3.173,-3.1744,-3.181,-3.2011,-3.2104,-3.2358,-3.2786,-3.3133,-3.3173,-3.3066,-3.2946,-3.2812,-3.2599,-3.2358,-3.2251,-3.2425,-3.2265,-3.2425,-3.2772,-3.2919,-3.3133,-3.328,-3.336,-3.3374,-3.34,-3.3454,-3.3561,-3.3734,-3.3908,-3.4175,-3.4536,-3.4857,-3.5124,-3.5177,-3.5204,-3.5204,-3.5204,-3.5204,-3.5204,-3.5217,-3.5244,-3.5525,-3.5859,-3.6086,-3.6366,-3.662,-3.6887,-3.6914,-3.6941,-3.7021,-3.7141,-3.7515,-3.7889,-3.8197,-3.8477,-3.8624,-3.8718,-3.8718,-3.8718,-3.8718,-3.8718,-3.8718,-3.8851,-3.9012,-3.907,-3.9164,-3.98,-4.0401,-4.0748,-4.0949,-4.0962,-4.1096,-4.1189,-4.1189,-4.1109,-4.0962,-4.0829,-4.0668,-4.0521,-4.0495,-4.0495,-1.5181,-1.5181,-1.5181,-1.5181,-1.5181,-1.5556,-1.5938,-1.6494,-1.7803,-1.9099,-2.0797,-2.2748,-2.5228,-2.8047,-3.0363,-3.1354,-3.165,-3.1677,-3.1677,-3.1677,-3.1677,-3.1677,-3.1677,-3.1677,-3.1677,-3.1677,-3.1677,-3.1677,-3.1677,-3.1677,-3.1677,-3.1677,-3.169,-3.1784,-3.1864,-3.1904,-3.2091,-3.2318,-3.2519,-3.2732,-3.2946,-3.308,-3.3026,-3.2746,-3.2585,-3.2438,-3.2318,-3.2198,-3.2144,-3.2332,-3.2398,-3.2692,-3.2959,-3.312,-3.3293,-3.336,-3.3013,-3.3013,-3.3427,-3.3574,-3.3748,-3.3948,-3.4189,-3.4589,-3.4937,-3.511,-3.5204,-3.5204,-3.5204,-3.5204,-3.5204,-3.5204,-3.5204,-3.5231,-3.5378,-3.5672,-3.5992,-3.6233,-3.6473,-3.6727,-3.6941,-3.6941,-3.6941,-3.6967,-3.7101,-3.7422,-3.7769,-3.8076,-3.837,-3.8597,-3.8678,-3.8718,-3.8718,-3.8718,-3.8718,-3.8718,-3.8891,-3.9078,-3.9359,-3.9495,-4.0214,-4.0601,-4.1194,-4.153,-4.1443,-4.1577,-4.1737,-4.1577,-4.1323,-4.1163,-4.1016,-4.0882,-4.0748,-4.0535,-4.0521,-1.5181,-1.5181,-1.5181,-1.5181,-1.5181,-1.5751,-1.6306,-1.7242,-1.8727,-2.0232,-2.2397,-2.466,-2.7462,-2.9695,-3.0923,-3.165,-3.1664,-3.1677,-3.1677,-3.1677,-3.1677,-3.1677,-3.1677,-3.1677,-3.1677,-3.1677,-3.1677,-3.1677,-3.1677,-3.1677,-3.1677,-3.1677,-3.1784,-3.1891,-3.2051,-3.2198,-3.2358,-3.2639,-3.2826,-3.2933,-3.2973,-3.2893,-3.2706,-3.2465,-3.2238,-3.2104,-3.2104,-3.2104,-3.2104,-3.2452,-3.2706,-3.2959,-3.312,-3.328,-3.3374,-3.3213,-3.3013,-3.2878,-3.3171,-3.3532,-3.3731,-3.4215,-3.4509,-3.4923,-3.5097,-3.5204,-3.5204,-3.5204,-3.5204,-3.5231,-3.5271,-3.5311,-3.5404,-3.5511,-3.5631,-3.5885,-3.6126,-3.6353,-3.6567,-3.678,-3.6941,-3.6941,-3.6941,-3.6941,-3.7088,-3.7355,-3.7662,-3.8197,-3.829,-3.8597,-3.8664,-3.8718,-3.8718,-3.8718,-3.8718,-3.8771,-3.8931,-3.9172,-3.9452,-3.9827,-4.0321,-4.1033,-4.1423,-4.1745,-4.1737,-4.1924,-4.1991,-4.1764,-4.1537,-4.1443,-4.135,-4.1189,-4.1002,-4.0748,-4.0535,-1.5181,-1.5181,-1.5181,-1.5181,-1.5368,-1.5751,-1.6681,-1.8363,-1.9657,-2.2006,-2.4671,-2.7673,-2.9444,-3.0564,-3.1152,-3.1677,-3.1677,-3.1677,-3.1677,-3.1677,-3.1677,-3.1677,-3.1677,-3.1677,-3.1677,-3.1677,-3.1677,-3.1677,-3.169,-3.173,-3.1704,-3.1704,-3.1904,-3.2038,-3.2225,-3.2438,-3.2625,-3.2826,-3.2919,-3.2893,-3.2826,-3.2679,-3.2425,-3.2211,-3.2118,-3.2104,-3.2104,-3.2171,-3.2372,-3.2786,-3.2959,-3.312,-3.328,-3.336,-3.3414,-3.3213,-3.2878,-3.2794,-3.2989,-3.3107,-3.3765,-3.4382,-3.4937,-3.5124,-3.5191,-3.5204,-3.5204,-3.5217,-3.5244,-3.5126,-3.5258,-3.5378,-3.5685,-3.5819,-3.5939,-3.6112,-3.6313,-3.646,-3.666,-3.6861,-3.6941,-3.6941,-3.6941,-3.6941,-3.6981,-3.7235,-3.7901,-3.8224,-3.8397,-3.8691,-3.8691,-3.8718,-3.8718,-3.8718,-3.8731,-3.8838,-3.9025,-3.9306,-3.9586,-3.9987,-4.0428,-4.1114,-4.1476,-4.1732,-4.1697,-4.1978,-4.2191,-4.1991,-4.1831,-4.1777,-4.1657,-4.1416,-4.1163,-4.0895,-4.0668,-1.5181,-1.5181,-1.5563,-1.5563,-1.5751,-1.6501,-1.7795,-1.9674,-2.1635,-2.4319,-2.7322,-2.9243,-3.0389,-3.0923,-3.1394,-3.1677,-3.1677,-3.1677,-3.1677,-3.1677,-3.1677,-3.1677,-3.1677,-3.1677,-3.1677,-3.1677,-3.1677,-3.1677,-3.1677,-3.1837,-3.1931,-3.1998,-3.2104,-3.2358,-3.2559,-3.2679,-3.2826,-3.2853,-3.2786,-3.2639,-3.2425,-3.2358,-3.2131,-3.1864,-3.2051,-3.2091,-3.2158,-3.2478,-3.2732,-3.2946,-3.3146,-3.328,-3.3387,-3.3414,-3.344,-3.3266,-3.2781,-3.2621,-3.2635,-3.2725,-3.3382,-3.4255,-3.4702,-3.4768,-3.498,-3.5204,-3.5204,-3.5244,-3.5364,-3.5285,-3.5351,-3.5564,-3.5965,-3.6329,-3.6463,-3.6393,-3.65,-3.6633,-3.6727,-3.6914,-3.6941,-3.6941,-3.6941,-3.6941,-3.6994,-3.7114,-3.7807,-3.8505,-3.8681,-3.8718,-3.8718,-3.8718,-3.8718,-3.8718,-3.8718,-3.8905,-3.9118,-3.9412,-3.9706,-4.0094,-4.0454,-4.0762,-4.1342,-4.1363,-4.1603,-4.1804,-4.1978,-4.2124,-4.2111,-4.1991,-4.179,-4.1537,-4.1296,-4.1029,-4.0775,-1.5181,-1.5181,-1.5751,-1.5938,-1.6314,-1.7429,-1.9125,-2.1058,-2.3241,-2.6199,-2.952,-3.0376,-3.091,-3.1257,-3.1487,-3.1677,-3.1677,-3.1677,-3.1677,-3.1677,-3.1677,-3.1677,-3.1677,-3.1677,-3.1677,-3.169,-3.1784,-3.181,-3.1851,-3.2104,-3.2278,-3.2358,-3.2372,-3.2625,-3.2679,-3.2853,-3.2853,-3.2786,-3.2559,-3.2345,-3.2131,-3.2118,-3.2078,-3.1904,-3.2118,-3.2332,-3.2465,-3.2746,-3.2959,-3.3133,-3.328,-3.3387,-3.344,-3.3494,-3.3346,-3.325,-3.2825,-3.2287,-3.2074,-3.2274,-3.2856,-3.3608,-3.3896,-3.4346,-3.4768,-3.4993,-3.5217,-3.5364,-3.5525,-3.5471,-3.5336,-3.5869,-3.6299,-3.6678,-3.6553,-3.6687,-3.67,-3.6794,-3.6847,-3.6941,-3.6941,-3.6941,-3.7008,-3.7048,-3.7275,-3.7408,-3.8022,-3.8439,-3.8531,-3.8718,-3.8718,-3.8718,-3.8718,-3.8718,-3.8731,-3.8865,-3.9038,-3.9439,-3.9746,-4.0094,-4.0441,-4.0952,-4.1167,-4.1136,-4.135,-4.1577,-4.1697,-4.1764,-4.1964,-4.2165,-4.1897,-4.159,-4.1336,-4.1069,-4.0788,-1.5181,-1.5181,-1.5751,-1.6314,-1.707,-1.8354,-2.0127,-2.2526,-2.466,-2.7378,-3.0337,-3.1328,-3.1623,-3.1677,-3.1677,-3.1677,-3.1677,-3.1677,-3.1677,-3.1677,-3.1677,-3.1677,-3.1677,-3.1677,-3.1704,-3.1757,-3.1891,-3.2024,-3.2104,-3.2398,-3.2652,-3.2772,-3.2746,-3.2746,-3.2585,-3.2559,-3.2559,-3.2519,-3.2265,-3.2118,-3.2118,-3.2104,-3.2078,-3.2185,-3.2385,-3.2625,-3.2786,-3.2946,-3.3146,-3.3307,-3.336,-3.3427,-3.3494,-3.3708,-3.3612,-3.3081,-3.2969,-3.1978,-3.0716,-3.1389,-3.171,-3.2385,-3.2848,-3.3485,-3.4346,-3.4808,-3.5324,-3.5498,-3.5698,-3.5737,-3.5989,-3.6254,-3.6633,-3.6727,-3.6821,-3.6861,-3.6874,-3.6874,-3.6914,-3.6941,-3.6941,-3.6954,-3.6825,-3.6972,-3.7277,-3.7769,-3.8318,-3.8614,-3.8638,-3.8718,-3.8718,-3.8718,-3.8718,-3.8718,-3.8718,-3.8758,-3.8958,-3.9372,-3.9733,-4.0027,-4.0294,-4.0535,-4.0735,-4.0909,-4.1109,-4.1323,-4.135,-4.1376,-4.1644,-4.1871,-4.1844,-4.1603,-4.135,-4.1096,-4.0815,-1.5375,-1.5751,-1.6501,-1.7858,-1.9449,-2.002,-2.175,-2.4484,-2.739,-2.9644,-3.1099,-3.165,-3.1677,-3.1677,-3.1677,-3.1677,-3.1677,-3.1677,-3.1677,-3.1677,-3.1677,-3.1677,-3.1677,-3.1704,-3.177,-3.1931,-3.2091,-3.2265,-3.2398,-3.2666,-3.2826,-3.2946,-3.2786,-3.2759,-3.2692,-3.2545,-3.2251,-3.2198,-3.2011,-3.1891,-3.2078,-3.2118,-3.2225,-3.2398,-3.2679,-3.2893,-3.3013,-3.3146,-3.3293,-3.34,-3.3427,-3.3521,-3.3654,-3.3895,-3.3798,-3.3136,-3.2811,-3.1174,-2.9225,-2.8737,-2.9415,-3.0714,-3.1783,-3.2635,-3.3922,-3.4541,-3.5098,-3.5497,-3.5763,-3.6015,-3.6201,-3.6454,-3.6834,-3.6861,-3.6914,-3.6914,-3.6914,-3.6927,-3.6941,-3.6941,-3.6941,-3.7128,-3.7261,-3.729,-3.7596,-3.7996,-3.8506,-3.8667,-3.8678,-3.8704,-3.8718,-3.8718,-3.8718,-3.8718,-3.8731,-3.8771,-3.8891,-3.9239,-3.9533,-3.98,-4.0067,-4.0321,-4.0468,-4.0588,-4.0829,-4.1056,-4.1069,-4.1136,-4.1363,-4.151,-4.1443,-4.1638,-4.1409,-4.1221,-4.106,-1.5563,-1.6133,-1.7507,-1.927,-2.1048,-2.162,-2.3749,-2.6783,-2.9469,-3.1125,-3.1637,-3.1677,-3.1677,-3.1677,-3.1677,-3.1677,-3.1677,-3.1677,-3.1677,-3.1677,-3.1677,-3.1677,-3.169,-3.177,-3.1931,-3.2118,-3.2345,-3.2532,-3.2692,-3.2879,-3.2893,-3.2759,-3.2559,-3.2492,-3.2438,-3.2198,-3.1957,-3.1944,-3.1864,-3.1944,-3.2131,-3.2305,-3.2519,-3.2732,-3.2946,-3.3146,-3.3187,-3.328,-3.3414,-3.344,-3.3534,-3.3654,-3.3868,-3.4108,-3.3831,-3.3252,-3.1571,-2.9663,-2.7639,-2.6393,-2.7486,-2.9426,-3.0071,-3.1617,-3.3186,-3.4017,-3.4893,-3.5344,-3.5877,-3.6268,-3.6427,-3.6887,-3.6914,-3.6941,-3.6941,-3.6941,-3.6941,-3.6941,-3.6954,-3.6954,-3.7141,-3.7328,-3.7582,-3.7876,-3.7954,-3.8317,-3.8694,-3.8584,-3.8691,-3.8704,-3.8718,-3.8718,-3.8718,-3.8718,-3.8744,-3.8798,-3.8945,-3.9132,-3.9332,-3.9546,-3.9813,-4.0054,-4.0161,-4.0308,-4.0561,-4.0762,-4.0802,-4.0895,-4.1016,-4.1288,-4.1234,-4.1181,-4.114,-4.1291,-4.1426,-1.5556,-1.6335,-1.8584,-2.0341,-2.1836,-2.3395,-2.6268,-2.9733,-3.0583,-3.127,-3.1664,-3.1677,-3.1677,-3.1677,-3.1677,-3.1677,-3.1677,-3.1677,-3.1677,-3.1677,-3.1677,-3.169,-3.1797,-3.1944,-3.2131,-3.2345,-3.2572,-3.2799,-3.2959,-3.2879,-3.2759,-3.2532,-3.2291,-3.2211,-3.2078,-3.1971,-3.1824,-3.1877,-3.1971,-3.2104,-3.2332,-3.2652,-3.2839,-3.304,-3.32,-3.332,-3.336,-3.34,-3.344,-3.3534,-3.3708,-3.3855,-3.4095,-3.4469,-3.4032,-3.2734,-3.0136,-2.8274,-2.6816,-2.5969,-2.6009,-2.7765,-2.904,-3.065,-3.2097,-3.3334,-3.4261,-3.4939,-3.5636,-3.626,-3.6666,-3.6693,-3.6927,-3.6941,-3.6941,-3.6941,-3.6941,-3.6954,-3.6967,-3.7088,-3.7355,-3.7609,-3.7969,-3.8277,-3.841,-3.8504,-3.8597,-3.8624,-3.8704,-3.8704,-3.8718,-3.8718,-3.8718,-3.8718,-3.8758,-3.8798,-3.8851,-3.8985,-3.9052,-3.9252,-3.9519,-3.9827,-4.0027,-4.0214,-4.0361,-4.0495,-4.0615,-4.0601,-4.0818,-4.0831,-4.1399,-4.1669,-4.194,-4.2072,-4.2458,-1.5924,-1.7078,-1.8936,-2.0962,-2.3779,-2.6932,-2.9292,-3.0596,-3.1257,-3.1664,-3.1677,-3.1677,-3.1677,-3.1677,-3.1677,-3.1677,-3.1677,-3.1677,-3.1677,-3.1677,-3.1704,-3.181,-3.1944,-3.2104,-3.2358,-3.2625,-3.2866,-3.2959,-3.2906,-3.2812,-3.2519,-3.2238,-3.2144,-3.1998,-3.1931,-3.1917,-3.1971,-3.2024,-3.2144,-3.2345,-3.2599,-3.2893,-3.3093,-3.3253,-3.3334,-3.3414,-3.3414,-3.344,-3.3521,-3.3748,-3.3828,-3.4015,-3.4549,-3.4696,-3.4177,-3.2711,-3.0453,-2.8339,-2.7259,-2.6403,-2.6266,-2.6832,-2.7954,-2.9478,-3.1169,-3.2277,-3.3444,-3.4304,-3.5131,-3.5962,-3.6484,-3.6954,-3.6954,-3.6941,-3.6941,-3.6941,-3.6954,-3.7008,-3.7061,-3.7395,-3.7649,-3.7916,-3.829,-3.8464,-3.8597,-3.8678,-3.8718,-3.8718,-3.8718,-3.8718,-3.8718,-3.8718,-3.8718,-3.8718,-3.8718,-3.8744,-3.8771,-3.8825,-3.8905,-3.9065,-3.9426,-3.972,-3.9947,-4.0161,-4.0374,-4.0454,-4.0495,-4.0724,-4.1195,-4.1664,-4.2217,-4.2231,-4.2458,-4.3124,-4.4026,-1.6112,-1.7655,-2.0548,-2.3473,-2.642,-2.9214,-3.0713,-3.1297,-3.1474,-3.1677,-3.1677,-3.1677,-3.1677,-3.1677,-3.1677,-3.1677,-3.1677,-3.1677,-3.1677,-3.169,-3.1784,-3.1931,-3.2078,-3.2318,-3.2559,-3.2812,-3.2893,-3.2906,-3.2772,-3.2519,-3.2225,-3.1971,-3.2011,-3.1998,-3.1984,-3.2144,-3.2358,-3.2425,-3.2532,-3.2679,-3.2866,-3.308,-3.3267,-3.336,-3.3414,-3.3427,-3.3454,-3.3507,-3.3721,-3.3948,-3.4015,-3.4362,-3.4776,-3.4648,-3.4321,-3.281,-3.1118,-2.9709,-2.8685,-2.7632,-2.7102,-2.6814,-2.6935,-2.7659,-2.905,-3.0332,-3.1857,-3.3147,-3.4605,-3.5622,-3.6302,-3.6981,-3.6954,-3.6941,-3.6941,-3.6941,-3.6994,-3.7061,-3.7355,-3.7702,-3.7983,-3.8223,-3.8464,-3.8624,-3.8718,-3.8718,-3.8718,-3.8718,-3.8718,-3.8718,-3.8718,-3.8718,-3.8718,-3.8718,-3.8718,-3.8718,-3.8744,-3.8758,-3.8771,-3.8985,-3.9346,-3.9653,-3.9907,-4.0187,-4.0441,-4.0724,-4.0953,-4.1423,-4.1906,-4.2615,-4.3801,-4.4772,-4.5264,-4.5249,-4.6644,-1.6119,-1.7866,-2.2854,-2.6511,-2.9338,-3.0331,-3.1107,-3.1664,-3.1677,-3.1677,-3.1677,-3.1677,-3.1677,-3.1677,-3.1677,-3.1677,-3.1677,-3.1677,-3.1677,-3.169,-3.1931,-3.2078,-3.2238,-3.2612,-3.2639,-3.2679,-3.2719,-3.2746,-3.2687,-3.2431,-3.1971,-3.1717,-3.1971,-3.2091,-3.2185,-3.2438,-3.2652,-3.2786,-3.2893,-3.3013,-3.308,-3.3253,-3.3414,-3.3414,-3.3454,-3.3494,-3.3547,-3.3708,-3.3935,-3.4148,-3.4376,-3.471,-3.4674,-3.4597,-3.4069,-3.3323,-3.2081,-3.1151,-3.0185,-2.9152,-2.7976,-2.7277,-2.6817,-2.6407,-2.7131,-2.8978,-3.0465,-3.1666,-3.2892,-3.4718,-3.5635,-3.6302,-3.6733,-3.6759,-3.7021,-3.7061,-3.7128,-3.7315,-3.7702,-3.8023,-3.8223,-3.8464,-3.8557,-3.8718,-3.8718,-3.8718,-3.8718,-3.8718,-3.8718,-3.8718,-3.8718,-3.8718,-3.8718,-3.8718,-3.8718,-3.8718,-3.8718,-3.8718,-3.8758,-3.8972,-3.9372,-3.9653,-3.9893,-4.0428,-4.0953,-4.1195,-4.1664,-4.2374,-4.3321,-4.4519,-4.5933,-4.759,-4.8297,-4.8297,-4.9236,-1.6343,-1.8781,-2.3745,-2.7175,-2.9363,-3.0535,-3.1297,-3.1677,-3.1677,-3.1677,-3.1677,-3.1677,-3.1677,-3.1677,-3.1677,-3.1677,-3.1677,-3.1677,-3.1677,-3.177,-3.1984,-3.2131,-3.2171,-3.2505,-3.2585,-3.2599,-3.2585,-3.2478,-3.2225,-3.1971,-3.1904,-3.1984,-3.2158,-3.2265,-3.2452,-3.2732,-3.2946,-3.3053,-3.3173,-3.3267,-3.3347,-3.3347,-3.3414,-3.3494,-3.3574,-3.3734,-3.3855,-3.4042,-3.4322,-3.4576,-3.4656,-3.487,-3.5084,-3.4531,-3.4463,-3.418,-3.3362,-3.2662,-3.1733,-3.0514,-2.886,-2.7439,-2.6475,-2.5449,-2.5741,-2.738,-2.9007,-3.018,-3.1567,-3.3376,-3.473,-3.5609,-3.6537,-3.6825,-3.7128,-3.7195,-3.7275,-3.7662,-3.8063,-3.8277,-3.8477,-3.8584,-3.8691,-3.8718,-3.8718,-3.8718,-3.8718,-3.8718,-3.8718,-3.8718,-3.8718,-3.8718,-3.8718,-3.8718,-3.8718,-3.8784,-3.8811,-3.8891,-3.8945,-3.9172,-3.9439,-4.0052,-4.0415,-4.1018,-4.1423,-4.2147,-4.3096,-4.404,-4.4981,-4.6644,-4.8297,-5.0172,-5.1782,-5.2245,-5.2955,-1.6423,-1.9037,-2.4166,-2.758,-2.9721,-3.0903,-3.1487,-3.1677,-3.1677,-3.1677,-3.1677,-3.1677,-3.1677,-3.1677,-3.1677,-3.1677,-3.1677,-3.1677,-3.1784,-3.1904,-3.1998,-3.2185,-3.2318,-3.2425,-3.2385,-3.2385,-3.2198,-3.2038,-3.1944,-3.2189,-3.2216,-3.2158,-3.2291,-3.2559,-3.2772,-3.3,-3.316,-3.3187,-3.3347,-3.3467,-3.3547,-3.3507,-3.3534,-3.3641,-3.3788,-3.3948,-3.4162,-3.4349,-3.4563,-3.4776,-3.4883,-3.5004,-3.5191,-3.5112,-3.5032,-3.4964,-3.4463,-3.3776,-3.3102,-3.1682,-2.9743,-2.8091,-2.6158,-2.5132,-2.4235,-2.5863,-2.7222,-2.8616,-3.0879,-3.2691,-3.4271,-3.5387,-3.6407,-3.6958,-3.7301,-3.7395,-3.7635,-3.7996,-3.829,-3.8504,-3.8624,-3.8651,-3.8718,-3.8718,-3.8718,-3.8718,-3.8718,-3.8718,-3.8718,-3.8731,-3.8731,-3.8758,-3.8771,-3.8744,-3.8731,-3.8838,-3.8972,-3.9052,-3.9159,-3.9452,-3.9746,-4.0374,-4.0939,-4.1664,-4.2615,-4.3561,-4.4519,-4.5933,-4.7794,-4.9672,-5.1319,-5.2973,-5.4333,-5.5438,-5.5647,-1.6912,-1.9871,-2.48,-2.8176,-3.0102,-3.1284,-3.1677,-3.1677,-3.1677,-3.1677,-3.1677,-3.1677,-3.1677,-3.1677,-3.1677,-3.1677,-3.1677,-3.1677,-3.1824,-3.1944,-3.2064,-3.2104,-3.2238,-3.2398,-3.2251,-3.2064,-3.1864,-3.1851,-3.1837,-3.2162,-3.2337,-3.2291,-3.2625,-3.3,-3.3106,-3.324,-3.3374,-3.3387,-3.3494,-3.3641,-3.3654,-3.3641,-3.3721,-3.3841,-3.4015,-3.4135,-3.4389,-3.4616,-3.479,-3.4897,-3.5044,-3.5177,-3.5311,-3.5471,-3.5685,-3.5617,-3.56,-3.4952,-3.4278,-3.257,-3.0678,-2.8759,-2.6558,-2.4985,-2.4075,-2.4553,-2.6158,-2.7777,-3.0267,-3.211,-3.3685,-3.5093,-3.6142,-3.696,-3.7078,-3.7476,-3.7795,-3.8074,-3.826,-3.8459,-3.8472,-3.8485,-3.8718,-3.8718,-3.8718,-3.8718,-3.8718,-3.8718,-3.8731,-3.8758,-3.8771,-3.8838,-3.8905,-3.8851,-3.8825,-3.8945,-3.9132,-3.9306,-3.9452,-3.9746,-4.0267,-4.1259,-4.2147,-4.3096,-4.3801,-4.5442,-4.7102,-4.8516,-5.0621,-5.2459,-5.3628,-5.5001,-5.5744,-5.6629,-5.7546,-1.8773,-2.4365,-2.6681,-2.8536,-3.0128,-3.1284,-3.1677,-3.1677,-3.1664,-3.1677,-3.1637,-3.1664,-3.1677,-3.1664,-3.1677,-3.1677,-3.1677,-3.1677,-3.1677,-3.1757,-3.1971,-3.1957,-3.1984,-3.2144,-3.1998,-3.1851,-3.1757,-3.1837,-3.1957,-3.231,-3.2592,-3.2759,-3.2826,-3.3093,-3.332,-3.3414,-3.3427,-3.3494,-3.3668,-3.3828,-3.3868,-3.3691,-3.3784,-3.4189,-3.4703,-3.481,-3.4763,-3.4963,-3.507,-3.5137,-3.5191,-3.5338,-3.5498,-3.5658,-3.5899,-3.6153,-3.6122,-3.5869,-3.4713,-3.3207,-3.151,-2.9954,-2.7717,-2.5681,-2.5269,-2.5378,-2.6558,-2.7567,-2.9886,-3.1544,-3.3176,-3.4375,-3.5408,-3.5965,-3.6321,-3.6794,-3.7064,-3.7155,-3.7477,-3.7775,-3.8021,-3.8253,-3.8718,-3.8718,-3.8718,-3.8718,-3.8718,-3.8718,-3.8731,-3.8771,-3.8825,-3.8931,-3.9038,-3.9065,-3.9078,-3.9159,-3.9319,-3.9519,-3.9931,-4.0583,-4.1279,-4.2248,-4.3321,-4.4327,-4.6048,-4.7496,-4.9155,-5.0968,-5.269,-5.4526,-5.5702,-5.7024,-5.7489,-5.7783,-5.8005]},{"header":{"parameterUnit":"m.s-1","parameterCategory":1,"la1":31.0,"la2":29.5877,"lo1":-88.7671,"lo2":-86.6584,"dx":0.0162,"dy":0.0185,"nx":115,"ny":88,"refTime":"2023-01-11T06:00:00:Z","depth":0,"parameterNumber":3,"parameterNumberName":"V-component_of_WINDS"},"data":[0.0,0.0,0.0,0.0,0.0,0.0,0.0,0.0,0.0,0.0,0.0,0.0,0.0,0.0,0.0,0.0,0.0,0.0,0.0,0.0,0.0,0.0,0.0,0.0,0.0,0.0,0.0,0.0,0.0,0.0,0.0,0.0,0.0,0.0,0.0,0.0,0.0,0.0,0.0,0.0,0.0,0.0,0.0,0.0,0.0,0.0,0.0,0.0,0.0,0.0,0.0,0.0,0.0,0.0,0.0,0.0,0.0,0.0,0.0,0.0,0.0,0.0,0.0,0.0,0.0,0.0,0.0,0.0,0.0,0.0,0.0,0.0,0.0,0.0,0.0,0.0,0.0,0.0,0.0,0.0,0.0,0.0,0.0,0.0,0.0,0.0,0.0,0.0,0.0,0.0,0.0,0.0,0.0,0.0,0.0,0.0,0.0,0.0,0.0,0.0,0.0,0.0,0.0,0.0,0.0,0.0,0.0,0.0,0.0,0.0,0.0,0.0,0.0,0.0,0.0,0.0,0.0,0.0,0.0,0.0,0.0,0.0,0.0,0.0,0.0,0.0,0.0,0.0,0.0,0.0,0.0,0.0,0.0,0.0,0.0,0.0,0.0,0.0,0.0,0.0,0.0,0.0,0.0,0.0,0.0,0.0,0.0,0.0,0.0,0.0,0.0,0.0,0.0,0.0,0.0,0.0,0.0,0.0,0.0,0.0,0.0,0.0,0.0,0.0,0.0,0.0,0.0,0.0,0.0,0.0,0.0,0.0,0.0,0.0,0.0,0.0,0.0,0.0,0.0,0.0,0.0,0.0,0.0,0.0,0.0,0.0,0.0,0.0,0.0,0.0,0.0,0.0,0.0,0.0,0.0,0.0,0.0,0.0,0.0,0.0,0.0,0.0,0.0,0.0,0.0,0.0,0.0,0.0,0.0,0.0,0.0,0.0,0.0,0.0,0.0,0.0,0.0,0.0,0.0,0.0,0.0,0.0,0.0,0.0,0.0,0.0,0.0,0.0,0.0,0.0,0.0,0.0,0.0,0.0,0.0,0.0,0.0,0.0,0.0,0.0,0.0,0.0,0.0,0.0,0.0,0.0,0.0,0.0,0.0,0.0,0.0,0.0,0.0,0.0,0.0,0.0,0.0,0.0,0.0,0.0,0.0,0.0,0.0,0.0,0.0,0.0,0.0,0.0,0.0,0.0,0.0,0.0,0.0,0.0,0.0,0.0,0.0,0.0,0.0,0.0,0.0,0.0,0.0,0.0,0.0,0.0,0.0,0.0,0.0,0.0,0.0,0.0,0.0,0.0,0.0,0.0,0.0,0.0,0.0,0.0,0.0,0.0,0.0,0.0,0.0,0.0,0.0,0.0,0.0,0.0,0.0,0.0,0.0,0.0,0.0,0.0,0.0,0.0,0.0,0.0,0.0,0.0,0.0,0.0,0.0,0.0,0.0,0.0,0.0,0.0,0.0,0.0,0.0,0.0,0.0,0.0,0.0,0.0,0.0,0.0,0.0,0.0,0.0,0.0,0.0,0.0,0.0,0.0,0.0,0.0,0.0,0.0,0.0,0.0,0.0,0.0,0.0,0.0,0.0,0.0,0.0,0.0,0.0,0.0,0.0,0.0,0.0,0.0,0.0,0.0,0.0,0.0,0.0,0.0,0.0,0.0,0.0,0.0,0.0,0.0,0.0,0.0,0.0,0.0,0.0,0.0,0.0,0.0,0.0,0.0,0.0,0.0,0.0,0.0,0.0,0.0,0.0,0.0,0.0,0.0,0.0,0.0,0.0,0.0,0.0,0.0,0.0,0.0,0.0,0.0,0.0,0.0,0.0,0.0,0.0,0.0,0.0,0.0,0.0,0.0,0.0,0.0,0.0,0.0,0.0,0.0,0.0,0.0,0.0,0.0,0.0,0.0,0.0,0.0,0.0,0.0,0.0,0.0,0.0,0.0,0.0,0.0,0.0,0.0,0.0,0.0,0.0,0.0,0.0,0.0,0.0,0.0,0.0,0.0,0.0,0.0,0.0,0.0,0.0,0.0,0.0,0.0,0.0,0.0,0.0,0.0,0.0,0.0,0.0,0.0,0.0,0.0,0.0,0.0,0.0,0.0,0.0,0.0,0.0,0.0,0.0,0.0,0.0,0.0,0.0,0.0,0.0,0.0,0.0,0.0,0.0,0.0,0.0,0.0,0.0,0.0,0.0,0.0,0.0,0.0,0.0,0.0,0.0,0.0,0.0,0.0,0.0,0.0,0.0,0.0,0.0,0.0,0.0,0.0,0.0,0.0,0.0,0.0,0.0,0.0,0.0,0.0,0.0,0.0,0.0,0.0,0.0,0.0,0.0,0.0,0.0,0.0,0.0,0.0,0.0,0.0,0.0,0.0,0.0,0.0,0.0,0.0,0.0,0.0,0.0,0.0,0.0,0.0,0.0,0.0,0.0,0.0,0.0,0.0,0.0,0.0,0.0,0.0,0.0,0.0,0.0,0.0,0.0,0.0,0.0,0.0,0.0,0.0,0.0,0.0,0.0,0.0,0.0,0.0,0.0,0.0,0.0,0.0,0.0,0.0,0.0,0.0,0.0,0.0,0.0,0.0,0.0,0.0,0.0,0.0,0.0,0.0,0.0,0.0,0.0,0.0,0.0,0.0,0.0,0.0,0.0,0.0,0.0,0.0,0.0,0.0,0.0,0.0,0.0,0.0,0.0,0.0,0.0,0.0,0.0,0.0,0.0,0.0,0.0,0.0,0.0,0.0,0.0,0.0,0.0,0.0,0.0,0.0,0.0,0.0,0.0,0.0,0.0,0.0,0.0,0.0,0.0,0.0,0.0,0.0,0.0,0.0,0.0,0.0,0.0,0.0,0.0,0.0,0.0,0.0,0.0,0.0,0.0,0.0,0.0,0.0,0.0,0.0,0.0,0.0,0.0,0.0,0.0,0.0,0.0,0.0,0.0,0.0,0.0,0.0,0.0,0.0,0.0,0.0,0.0,0.0,0.0,0.0,0.0,0.0,0.0,0.0,0.0,0.0,0.0,0.0,0.0,0.0,0.0,0.0,0.0,0.0,0.0,0.0,0.0,0.0,0.0,0.0,0.0,0.0,0.0,0.0,0.0,0.0,0.0,0.0,0.0,0.0,0.0,0.0,0.0,0.0,0.0,0.0,0.0,0.0,0.0,0.0,0.0,0.0,0.0,0.0,0.0,0.0,0.0,0.0,0.0,0.0,0.0,0.0,0.0,0.0,0.0,0.0,0.0,0.0,0.0,0.0,0.0,0.0,0.0,0.0,0.0,0.0,0.0,0.0,0.0,0.0,0.0,0.0,0.0,0.0,0.0,0.0,0.0,0.0,0.0,0.0,0.0,0.0,0.0,0.0,0.0,0.0,0.0,0.0,0.0,0.0,0.0,0.0,0.0,0.0,0.0,0.0,0.0,0.0,0.0,0.0,0.0,0.0,0.0,0.0,0.0,0.0,0.0,0.0,0.0,0.0,0.0,0.0,0.0,0.0,0.0,0.0,0.0,0.0,0.0,0.0,0.0,0.0,0.0,0.0,0.0,0.0,0.0,0.0,0.0,0.0,0.0,0.0,0.0,0.0,0.0,0.0,0.0,0.0,0.0,0.0,0.0,0.0,0.0,0.0,0.0,0.0,0.0,0.0,0.0,0.0,0.0,0.0,0.0,0.0,0.0,0.0,0.0,0.0,0.0,0.0,0.0,0.0,0.0,0.0,0.0,0.0,0.0,0.0,0.0,0.0,0.0,0.0,0.0,0.0,0.0,0.0,0.0,0.0,0.0,0.0,0.0,0.0,0.0,0.0,0.0,0.0,0.0,0.0,0.0,0.0,0.0,0.0,0.0,0.0,0.0,0.0,0.0,0.0,0.0,0.0,0.0,0.0,0.0,0.0,0.0,0.0,0.0,0.0,0.0,0.0,0.0,0.0,0.0,0.0,0.0,0.0,0.0,0.0,0.0,0.0,0.0,0.0,0.0,0.0,0.0,0.0,0.0,0.0,0.0,0.0,0.0,0.0,0.0,0.0,0.0,0.0,0.0,0.0,0.0,0.0,0.0,0.0,0.0,0.0,0.0,0.0,0.0,0.0,0.0,0.0,0.0,0.0,0.0,0.0,0.0,0.0,0.0,0.0,0.0,0.0,0.0,0.0,0.0,0.0,0.0,0.0,0.0,0.0,0.0,0.0,0.0,0.0,0.0,0.0,0.0,0.0,0.0,0.0,0.0,0.0,0.0,0.0,0.0,0.0,-3.5077,0.0,0.0,0.0,-3.5746,0.0,0.0,0.0,0.0,0.0,0.0,0.0,0.0,0.0,0.0,0.0,0.0,0.0,0.0,0.0,0.0,0.0,0.0,0.0,0.0,0.0,0.0,0.0,0.0,0.0,0.0,0.0,0.0,0.0,0.0,0.0,0.0,0.0,0.0,0.0,0.0,0.0,0.0,0.0,0.0,0.0,0.0,0.0,0.0,0.0,0.0,0.0,0.0,0.0,0.0,0.0,0.0,0.0,0.0,0.0,0.0,0.0,0.0,0.0,0.0,0.0,0.0,0.0,0.0,0.0,0.0,0.0,0.0,0.0,0.0,0.0,0.0,0.0,0.0,0.0,0.0,0.0,0.0,0.0,0.0,0.0,0.0,0.0,0.0,0.0,0.0,0.0,0.0,0.0,0.0,0.0,0.0,0.0,0.0,0.0,0.0,0.0,0.0,0.0,0.0,0.0,0.0,0.0,0.0,0.0,0.0,0.0,0.0,0.0,0.0,-3.5779,-3.659,-3.6936,-3.7073,-3.7069,0.0,0.0,0.0,0.0,0.0,0.0,0.0,0.0,0.0,0.0,0.0,0.0,0.0,0.0,0.0,0.0,0.0,0.0,0.0,0.0,0.0,0.0,0.0,0.0,0.0,0.0,0.0,0.0,0.0,0.0,0.0,0.0,0.0,0.0,0.0,0.0,0.0,0.0,0.0,0.0,0.0,0.0,0.0,0.0,0.0,0.0,0.0,0.0,0.0,0.0,0.0,0.0,0.0,0.0,0.0,0.0,0.0,0.0,0.0,0.0,0.0,0.0,0.0,0.0,0.0,0.0,0.0,0.0,0.0,0.0,0.0,0.0,0.0,0.0,0.0,0.0,0.0,0.0,0.0,0.0,0.0,0.0,0.0,0.0,0.0,0.0,0.0,0.0,0.0,0.0,0.0,0.0,0.0,0.0,0.0,0.0,0.0,0.0,0.0,0.0,0.0,0.0,0.0,0.0,0.0,0.0,0.0,0.0,0.0,0.0,0.0,0.0,-3.7605,-3.7837,-3.8117,0.0,0.0,0.0,0.0,0.0,0.0,0.0,0.0,0.0,0.0,0.0,0.0,0.0,0.0,0.0,0.0,0.0,0.0,0.0,0.0,0.0,0.0,0.0,0.0,0.0,0.0,0.0,0.0,0.0,0.0,0.0,0.0,0.0,0.0,0.0,0.0,0.0,0.0,0.0,0.0,0.0,0.0,0.0,0.0,0.0,0.0,0.0,0.0,0.0,0.0,0.0,0.0,0.0,0.0,0.0,0.0,0.0,0.0,0.0,0.0,0.0,0.0,0.0,0.0,0.0,0.0,0.0,0.0,0.0,0.0,0.0,0.0,0.0,0.0,0.0,0.0,0.0,0.0,0.0,0.0,0.0,0.0,0.0,0.0,0.0,0.0,0.0,0.0,0.0,0.0,0.0,0.0,0.0,0.0,0.0,0.0,0.0,0.0,0.0,0.0,0.0,0.0,0.0,0.0,0.0,0.0,0.0,0.0,0.0,0.0,-3.7513,-3.8344,-3.9004,0.0,-3.8144,0.0,0.0,0.0,0.0,0.0,0.0,0.0,0.0,0.0,0.0,0.0,0.0,0.0,0.0,0.0,0.0,0.0,0.0,0.0,0.0,0.0,0.0,0.0,0.0,0.0,0.0,0.0,0.0,0.0,0.0,0.0,0.0,0.0,0.0,0.0,0.0,0.0,0.0,0.0,0.0,0.0,0.0,0.0,0.0,0.0,0.0,0.0,0.0,0.0,0.0,0.0,0.0,0.0,0.0,0.0,0.0,0.0,0.0,0.0,0.0,0.0,0.0,0.0,0.0,0.0,0.0,0.0,0.0,0.0,0.0,0.0,0.0,0.0,0.0,0.0,0.0,0.0,0.0,0.0,0.0,0.0,0.0,0.0,0.0,0.0,0.0,0.0,0.0,0.0,0.0,0.0,0.0,0.0,0.0,0.0,0.0,0.0,0.0,0.0,0.0,0.0,0.0,0.0,0.0,0.0,0.0,0.0,0.0,0.0,0.0,-3.7831,-3.9169,-3.9878,-3.9586,0.0,0.0,0.0,0.0,0.0,0.0,0.0,0.0,0.0,0.0,0.0,0.0,0.0,0.0,0.0,0.0,0.0,0.0,0.0,0.0,0.0,0.0,0.0,0.0,0.0,0.0,0.0,0.0,0.0,0.0,0.0,0.0,0.0,0.0,0.0,0.0,0.0,0.0,0.0,0.0,0.0,0.0,0.0,0.0,0.0,0.0,0.0,0.0,0.0,0.0,0.0,0.0,0.0,0.0,0.0,0.0,0.0,0.0,0.0,0.0,0.0,0.0,0.0,0.0,0.0,0.0,0.0,0.0,0.0,0.0,0.0,0.0,0.0,0.0,0.0,0.0,0.0,0.0,0.0,0.0,0.0,0.0,0.0,0.0,0.0,0.0,0.0,0.0,0.0,0.0,0.0,0.0,0.0,0.0,0.0,0.0,0.0,0.0,0.0,0.0,0.0,0.0,0.0,0.0,0.0,0.0,0.0,0.0,0.0,0.0,-3.7792,-3.8571,-3.9915,-4.0471,-3.9882,-3.8157,0.0,0.0,0.0,0.0,0.0,0.0,0.0,0.0,0.0,0.0,0.0,0.0,0.0,0.0,0.0,0.0,0.0,0.0,0.0,0.0,0.0,0.0,0.0,0.0,0.0,0.0,0.0,0.0,0.0,0.0,0.0,0.0,0.0,0.0,0.0,0.0,0.0,0.0,0.0,0.0,0.0,0.0,0.0,0.0,0.0,0.0,0.0,0.0,0.0,0.0,0.0,0.0,0.0,0.0,0.0,0.0,0.0,0.0,0.0,0.0,0.0,0.0,0.0,0.0,0.0,0.0,0.0,0.0,0.0,0.0,0.0,0.0,0.0,0.0,0.0,0.0,0.0,0.0,0.0,0.0,0.0,0.0,0.0,0.0,0.0,0.0,0.0,0.0,0.0,0.0,0.0,0.0,0.0,0.0,0.0,0.0,0.0,0.0,0.0,0.0,0.0,0.0,0.0,0.0,0.0,0.0,0.0,0.0,-3.8449,-3.9189,-3.9971,-4.0715,-4.072,-3.9882,0.0,0.0,0.0,0.0,0.0,0.0,0.0,0.0,0.0,0.0,0.0,0.0,0.0,0.0,0.0,0.0,0.0,0.0,0.0,0.0,0.0,0.0,0.0,0.0,0.0,0.0,0.0,0.0,0.0,0.0,0.0,0.0,0.0,0.0,0.0,0.0,0.0,0.0,0.0,0.0,0.0,0.0,0.0,0.0,0.0,0.0,0.0,0.0,0.0,0.0,0.0,0.0,0.0,0.0,0.0,0.0,0.0,0.0,0.0,0.0,0.0,0.0,0.0,0.0,0.0,0.0,0.0,0.0,0.0,0.0,0.0,0.0,0.0,0.0,0.0,0.0,0.0,0.0,0.0,0.0,0.0,0.0,0.0,0.0,0.0,0.0,0.0,0.0,0.0,0.0,0.0,0.0,0.0,0.0,0.0,0.0,0.0,0.0,0.0,0.0,0.0,0.0,0.0,0.0,0.0,0.0,0.0,0.0,0.0,-3.852,-4.0256,-4.1291,-4.1557,-4.1517,-4.0405,0.0,0.0,0.0,0.0,0.0,0.0,0.0,0.0,0.0,0.0,0.0,0.0,0.0,0.0,0.0,0.0,0.0,0.0,0.0,0.0,0.0,0.0,0.0,0.0,0.0,0.0,0.0,0.0,0.0,0.0,0.0,0.0,0.0,0.0,0.0,0.0,0.0,0.0,0.0,0.0,0.0,0.0,0.0,0.0,0.0,0.0,0.0,0.0,0.0,0.0,0.0,0.0,0.0,0.0,0.0,0.0,0.0,0.0,0.0,0.0,0.0,0.0,0.0,0.0,0.0,0.0,0.0,0.0,0.0,0.0,0.0,0.0,0.0,0.0,0.0,0.0,0.0,0.0,0.0,0.0,0.0,0.0,0.0,0.0,0.0,0.0,0.0,0.0,0.0,0.0,0.0,0.0,0.0,0.0,0.0,0.0,0.0,0.0,0.0,0.0,0.0,0.0,0.0,0.0,0.0,0.0,0.0,0.0,0.0,-3.9652,-4.1446,-4.2396,-4.2342,-4.2078,-4.0954,0.0,0.0,0.0,0.0,0.0,0.0,0.0,0.0,0.0,0.0,0.0,0.0,0.0,0.0,0.0,0.0,0.0,0.0,0.0,0.0,0.0,0.0,0.0,0.0,0.0,0.0,0.0,0.0,0.0,0.0,0.0,0.0,0.0,0.0,0.0,0.0,0.0,0.0,0.0,0.0,0.0,0.0,0.0,0.0,0.0,0.0,0.0,0.0,0.0,0.0,0.0,0.0,0.0,0.0,0.0,0.0,0.0,0.0,0.0,0.0,0.0,0.0,0.0,0.0,0.0,0.0,0.0,0.0,0.0,0.0,0.0,0.0,0.0,0.0,0.0,0.0,0.0,0.0,0.0,0.0,0.0,0.0,0.0,0.0,0.0,0.0,0.0,0.0,0.0,0.0,0.0,0.0,0.0,0.0,0.0,0.0,0.0,0.0,0.0,0.0,0.0,0.0,0.0,0.0,0.0,0.0,0.0,0.0,-3.9762,-4.2028,-4.2925,-4.3347,-4.3127,-4.2418,-4.1478,0.0,0.0,0.0,0.0,0.0,0.0,0.0,0.0,0.0,0.0,0.0,0.0,0.0,0.0,0.0,0.0,0.0,0.0,0.0,0.0,0.0,0.0,0.0,0.0,0.0,0.0,0.0,0.0,0.0,0.0,0.0,0.0,0.0,0.0,0.0,0.0,0.0,0.0,0.0,0.0,0.0,0.0,0.0,0.0,0.0,0.0,0.0,0.0,0.0,0.0,0.0,0.0,0.0,0.0,0.0,0.0,0.0,0.0,0.0,0.0,0.0,0.0,0.0,0.0,0.0,0.0,0.0,0.0,0.0,0.0,0.0,0.0,0.0,0.0,0.0,0.0,0.0,0.0,0.0,0.0,0.0,0.0,0.0,0.0,0.0,0.0,0.0,0.0,0.0,0.0,0.0,0.0,0.0,0.0,0.0,0.0,0.0,0.0,0.0,0.0,0.0,0.0,0.0,0.0,0.0,0.0,0.0,0.0,0.0,-4.4705,-4.5462,-4.5526,-4.4884,-4.4003,-4.2601,0.0,0.0,0.0,0.0,0.0,0.0,0.0,0.0,0.0,0.0,0.0,0.0,0.0,0.0,0.0,0.0,0.0,0.0,0.0,0.0,0.0,0.0,0.0,0.0,0.0,0.0,0.0,0.0,0.0,0.0,0.0,0.0,0.0,0.0,0.0,0.0,0.0,0.0,0.0,0.0,0.0,0.0,0.0,0.0,0.0,0.0,0.0,0.0,0.0,0.0,0.0,0.0,0.0,0.0,0.0,0.0,0.0,0.0,0.0,0.0,0.0,0.0,0.0,0.0,0.0,0.0,0.0,0.0,0.0,0.0,0.0,0.0,0.0,0.0,0.0,0.0,0.0,0.0,0.0,0.0,0.0,0.0,0.0,0.0,0.0,0.0,0.0,0.0,0.0,0.0,0.0,0.0,0.0,0.0,0.0,0.0,0.0,0.0,0.0,0.0,0.0,0.0,0.0,0.0,0.0,0.0,0.0,0.0,0.0,-4.7695,-4.7549,-4.7328,-4.7101,-4.5603,-4.3893,-4.197,0.0,0.0,0.0,0.0,0.0,0.0,0.0,0.0,0.0,0.0,0.0,0.0,0.0,0.0,0.0,0.0,0.0,0.0,0.0,0.0,0.0,0.0,0.0,0.0,0.0,0.0,0.0,0.0,0.0,0.0,0.0,0.0,0.0,0.0,0.0,0.0,0.0,0.0,0.0,0.0,0.0,0.0,0.0,0.0,0.0,0.0,0.0,0.0,0.0,0.0,0.0,0.0,0.0,0.0,0.0,0.0,0.0,0.0,0.0,0.0,0.0,0.0,0.0,0.0,0.0,0.0,0.0,0.0,0.0,0.0,0.0,0.0,0.0,0.0,0.0,0.0,0.0,0.0,0.0,0.0,0.0,0.0,0.0,0.0,0.0,0.0,0.0,0.0,0.0,0.0,0.0,0.0,0.0,0.0,0.0,0.0,0.0,0.0,0.0,0.0,0.0,0.0,0.0,0.0,0.0,0.0,0.0,0.0,-5.0979,-4.935,-4.8816,-4.9394,-4.7048,-4.5316,0.0,0.0,0.0,0.0,0.0,0.0,0.0,0.0,0.0,0.0,0.0,0.0,0.0,0.0,0.0,0.0,0.0,0.0,0.0,0.0,0.0,0.0,0.0,0.0,0.0,0.0,0.0,0.0,0.0,0.0,0.0,0.0,0.0,0.0,0.0,0.0,0.0,0.0,0.0,0.0,0.0,0.0,0.0,0.0,0.0,0.0,0.0,0.0,0.0,0.0,0.0,0.0,0.0,0.0,0.0,0.0,0.0,0.0,0.0,0.0,0.0,0.0,0.0,0.0,0.0,0.0,0.0,0.0,0.0,0.0,0.0,0.0,0.0,0.0,0.0,0.0,0.0,0.0,0.0,0.0,0.0,0.0,0.0,0.0,0.0,0.0,0.0,0.0,0.0,0.0,0.0,0.0,0.0,0.0,0.0,0.0,0.0,0.0,0.0,0.0,0.0,0.0,0.0,0.0,0.0,0.0,0.0,0.0,0.0,-5.3415,-5.2453,-5.1334,-5.0297,-4.8413,-4.6666,0.0,0.0,0.0,0.0,0.0,0.0,0.0,0.0,0.0,0.0,0.0,0.0,0.0,0.0,0.0,0.0,0.0,0.0,0.0,0.0,0.0,0.0,0.0,0.0,0.0,0.0,0.0,0.0,0.0,0.0,0.0,0.0,0.0,0.0,0.0,0.0,0.0,0.0,0.0,0.0,0.0,0.0,0.0,0.0,0.0,0.0,0.0,0.0,0.0,0.0,0.0,0.0,0.0,0.0,0.0,0.0,0.0,0.0,0.0,0.0,0.0,0.0,0.0,0.0,0.0,0.0,0.0,0.0,0.0,0.0,0.0,0.0,0.0,0.0,0.0,0.0,0.0,0.0,0.0,0.0,0.0,0.0,0.0,0.0,0.0,0.0,0.0,0.0,0.0,0.0,0.0,0.0,0.0,0.0,0.0,0.0,0.0,0.0,0.0,0.0,0.0,0.0,0.0,0.0,0.0,0.0,0.0,0.0,-5.1962,-5.4458,-5.4194,-5.3391,-5.2043,-5.0052,-4.8175,0.0,0.0,0.0,0.0,0.0,0.0,0.0,0.0,0.0,0.0,0.0,0.0,0.0,0.0,0.0,0.0,0.0,0.0,0.0,0.0,0.0,0.0,0.0,0.0,0.0,0.0,0.0,0.0,0.0,0.0,0.0,0.0,0.0,0.0,0.0,0.0,0.0,0.0,0.0,0.0,0.0,0.0,0.0,0.0,0.0,0.0,0.0,0.0,0.0,0.0,0.0,0.0,0.0,0.0,0.0,0.0,0.0,0.0,0.0,0.0,0.0,0.0,0.0,0.0,0.0,0.0,0.0,0.0,0.0,0.0,0.0,0.0,0.0,0.0,0.0,0.0,0.0,0.0,0.0,0.0,0.0,0.0,0.0,0.0,0.0,0.0,0.0,0.0,0.0,0.0,0.0,0.0,0.0,0.0,0.0,0.0,0.0,0.0,0.0,0.0,0.0,0.0,0.0,0.0,0.0,0.0,0.0,0.0,-5.2877,-5.4511,-5.5101,-5.497,-5.3975,-5.1711,-4.9633,0.0,0.0,0.0,0.0,0.0,0.0,0.0,0.0,0.0,0.0,0.0,0.0,0.0,0.0,0.0,0.0,0.0,0.0,0.0,0.0,0.0,0.0,0.0,0.0,0.0,0.0,0.0,0.0,0.0,0.0,0.0,0.0,0.0,0.0,0.0,0.0,0.0,0.0,0.0,0.0,0.0,0.0,0.0,0.0,0.0,0.0,0.0,0.0,0.0,0.0,0.0,0.0,0.0,0.0,0.0,0.0,0.0,0.0,0.0,0.0,0.0,0.0,0.0,0.0,0.0,0.0,0.0,0.0,0.0,0.0,0.0,0.0,0.0,0.0,0.0,0.0,0.0,0.0,0.0,0.0,0.0,0.0,0.0,0.0,0.0,0.0,0.0,0.0,0.0,0.0,0.0,0.0,0.0,0.0,0.0,0.0,0.0,0.0,0.0,0.0,0.0,0.0,0.0,0.0,0.0,0.0,0.0,0.0,-5.3185,-5.5318,-5.5361,-5.5134,-5.4752,-5.2292,-5.0176,0.0,0.0,0.0,0.0,0.0,0.0,0.0,0.0,0.0,0.0,0.0,0.0,0.0,0.0,0.0,0.0,0.0,0.0,0.0,0.0,0.0,0.0,0.0,0.0,0.0,0.0,0.0,0.0,0.0,0.0,0.0,0.0,0.0,0.0,0.0,0.0,0.0,0.0,0.0,0.0,0.0,0.0,0.0,0.0,0.0,0.0,0.0,0.0,-4.7755,0.0,0.0,0.0,0.0,0.0,0.0,0.0,0.0,0.0,0.0,0.0,0.0,0.0,0.0,0.0,0.0,0.0,0.0,0.0,0.0,0.0,0.0,0.0,0.0,0.0,0.0,0.0,0.0,0.0,0.0,0.0,0.0,0.0,0.0,0.0,0.0,0.0,0.0,0.0,0.0,0.0,0.0,0.0,0.0,0.0,0.0,0.0,0.0,0.0,0.0,0.0,0.0,0.0,0.0,0.0,0.0,0.0,0.0,0.0,-5.3589,-5.5455,-5.5326,-5.5019,-5.4716,-5.2529,-5.0741,0.0,0.0,0.0,0.0,0.0,0.0,0.0,0.0,0.0,0.0,0.0,0.0,0.0,0.0,0.0,0.0,0.0,0.0,0.0,0.0,0.0,0.0,0.0,0.0,0.0,0.0,0.0,0.0,0.0,0.0,0.0,0.0,0.0,0.0,0.0,0.0,0.0,0.0,0.0,0.0,0.0,0.0,0.0,0.0,0.0,0.0,0.0,0.0,0.0,0.0,0.0,0.0,0.0,0.0,0.0,0.0,0.0,0.0,0.0,0.0,0.0,0.0,0.0,0.0,0.0,0.0,0.0,0.0,0.0,0.0,0.0,0.0,0.0,0.0,0.0,0.0,0.0,0.0,0.0,0.0,0.0,0.0,0.0,0.0,0.0,0.0,0.0,0.0,0.0,0.0,0.0,0.0,0.0,0.0,0.0,0.0,0.0,0.0,0.0,0.0,0.0,0.0,0.0,0.0,0.0,0.0,0.0,-5.255,-5.4019,-5.5287,-5.5075,-5.4784,-5.4434,-5.2632,-5.137,-5.0642,0.0,0.0,0.0,0.0,0.0,0.0,0.0,0.0,0.0,0.0,0.0,0.0,0.0,0.0,0.0,0.0,0.0,0.0,0.0,0.0,0.0,0.0,0.0,0.0,0.0,0.0,0.0,0.0,0.0,0.0,0.0,0.0,0.0,0.0,0.0,0.0,0.0,0.0,-4.3975,-4.6323,0.0,0.0,0.0,0.0,0.0,0.0,0.0,0.0,-5.3225,0.0,0.0,0.0,0.0,0.0,0.0,0.0,0.0,0.0,0.0,0.0,0.0,0.0,0.0,0.0,0.0,0.0,0.0,0.0,0.0,0.0,0.0,0.0,0.0,0.0,0.0,0.0,0.0,0.0,0.0,0.0,0.0,0.0,0.0,0.0,0.0,0.0,0.0,0.0,0.0,0.0,0.0,0.0,0.0,0.0,0.0,0.0,0.0,0.0,0.0,0.0,0.0,0.0,0.0,0.0,0.0,-5.1684,-5.3315,-5.4488,-5.5198,-5.4933,-5.4597,-5.4193,-5.2939,-5.1862,-5.0972,0.0,0.0,0.0,0.0,0.0,0.0,0.0,0.0,0.0,0.0,0.0,0.0,0.0,0.0,0.0,0.0,0.0,0.0,0.0,0.0,0.0,0.0,0.0,0.0,0.0,0.0,0.0,0.0,0.0,0.0,0.0,0.0,0.0,0.0,0.0,0.0,0.0,0.0,0.0,-4.9658,-5.1486,0.0,0.0,0.0,0.0,0.0,0.0,0.0,0.0,-5.5611,0.0,0.0,0.0,0.0,0.0,0.0,0.0,0.0,0.0,0.0,0.0,0.0,0.0,0.0,0.0,0.0,0.0,0.0,0.0,0.0,0.0,0.0,0.0,0.0,0.0,0.0,0.0,0.0,0.0,0.0,0.0,0.0,0.0,0.0,0.0,0.0,0.0,0.0,0.0,0.0,0.0,0.0,0.0,0.0,0.0,0.0,0.0,0.0,0.0,0.0,0.0,0.0,0.0,0.0,0.0,-5.2372,-5.3981,-5.5236,-5.6206,-5.5875,-5.535,-5.4652,-5.3493,-5.2259,0.0,0.0,0.0,0.0,0.0,0.0,0.0,0.0,0.0,0.0,0.0,0.0,0.0,0.0,0.0,0.0,0.0,0.0,0.0,0.0,0.0,0.0,0.0,0.0,0.0,0.0,0.0,0.0,0.0,0.0,0.0,0.0,0.0,0.0,0.0,0.0,0.0,0.0,0.0,0.0,-5.1715,-5.3696,-5.4913,0.0,0.0,0.0,0.0,0.0,0.0,-5.8143,-5.8107,0.0,0.0,0.0,0.0,0.0,0.0,0.0,0.0,0.0,0.0,0.0,0.0,0.0,0.0,0.0,0.0,0.0,0.0,0.0,0.0,0.0,0.0,0.0,0.0,0.0,0.0,0.0,0.0,0.0,0.0,0.0,0.0,0.0,0.0,0.0,0.0,0.0,0.0,0.0,0.0,0.0,0.0,0.0,0.0,0.0,0.0,0.0,0.0,0.0,0.0,0.0,0.0,0.0,0.0,0.0,-5.3085,-5.4638,-5.5949,-5.7105,-5.6774,-5.6107,-5.5201,-5.4146,-5.2762,0.0,0.0,0.0,0.0,0.0,0.0,0.0,0.0,0.0,0.0,0.0,0.0,0.0,0.0,0.0,0.0,0.0,0.0,0.0,0.0,0.0,0.0,0.0,0.0,0.0,0.0,0.0,0.0,0.0,0.0,0.0,0.0,0.0,0.0,0.0,0.0,0.0,0.0,0.0,0.0,0.0,-5.5757,-5.7519,-5.8437,0.0,0.0,0.0,0.0,-6.0199,-6.0603,0.0,0.0,0.0,0.0,0.0,0.0,0.0,0.0,0.0,0.0,0.0,0.0,0.0,0.0,0.0,0.0,0.0,0.0,0.0,0.0,0.0,0.0,0.0,0.0,0.0,0.0,0.0,0.0,0.0,0.0,0.0,0.0,0.0,0.0,0.0,0.0,0.0,0.0,0.0,0.0,0.0,0.0,0.0,0.0,0.0,0.0,0.0,0.0,0.0,0.0,0.0,0.0,0.0,0.0,0.0,0.0,-5.376,-5.5227,-5.6279,-5.681,-5.6594,-5.6249,-5.5812,-5.4875,-5.3571,0.0,0.0,0.0,0.0,0.0,0.0,0.0,0.0,0.0,0.0,0.0,0.0,0.0,0.0,0.0,0.0,0.0,0.0,0.0,0.0,0.0,0.0,0.0,0.0,0.0,0.0,0.0,0.0,0.0,0.0,0.0,0.0,0.0,0.0,0.0,0.0,0.0,0.0,0.0,0.0,0.0,-5.8437,-6.0713,-6.1741,-6.2254,0.0,0.0,-6.3539,-6.3539,-6.2989,0.0,0.0,0.0,0.0,0.0,0.0,0.0,0.0,0.0,0.0,0.0,0.0,0.0,0.0,0.0,0.0,0.0,0.0,0.0,0.0,0.0,0.0,0.0,0.0,0.0,0.0,0.0,0.0,0.0,0.0,0.0,0.0,0.0,0.0,0.0,0.0,0.0,0.0,0.0,0.0,0.0,0.0,0.0,0.0,0.0,0.0,0.0,0.0,0.0,0.0,0.0,0.0,0.0,0.0,0.0,-5.1675,-5.4354,-5.5788,-5.6995,-5.7902,-5.7627,-5.7196,-5.6535,-5.6066,-5.4583,0.0,0.0,0.0,0.0,0.0,0.0,0.0,0.0,0.0,0.0,0.0,0.0,0.0,0.0,0.0,0.0,0.0,0.0,0.0,0.0,0.0,0.0,0.0,0.0,0.0,0.0,0.0,0.0,0.0,0.0,0.0,0.0,0.0,0.0,0.0,0.0,0.0,0.0,0.0,0.0,0.0,0.0,-6.1961,-6.3392,0.0,0.0,0.0,-6.4934,-6.5411,0.0,0.0,0.0,0.0,0.0,0.0,0.0,0.0,0.0,0.0,0.0,0.0,0.0,0.0,0.0,0.0,0.0,0.0,0.0,0.0,0.0,0.0,0.0,0.0,0.0,0.0,0.0,0.0,0.0,0.0,0.0,0.0,0.0,0.0,0.0,0.0,0.0,0.0,0.0,0.0,0.0,0.0,0.0,0.0,0.0,0.0,0.0,0.0,0.0,0.0,0.0,0.0,0.0,0.0,0.0,0.0,0.0,-5.4654,-5.6396,-5.7864,-5.8962,-5.8937,-5.8578,-5.7876,-5.7373,0.0,0.0,0.0,0.0,0.0,0.0,0.0,0.0,0.0,0.0,0.0,0.0,0.0,0.0,0.0,0.0,0.0,0.0,0.0,0.0,0.0,0.0,0.0,0.0,0.0,0.0,0.0,-4.1809,0.0,0.0,0.0,0.0,0.0,0.0,0.0,0.0,0.0,0.0,0.0,0.0,0.0,0.0,-6.0786,-6.3356,-6.5154,-6.6292,0.0,0.0,-6.6696,-6.732,-6.6733,-6.6145,0.0,0.0,0.0,0.0,0.0,0.0,0.0,0.0,0.0,0.0,0.0,0.0,0.0,0.0,0.0,0.0,0.0,0.0,0.0,0.0,0.0,0.0,0.0,0.0,0.0,0.0,0.0,0.0,0.0,0.0,0.0,0.0,0.0,0.0,0.0,0.0,0.0,0.0,0.0,0.0,0.0,0.0,0.0,0.0,0.0,0.0,0.0,0.0,0.0,0.0,0.0,0.0,0.0,0.0,-5.2151,-5.43,-5.719,-5.8921,-5.9546,-6.0129,-6.0361,-6.0126,-5.8694,-5.7116,0.0,0.0,0.0,0.0,0.0,0.0,0.0,0.0,0.0,0.0,0.0,0.0,0.0,0.0,0.0,0.0,0.0,0.0,0.0,0.0,0.0,0.0,0.0,0.0,0.0,0.0,0.0,0.0,0.0,0.0,0.0,0.0,0.0,0.0,0.0,0.0,0.0,0.0,0.0,0.0,0.0,-6.2622,-6.5815,-6.765,-6.8935,0.0,0.0,-6.9779,-6.9853,-6.9192,-6.8421,-6.765,0.0,0.0,0.0,0.0,0.0,0.0,0.0,0.0,0.0,0.0,0.0,0.0,0.0,0.0,0.0,0.0,0.0,0.0,0.0,0.0,0.0,0.0,0.0,0.0,0.0,0.0,0.0,0.0,0.0,0.0,0.0,0.0,0.0,0.0,0.0,0.0,0.0,0.0,0.0,0.0,0.0,0.0,0.0,0.0,0.0,0.0,0.0,0.0,0.0,0.0,0.0,0.0,0.0,-5.2473,-5.5585,-5.7627,-5.9116,-6.0186,-6.0388,-6.0478,-6.0419,-5.9761,-5.848,0.0,0.0,0.0,0.0,0.0,0.0,0.0,0.0,0.0,0.0,0.0,0.0,0.0,0.0,0.0,0.0,0.0,0.0,0.0,0.0,0.0,0.0,0.0,0.0,0.0,0.0,0.0,0.0,-5.2344,-5.2821,-5.2344,0.0,0.0,0.0,0.0,0.0,0.0,0.0,0.0,0.0,0.0,-6.4127,-6.6843,-6.8605,0.0,0.0,-7.0844,-7.1174,-7.2165,-7.1651,-7.1174,-7.1358,-6.9633,0.0,0.0,0.0,0.0,0.0,0.0,0.0,0.0,0.0,0.0,0.0,0.0,0.0,0.0,0.0,0.0,0.0,0.0,0.0,0.0,0.0,0.0,0.0,0.0,0.0,0.0,0.0,0.0,0.0,0.0,0.0,0.0,0.0,0.0,0.0,0.0,0.0,0.0,0.0,0.0,0.0,0.0,0.0,0.0,0.0,0.0,0.0,0.0,0.0,0.0,0.0,0.0,-5.3069,-5.6327,-5.8418,-6.0084,-6.1261,-6.1654,-6.1863,-6.1851,-6.1665,-6.0444,0.0,0.0,0.0,0.0,0.0,0.0,0.0,0.0,0.0,0.0,0.0,0.0,0.0,0.0,0.0,0.0,0.0,0.0,0.0,0.0,0.0,0.0,0.0,0.0,0.0,0.0,0.0,0.0,-5.4766,-5.462,-5.3335,0.0,0.0,0.0,0.0,0.0,0.0,0.0,0.0,0.0,0.0,-6.6035,-6.8421,-7.0146,-7.1541,-7.2569,-7.2569,-7.2863,-7.4221,-7.3927,-7.3707,-7.4001,0.0,0.0,0.0,0.0,0.0,0.0,0.0,0.0,0.0,0.0,0.0,0.0,0.0,0.0,0.0,0.0,0.0,0.0,0.0,0.0,0.0,0.0,0.0,0.0,0.0,0.0,0.0,0.0,0.0,0.0,-4.0039,0.0,0.0,0.0,0.0,0.0,0.0,0.0,0.0,0.0,0.0,0.0,0.0,0.0,0.0,0.0,0.0,0.0,0.0,0.0,0.0,0.0,0.0,-5.3944,-5.6043,-5.978,-6.207,-6.2768,-6.4315,-6.5087,-6.5118,-6.4427,-6.3218,-6.1484,0.0,0.0,0.0,0.0,0.0,0.0,0.0,0.0,0.0,0.0,0.0,0.0,0.0,0.0,0.0,0.0,0.0,0.0,0.0,0.0,0.0,0.0,0.0,0.0,0.0,0.0,-5.6492,-5.6748,-5.5831,0.0,0.0,0.0,0.0,0.0,0.0,0.0,0.0,0.0,0.0,-6.6109,-6.8495,-7.0917,-7.2606,-7.4184,-7.5726,-7.5359,-7.5139,-7.5946,-7.6056,-7.5763,0.0,0.0,0.0,0.0,0.0,0.0,0.0,0.0,0.0,0.0,0.0,0.0,0.0,0.0,0.0,0.0,0.0,0.0,0.0,0.0,0.0,0.0,0.0,0.0,0.0,0.0,0.0,-4.6928,-4.7382,0.0,0.0,0.0,0.0,0.0,0.0,0.0,0.0,0.0,0.0,0.0,-5.5422,-5.4843,0.0,0.0,0.0,0.0,0.0,0.0,0.0,0.0,0.0,0.0,0.0,0.0,-5.6029,-5.919,-6.1439,-6.3198,-6.442,-6.4971,-6.5316,-6.5338,-6.5066,-6.4149,-6.2438,0.0,0.0,0.0,0.0,0.0,0.0,0.0,0.0,0.0,0.0,0.0,0.0,0.0,0.0,0.0,0.0,0.0,0.0,0.0,0.0,0.0,0.0,0.0,0.0,0.0,-5.7152,0.0,0.0,0.0,0.0,0.0,0.0,0.0,0.0,0.0,0.0,0.0,-6.3943,-6.6916,-6.9816,-7.2165,-7.3523,-7.5065,-7.6497,0.0,0.0,0.0,0.0,0.0,0.0,0.0,0.0,0.0,0.0,0.0,0.0,0.0,0.0,-7.3303,-7.0587,-7.011,-7.0257,-7.077,0.0,0.0,0.0,0.0,0.0,0.0,0.0,0.0,0.0,0.0,0.0,0.0,0.0,0.0,-5.2069,0.0,-5.1063,0.0,0.0,0.0,0.0,0.0,0.0,0.0,0.0,-5.6329,-5.7523,-5.8809,-5.8847,-5.8957,0.0,-5.8534,-5.6337,0.0,0.0,0.0,0.0,0.0,0.0,0.0,0.0,-5.7988,-6.1217,-6.294,-6.4398,-6.5668,-6.5983,-6.6129,-6.6145,-6.5836,-6.5212,-6.4127,-6.2034,-6.0162,0.0,0.0,0.0,0.0,0.0,0.0,0.0,0.0,0.0,0.0,0.0,0.0,0.0,0.0,0.0,0.0,0.0,0.0,0.0,0.0,0.0,0.0,0.0,-5.9979,0.0,0.0,0.0,0.0,0.0,0.0,0.0,0.0,0.0,-6.2511,-6.4861,-6.765,-7.0624,-7.3046,-7.4918,-7.6056,0.0,0.0,0.0,0.0,0.0,0.0,0.0,-8.1232,-8.1746,-8.1636,-8.1525,-8.1819,-8.0755,-7.9947,-8.0241,0.0,0.0,-7.5726,-7.5028,-7.5175,-7.5689,-7.6019,-7.6423,-7.6937,-7.8332,-7.9543,0.0,0.0,0.0,0.0,0.0,0.0,0.0,0.0,-5.7561,-5.7406,0.0,-5.6375,0.0,0.0,0.0,0.0,0.0,-5.6295,0.0,0.0,-6.0299,-6.1466,-6.2236,-6.2228,-6.2666,-6.3411,-6.3245,-6.2732,-6.1658,-5.6066,0.0,0.0,0.0,0.0,0.0,0.0,-5.973,-6.2113,-6.4228,-6.5705,-6.6512,-6.7283,-6.7687,-6.7687,-6.699,-6.6586,-6.6549,-6.5081,-6.3466,-6.1814,-5.9465,0.0,0.0,0.0,0.0,0.0,0.0,0.0,0.0,0.0,0.0,0.0,0.0,0.0,0.0,0.0,0.0,0.0,0.0,0.0,0.0,-6.1165,0.0,0.0,0.0,0.0,0.0,0.0,0.0,0.0,0.0,0.0,-6.6953,-6.8274,-7.0587,-7.4515,0.0,0.0,0.0,0.0,-8.1379,-8.215,-8.226,-8.2517,-8.3287,-8.3434,-8.3434,-8.3471,0.0,0.0,-8.3691,-8.292,-8.2663,-8.3398,-8.4132,-8.3728,-8.0718,-8.0094,-8.0021,-8.0057,-8.0645,-8.1158,-8.1305,-8.2443,-8.3801,-6.1491,0.0,0.0,0.0,0.0,-5.9738,-6.0664,-6.1967,-6.1554,-6.1158,-6.0734,-5.9488,0.0,0.0,0.0,0.0,0.0,0.0,-6.1576,-6.2937,-6.3984,-6.4897,-6.5615,-6.5589,-6.6024,-6.6776,-6.6078,-6.5571,-6.5168,-6.2711,-5.9962,-5.7042,0.0,0.0,0.0,0.0,-6.217,-6.434,-6.5588,-6.6549,-6.732,-6.7577,-6.7981,-6.8531,-6.8348,-6.8495,-6.9045,-6.8054,-6.6769,-6.5154,-6.3319,0.0,0.0,0.0,0.0,0.0,0.0,0.0,0.0,0.0,0.0,0.0,0.0,0.0,0.0,0.0,0.0,0.0,0.0,0.0,-6.4632,-6.5794,-6.5962,0.0,0.0,0.0,0.0,0.0,0.0,0.0,0.0,0.0,-7.4001,-7.4111,-7.4918,0.0,0.0,-8.0608,-8.1085,-8.2553,-8.3654,-8.3875,-8.3911,0.0,-8.4205,-8.4278,-8.4462,-8.5013,-8.6255,-8.71,-8.6848,-8.6664,-8.6522,-8.6775,-8.6995,-8.7031,-8.6738,-8.571,-8.4976,-8.4976,-8.5123,-8.5306,-8.538,-8.6554,-8.7766,-6.7333,-6.4789,-6.2964,-6.2808,-6.3771,-6.4101,-6.4782,-6.5667,-6.5377,-6.4973,-6.4498,-6.3416,-6.251,-6.1776,-6.1234,0.0,0.0,0.0,-6.4701,-6.5628,-6.6449,-6.7022,-6.7372,-6.7688,-6.805,-6.8487,-6.8209,-6.7877,-6.7431,-6.6701,-6.4817,-6.2019,0.0,0.0,-6.1997,-6.2946,-6.445,-6.6316,-6.7079,-6.7834,-6.8605,-6.8641,-6.8862,-6.9339,-6.9376,-6.9596,-7.0073,-6.9633,-6.8788,-6.7504,-6.6219,-6.42,0.0,0.0,0.0,0.0,0.0,0.0,0.0,0.0,0.0,0.0,0.0,-5.4764,-5.6288,0.0,0.0,0.0,-6.2669,-6.5214,-6.8806,-6.8825,0.0,0.0,0.0,0.0,0.0,0.0,0.0,-7.1762,-7.4147,-7.6423,-7.8479,-7.8919,-7.925,-7.9947,-8.1562,-8.2774,-8.3104,0.0,-8.5196,-8.549,-8.582,-8.6151,-8.6444,-8.6518,-8.6701,-8.7142,-8.8019,-8.8643,-8.8647,-8.8649,-8.8649,-8.872,-8.894,-8.9307,-8.9784,-8.9601,-8.905,-8.8169,-8.8206,-8.8426,-8.8426,-8.9748,-9.0886,-7.2185,-7.1943,-6.8787,-6.7422,-6.7381,-6.8034,-6.8202,-6.8138,-6.8807,-6.8529,-6.76,-6.7536,-6.6576,-6.508,-6.508,0.0,-6.5163,-6.6704,-6.7359,-6.7302,-6.8109,-6.8369,-6.822,-6.8852,-6.9098,-6.9074,-6.9735,-6.9624,-6.8866,-6.8677,-6.806,-6.7184,-6.5474,-6.4775,-6.5068,-6.552,-6.6492,-6.792,-6.8622,-6.9339,-7.0073,-7.011,-7.0146,-7.0293,-7.0293,-7.0367,-7.0477,-7.0477,-7.011,-6.9302,-6.8568,-6.7063,-6.4677,0.0,0.0,0.0,0.0,0.0,0.0,0.0,0.0,0.0,0.0,0.0,0.0,0.0,0.0,0.0,-6.7457,0.0,-7.1468,-7.1027,0.0,0.0,0.0,-7.0881,-7.1688,-7.2532,-7.3707,-7.5322,0.0,0.0,-8.1085,-8.2627,-8.3361,-8.2663,-8.3177,-8.3875,-8.4682,-8.549,-8.6261,-8.7105,-8.7802,-8.85,-8.8977,-8.9124,-8.916,-8.9344,-8.9562,-8.9672,-8.9784,-8.9896,-8.9823,-8.9968,-9.0408,-9.0922,-9.0922,-9.2097,-9.2537,-9.0372,-9.0482,-9.0922,-9.1106,-9.2281,-9.3418,-7.3966,-7.3836,-7.3007,-7.1963,-7.0753,-7.0245,-6.9946,-6.9818,-6.9894,-6.9363,-6.8403,-6.8289,-6.7961,-6.7539,-6.7539,-6.7885,-6.8539,-6.8924,-6.9371,-6.9865,-7.0076,-6.9934,-6.9603,-6.969,-6.9586,-6.9435,-7.0151,-7.0372,-7.0177,-7.0486,-7.0488,-7.0069,-6.9458,-6.8271,-6.6579,-6.721,-6.7841,-6.8659,-6.9412,-6.9889,-7.0073,-7.011,-7.066,-7.1908,-7.1945,-7.2496,-7.3707,-7.378,-7.3377,-7.2606,-7.2386,-7.1174,-6.8788,-6.7136,0.0,0.0,0.0,0.0,0.0,0.0,0.0,0.0,0.0,-6.2825,-6.5312,0.0,-6.8985,0.0,-7.2405,-7.4052,-7.4845,-7.4808,0.0,0.0,-7.4771,-7.4992,-7.5799,-7.7194,-7.8699,-8.0277,-8.1525,-8.2627,-8.3618,-8.4609,-8.538,-8.5783,-8.549,-8.5527,-8.6334,-8.7105,-8.7912,-8.8647,-8.8977,-8.9197,-8.9454,-8.9417,-8.9711,-9.0225,-9.0845,-9.1434,-9.206,-9.2721,-9.3161,-9.3125,-9.3272,-9.3418,-9.3345,-9.3786,-9.4079,-9.3969,-9.3749,-9.3602,-9.4189,-9.5144,-9.5988,-7.5659,-7.5569,-7.5144,-7.4182,-7.2901,-7.2028,-7.134,-7.0831,-7.0719,-7.0307,-6.9717,-6.9618,-6.954,-6.9513,-6.9513,-6.9783,-7.0244,-7.0217,-7.0556,-7.1206,-7.1051,-7.0937,-7.0877,-7.068,-7.0395,-7.021,-7.0571,-7.075,-7.0779,-7.0955,-7.1032,-7.092,-7.0717,-6.9858,-6.855,-6.8904,-6.9372,-7.0,-7.1138,-7.1688,-7.1688,-7.2055,-7.2679,-7.3523,-7.356,-7.3964,-7.4882,-7.4918,-7.4698,-7.4258,-7.4258,-7.345,-7.1798,-7.0183,-6.8385,0.0,0.0,0.0,0.0,0.0,0.0,0.0,0.0,0.0,0.0,0.0,-7.3215,-7.4694,-7.5735,-7.67,-7.7635,-7.7745,-7.8038,-7.8736,-7.8809,-7.914,-7.9947,-8.0828,-8.1893,-8.3104,-8.3985,-8.4792,-8.5563,-8.6371,-8.7142,-8.7949,-8.7692,-8.7582,-8.8023,-8.8463,-8.9014,-8.9784,-8.9931,-9.0262,-9.0922,-9.1363,-9.173,-9.217,-9.261,-9.3087,-9.3529,-9.4004,-9.4334,-9.4336,-9.4299,-9.4299,-9.4336,-9.4923,-9.5511,-9.5878,-9.6282,-9.6465,-9.6539,-9.7199,-9.8007,-7.705,-7.6916,-7.6093,-7.5191,-7.4273,-7.3562,-7.2559,-7.1378,-7.1274,-7.1178,-7.0979,-7.1041,-7.1052,-7.1091,-7.1168,-7.1245,-7.1178,-7.1161,-7.1398,-7.1898,-7.1588,-7.1559,-7.1788,-7.1516,-7.1189,-7.0946,-7.0995,-7.1018,-7.1018,-7.1087,-7.1109,-7.1109,-7.1098,-7.1028,-7.0919,-7.0864,-7.1103,-7.1651,-7.3083,-7.3854,-7.3854,-7.4551,-7.4955,-7.5065,-7.5065,-7.5102,-7.5212,-7.5212,-7.5212,-7.5212,-7.5212,-7.4845,-7.4037,-7.2606,-7.1101,0.0,-6.8091,0.0,0.0,0.0,0.0,0.0,0.0,0.0,0.0,-7.5118,-7.7162,-7.829,-7.8426,-7.8885,-8.0157,-8.0314,-8.0975,-8.2333,-8.2517,-8.281,-8.3618,-8.3728,-8.4022,-8.4829,-8.56,-8.6371,-8.7031,-8.7876,-8.8647,-8.9341,-8.9417,-8.9564,-8.9858,-8.9858,-9.0078,-9.0812,-9.1033,-9.173,-9.2868,-9.3712,-9.4116,-9.4189,-9.4411,-9.4596,-9.4668,-9.4882,-9.5028,-9.507,-9.5144,-9.507,-9.4923,-9.6135,-9.7052,-9.7419,-9.8447,-9.9071,-9.8631,-9.8924,-9.9695,-7.6987,-7.6871,-7.6615,-7.5913,-7.5002,-7.4741,-7.3342,-7.1313,-7.1201,-7.1056,-7.0964,-7.1629,-7.1937,-7.2014,-7.2706,-7.2986,-7.2822,-7.2801,-7.269,-7.2609,-7.2282,-7.1886,-7.1479,-7.1274,-7.0971,-7.065,-7.1242,-7.1521,-7.1558,-7.2779,-7.3295,-7.3295,-7.3844,-7.4059,-7.4059,0.0,0.0,0.0,-7.4184,-7.4698,-7.4698,-7.4808,-7.5212,-7.5836,-7.5873,0.0,-7.6827,-7.6864,-7.6864,-7.6864,-7.6864,0.0,0.0,0.0,0.0,0.0,0.0,0.0,0.0,0.0,0.0,0.0,-7.6015,-7.6427,-7.5748,-7.8522,-8.0466,-8.0653,-8.1708,-8.2527,-8.272,-8.3317,-8.3838,-8.4101,-8.4168,-8.4462,-8.5233,-8.5343,-8.5637,-8.6481,-8.7252,-8.7802,-8.8023,-8.8683,-8.9454,-9.0296,-9.0372,-9.0959,-9.2207,-9.173,-9.1693,-9.2501,-9.3051,-9.3639,-9.4006,-9.4226,-9.452,-9.441,-9.5441,-9.6178,-9.6358,-9.7346,-9.8075,-9.808,-9.819,-9.8117,-9.8117,-9.8447,-9.8961,-10.0283,-10.0796,-10.098,-10.0833,-10.0943,-10.1457,-7.8182,0.0,-7.7427,-7.6588,0.0,-7.5131,-7.3961,-7.2379,-7.2354,-7.2276,-7.2206,-7.2668,-7.2794,-7.2765,-7.3188,-7.3321,-7.32,-7.3073,-7.3066,-7.3118,-7.2642,-7.2395,-7.2372,-7.2429,-7.2334,-7.2097,-7.2907,-7.3275,-7.3349,-7.4065,-7.4412,-7.4412,-7.4735,-7.4918,-7.4918,-7.5285,-7.5102,-7.4294,-7.5102,-7.5689,-7.6093,-7.6497,-7.7121,-7.7892,-7.7928,0.0,0.0,0.0,0.0,0.0,0.0,0.0,0.0,0.0,0.0,-7.613,-7.5322,-7.5249,-7.6056,-7.646,-7.7231,-7.8442,-8.0084,-8.0798,-8.0137,-8.1612,-8.2618,-8.296,-8.3705,-8.4264,-8.4529,-8.5006,-8.538,-8.5715,-8.582,-8.5967,-8.6297,-8.6407,-8.6701,-8.7472,-8.7949,-8.8463,-8.9307,-8.9711,-9.0482,-9.1582,-9.1876,-9.2281,-9.3345,-9.2978,-9.2758,-9.3565,-9.4373,-9.4887,-9.496,-9.5658,-9.6061,-9.6208,-9.7095,-9.7757,-9.786,-9.8552,-9.9139,-9.9145,-9.9108,-9.9108,-9.9145,-9.9402,-10.0062,-10.12,-10.1824,-10.2412,-10.2999,-10.2962,-10.3036,-7.9392,-7.9191,-7.8258,-7.7316,-7.6365,-7.5578,-7.4725,-7.3937,0.0,0.0,0.0,-7.364,-7.3611,-7.3484,-7.3637,-7.3629,-7.3433,-7.3413,-7.3536,-7.3783,-7.3409,-7.338,-7.3639,-7.396,-7.4065,-7.3927,-7.4588,-7.4918,-7.4918,-7.5065,-7.5139,-7.5139,-7.5249,-7.5432,-7.5616,-7.635,-7.6423,-7.5836,-7.6276,-7.6937,-7.7745,-7.8442,-7.9103,-7.9764,-7.98,-7.98,-7.98,-7.98,-7.98,-7.98,-7.9947,-7.9984,-7.9984,-7.9507,-7.925,-7.9213,-7.8699,-7.8662,-7.9396,-8.0204,-8.1012,-8.1819,-8.3067,-8.3897,-8.4009,-8.3991,-8.4257,-8.4919,-8.5006,-8.5306,-8.5894,-8.6004,-8.6261,-8.6958,-8.7031,-8.6995,-8.7031,-8.7142,-8.7472,-8.8096,-8.8463,-8.9087,-9.0335,-9.0886,-9.1473,-9.2757,-9.3125,-9.3675,-9.4373,-9.4079,-9.3896,-9.4666,-9.5511,-9.5951,-9.6135,-9.7089,-9.8043,-9.797,-9.875,-9.9264,-9.9292,-9.9389,-9.9499,-9.9695,-9.9548,-9.9585,-9.9622,-10.0099,-10.0833,-10.1714,-10.2448,-10.3403,-10.4834,-10.4798,-10.4577,-7.9325,-7.9097,-7.8781,-7.8104,-7.7207,-7.7035,-7.6438,-7.5553,-7.413,-7.3514,-7.3553,-7.4187,-7.4367,-7.4274,-7.4976,-7.5115,-7.4865,-7.5321,-7.5372,-7.507,-7.5396,-7.5357,-7.5033,-7.4953,-7.4853,-7.4735,-7.4845,-7.4918,-7.4992,-7.5616,-7.5946,-7.6019,-7.6644,-7.7341,-7.8075,-7.8883,-7.9213,-7.9103,-7.8552,-7.8626,-7.9433,-7.958,-7.969,-7.9764,-7.98,-7.98,-7.98,-7.9837,-7.98,-7.98,-8.0461,-8.0828,-8.0865,-8.1379,-8.1709,-8.1709,-8.2215,-8.2582,-8.2737,-8.3478,-8.4248,-8.5013,-8.5343,-8.5159,-8.4602,-8.5117,-8.5557,-8.5704,-8.6224,-8.6701,-8.6811,-8.6811,-8.6848,-8.6995,-8.7031,-8.7031,-8.7068,-8.7619,-8.8059,-8.8316,-8.9454,-9.0262,-9.0776,-9.184,-9.2758,-9.3125,-9.397,-9.4703,-9.5804,-9.5658,-9.5547,-9.6245,-9.7052,-9.7493,-9.7566,-9.83,-9.8851,-9.8924,-9.9585,-10.0142,-10.0099,-10.0613,-10.098,-10.109,-10.098,-10.1017,-10.1053,-10.1237,-10.1824,-10.2925,-10.3439,-10.4137,-10.5642,-10.5899,-10.5972,-8.0592,-8.0351,-7.9713,-7.918,-7.8661,-7.816,-7.7707,-7.7284,-7.6553,-7.5908,-7.5464,-7.5787,-7.6011,-7.6262,-7.6462,-7.6349,-7.5977,-7.6097,-7.5962,-7.5557,-7.5601,-7.5514,-7.5269,-7.55,-7.5602,-7.5579,-7.6019,-7.6203,-7.6313,-7.7047,-7.7451,-7.7524,-7.8259,-7.8846,-7.925,-7.9617,-7.9984,-8.0424,-7.9653,-7.9617,-8.0424,-8.0461,-8.0645,-8.1085,-8.1489,-8.1746,-8.1746,-8.215,-8.2406,-8.2406,-8.2737,-8.2957,-8.2994,-8.3287,-8.3508,-8.3508,-8.3831,-8.4235,-8.4682,-8.5422,-8.6045,-8.6444,-8.6444,-8.6297,-8.5967,-8.6261,-8.6444,-8.6444,-8.6811,-8.7031,-8.7031,-8.7031,-8.7031,-8.7031,-8.7031,-8.7178,-8.7582,-8.7949,-8.8536,-8.9381,-9.0115,-9.0959,-9.1877,-9.2648,-9.3492,-9.4301,-9.5401,-9.6498,-9.7273,-9.7419,-9.7566,-9.797,-9.8337,-9.8521,-9.8594,-9.9218,-9.9695,-9.9769,-10.0429,-10.087,-10.0943,-10.131,-10.142,-10.1494,-10.1494,-10.1494,-10.1494,-10.1494,-10.2045,-10.2852,-10.3256,-10.3917,-10.5238,-10.6046,-10.6376,-8.166,-8.1398,-8.0613,-8.0097,-7.9746,-7.8861,-7.8477,-7.8477,-7.8477,-7.8154,-7.7636,-7.7308,-7.737,-7.7684,-7.7369,-7.6986,-7.6611,-7.6506,-7.6275,-7.5939,-7.5846,-7.5727,-7.5647,-7.6153,-7.6387,-7.646,-7.7194,-7.7598,-7.7708,-7.8479,-7.8883,-7.8956,-7.969,-8.0057,-8.0057,-8.0241,-8.0645,-8.1195,-8.0828,-8.0828,-8.1269,-8.1452,-8.1819,-8.248,-8.3251,-8.3691,-8.3691,-8.4278,-8.4609,-8.4609,-8.4756,-8.4866,-8.4903,-8.5049,-8.5123,-8.5123,-8.519,-8.5411,-8.6004,-8.6628,-8.7031,-8.7031,-8.7031,-8.7031,-8.7031,-8.7031,-8.7031,-8.7031,-8.6995,-8.7031,-8.7031,-8.7031,-8.7031,-8.7031,-8.7178,-8.7545,-8.8096,-8.85,-8.9197,-9.0408,-9.0776,-9.1473,-9.2684,-9.3272,-9.4006,-9.5586,-9.7052,-9.7892,-9.819,-9.8851,-9.9365,-9.9585,-9.9512,-9.9365,-9.9438,-10.0062,-10.0503,-10.0576,-10.1053,-10.1347,-10.142,-10.1457,-10.1494,-10.1494,-10.1494,-10.1494,-10.1494,-10.1494,-10.1824,-10.2558,-10.2815,-10.3293,-10.4834,-10.5605,-10.6156,-8.1621,-8.1388,-8.1175,-8.0598,-7.9785,-7.89,-7.8554,-7.8554,-7.8461,-7.8717,-7.9041,-7.8247,-7.7684,-7.7369,-7.6979,-7.6638,-7.6355,-7.6728,-7.6792,-7.6622,-7.715,-7.7303,-7.7047,-7.7194,-7.7231,-7.7341,-7.8075,-7.8479,-7.8516,-7.9286,-7.969,-7.9764,-8.0498,-8.0901,-8.0975,-8.1599,-8.2003,-8.2076,-8.2737,-8.2737,-8.2186,-8.281,-8.3214,-8.3287,-8.4095,-8.4499,-8.4499,-8.4572,-8.4609,-8.4646,-8.5306,-8.5673,-8.5747,-8.6371,-8.6775,-8.6775,-8.6775,-8.6848,-8.6885,-8.6995,-8.7031,-8.7031,-8.7031,-8.7031,-8.7031,-8.7031,-8.7031,-8.7031,-8.7031,-8.7031,-8.7031,-8.7031,-8.7105,-8.7178,-8.7729,-8.8133,-8.8426,-8.9528,-9.0445,-9.0555,-9.1289,-9.206,-9.3015,-9.3822,-9.485,-9.6245,-9.7273,-9.8112,-9.8814,-9.9548,-10.0319,-10.0833,-10.065,-10.0246,-10.0283,-10.0833,-10.12,-10.131,-10.1384,-10.1494,-10.1494,-10.1494,-10.1494,-10.1494,-10.1494,-10.1494,-10.1494,-10.1531,-10.1751,-10.2301,-10.2705,-10.3182,-10.4614,-10.5238,-10.5568,-8.2764,-8.2096,-8.1986,-8.1407,-8.0554,-8.0169,-8.0015,-8.0054,-7.9921,-7.991,-7.9893,-7.9284,-7.8808,-7.8414,-7.7941,-7.7521,-7.7163,-7.7271,-7.7245,-7.7119,-7.7831,-7.8137,-7.8112,-7.8589,-7.8772,-7.8772,-7.914,-7.9286,-7.9433,-8.0131,-8.0755,-8.1195,-8.1562,-8.1709,-8.1746,-8.2517,-8.292,-8.2957,-8.3728,-8.3948,-8.3691,-8.3948,-8.4132,-8.4205,-8.4903,-8.5306,-8.5343,-8.5747,-8.604,-8.604,-8.6334,-8.6518,-8.6518,-8.6848,-8.7031,-8.7031,-8.7031,-8.7031,-8.7031,-8.7031,-8.7031,-8.7031,-8.7031,-8.7031,-8.7031,-8.7031,-8.7031,-8.7031,-8.7031,-8.7031,-8.7068,-8.7435,-8.7729,-8.7842,-8.8393,-8.9087,-8.9601,-9.0188,-9.0739,-9.1253,-9.206,-9.2868,-9.3786,-9.4923,-9.5914,-9.6722,-9.7456,-9.8185,-9.9035,-9.9769,-10.0576,-10.1237,-10.12,-10.1053,-10.1017,-10.1237,-10.1457,-10.1494,-10.1494,-10.1494,-10.1494,-10.1494,-10.1494,-10.1494,-10.1494,-10.1494,-10.1494,-10.1494,-10.1641,-10.2118,-10.2558,-10.3072,-10.4173,-10.4798,-10.5385,-8.3552,-8.261,-8.2227,-8.1685,-8.1093,-8.1093,-8.1093,-8.1029,-8.0893,-8.0764,-8.0659,-8.0173,-7.9802,-7.9579,-7.8954,-7.8535,-7.8389,-7.8246,-7.8125,-7.8075,-7.8662,-7.8919,-7.8993,-7.9507,-7.98,-7.9837,-8.0021,-8.0241,-8.0461,-8.1012,-8.1636,-8.215,-8.2406,-8.2553,-8.2627,-8.3324,-8.3728,-8.3801,-8.4535,-8.4939,-8.4939,-8.5159,-8.5159,-8.5049,-8.571,-8.6114,-8.6151,-8.6701,-8.7031,-8.7031,-8.7031,-8.7031,-8.7031,-8.7031,-8.7105,-8.7325,-8.7325,-8.7325,-8.7325,-8.7362,-8.7252,-8.7031,-8.7031,-8.7031,-8.7031,-8.7031,-8.7142,-8.7362,-8.7325,-8.7362,-8.7435,-8.8059,-8.8466,-8.8578,-8.9236,-9.0005,-9.0482,-9.0739,-9.1289,-9.206,-9.2648,-9.3529,-9.4556,-9.5768,-9.6722,-9.7089,-9.7787,-9.8557,-9.9328,-10.0136,-10.087,-10.1384,-10.1494,-10.1457,-10.1494,-10.1457,-10.1494,-10.1494,-10.1494,-10.1494,-10.1494,-10.1494,-10.1494,-10.1494,-10.1494,-10.1677,-10.1934,-10.1898,-10.1971,-10.2228,-10.2632,-10.3329,-10.4284,-10.4798,-10.5385,-8.3506,-8.2526,-8.1539,-8.117,-8.1093,-8.1131,-8.1061,-8.1003,-8.0796,-8.0926,-8.1258,-8.0725,-8.0593,-8.0735,-7.9707,-7.9431,-7.9793,-7.9669,-7.9543,-7.9543,-7.969,-7.9727,-7.9727,-7.9764,-7.9837,-8.0057,-8.0645,-8.1305,-8.2003,-8.2113,-8.215,-8.2296,-8.2994,-8.3361,-8.3471,-8.4132,-8.4535,-8.4646,-8.5343,-8.5747,-8.582,-8.6481,-8.6444,-8.5894,-8.6518,-8.6885,-8.6921,-8.6958,-8.7031,-8.7031,-8.7031,-8.7031,-8.7031,-8.7031,-8.7399,-8.7986,-8.8133,-8.8133,-8.8096,-8.8096,-8.7802,-8.7142,-8.7031,-8.7031,-8.7031,-8.7105,-8.7399,-8.8059,-8.8169,-8.828,-8.8283,-8.894,-8.931,-8.942,-9.0043,-9.0555,-9.0702,-9.14,-9.2097,-9.2831,-9.3198,-9.3969,-9.529,-9.6171,-9.7016,-9.7713,-9.8484,-9.9255,-9.9989,-10.0833,-10.1274,-10.142,-10.1494,-10.1494,-10.1494,-10.1494,-10.1494,-10.1494,-10.1494,-10.1494,-10.1494,-10.1494,-10.1531,-10.1604,-10.1788,-10.2081,-10.2485,-10.2779,-10.2999,-10.3182,-10.3403,-10.399,-10.4614,-10.4944,-10.5495,-8.4765,-8.3179,-8.224,-8.1593,-8.117,-8.1631,-8.1798,-8.1738,-8.2064,-8.2071,-8.1843,-8.1366,-8.1237,-8.1401,-8.077,-8.0235,-7.99,-7.98,-7.98,-7.9837,-8.0314,-8.0571,-8.0608,-8.1048,-8.1342,-8.1379,-8.1636,-8.2186,-8.2884,-8.2994,-8.3251,-8.3691,-8.4022,-8.4168,-8.4315,-8.4976,-8.5343,-8.5453,-8.6151,-8.6591,-8.6554,-8.6848,-8.6848,-8.6628,-8.6848,-8.7031,-8.7031,-8.7031,-8.7031,-8.7031,-8.7031,-8.7031,-8.7068,-8.7509,-8.7876,-8.8206,-8.8683,-8.8757,-8.828,-8.8206,-8.7839,-8.7105,-8.7031,-8.7031,-8.7105,-8.7472,-8.7912,-8.8316,-8.9234,-8.9711,-8.9784,-9.0041,-9.0153,-9.03,-9.085,-9.1583,-9.206,-9.2464,-9.2941,-9.3712,-9.4299,-9.5107,-9.6061,-9.6979,-9.7566,-9.7897,-9.8594,-9.9438,-10.0099,-10.0576,-10.0943,-10.1384,-10.1494,-10.1494,-10.1494,-10.1494,-10.1494,-10.1494,-10.1494,-10.1531,-10.1531,-10.2081,-10.2265,-10.2412,-10.2485,-10.2852,-10.3403,-10.3623,-10.388,-10.3917,-10.41,-10.4577,-10.4944,-10.5275,-10.5642,-8.5274,-8.4003,-8.3054,-8.2401,-8.1977,-8.2446,-8.2611,-8.2514,-8.2797,-8.2787,-8.2452,-8.1996,-8.1883,-8.2028,-8.1772,-8.125,-8.058,-8.0608,-8.0534,-8.0608,-8.1158,-8.1379,-8.1489,-8.1929,-8.2186,-8.2223,-8.2508,-8.2847,-8.3398,-8.3698,-8.4101,-8.4535,-8.4829,-8.5013,-8.5123,-8.5783,-8.6187,-8.6297,-8.6738,-8.6995,-8.7031,-8.7031,-8.7031,-8.7031,-8.7031,-8.7031,-8.7031,-8.7031,-8.7031,-8.7031,-8.7031,-8.7105,-8.7435,-8.7912,-8.8463,-8.894,-8.9234,-8.9197,-8.8647,-8.8353,-8.7876,-8.7105,-8.7031,-8.7068,-8.7362,-8.7912,-8.839,-8.905,-8.9858,-9.0665,-9.0922,-9.0996,-9.0996,-9.1107,-9.1694,-9.2427,-9.3015,-9.3308,-9.3822,-9.463,-9.5658,-9.6465,-9.7052,-9.7823,-9.8337,-9.8594,-9.9181,-9.9769,-10.0466,-10.0686,-10.0833,-10.1347,-10.1494,-10.1494,-10.1494,-10.1494,-10.1531,-10.1531,-10.1934,-10.1861,-10.2045,-10.2632,-10.3072,-10.3182,-10.3476,-10.388,-10.4247,-10.4504,-10.4614,-10.4614,-10.4908,-10.5385,-10.5532,-10.5568,-10.6082,-8.5004,-8.4714,-8.3978,-8.3516,-8.3401,-8.338,-8.3281,-8.314,-8.2909,-8.3063,-8.316,-8.2601,-8.2501,-8.269,-8.2412,-8.2206,-8.1966,-8.1929,-8.1929,-8.1966,-8.2076,-8.2076,-8.2113,-8.215,-8.226,-8.237,-8.3088,-8.3427,-8.3654,-8.4327,-8.4662,-8.4798,-8.549,-8.5783,-8.582,-8.6518,-8.6958,-8.6921,-8.6995,-8.7031,-8.7031,-8.7031,-8.7031,-8.7031,-8.7031,-8.7031,-8.7031,-8.7031,-8.7031,-8.7031,-8.7068,-8.7435,-8.8096,-8.8353,-8.894,-8.9968,-8.9821,-8.9491,-8.9234,-8.8573,-8.7876,-8.7178,-8.7068,-8.7435,-8.7949,-8.8316,-8.8977,-9.0078,-9.0592,-9.0922,-9.1583,-9.1767,-9.184,-9.1877,-9.2501,-9.2978,-9.3382,-9.3896,-9.463,-9.5584,-9.6795,-9.775,-9.8043,-9.8594,-9.9292,-9.9842,-10.0209,-10.054,-10.1127,-10.1274,-10.142,-10.1457,-10.1494,-10.1531,-10.1531,-10.1531,-10.1567,-10.1677,-10.2228,-10.2522,-10.2852,-10.3366,-10.3806,-10.399,-10.432,-10.4724,-10.5091,-10.5348,-10.5678,-10.5789,-10.6046,-10.6009,-10.6046,-10.6156,-10.667,-8.5466,-8.4907,-8.4632,-8.4132,-8.3708,-8.4071,-8.4164,-8.4021,-8.4203,-8.415,-8.3803,-8.3264,-8.2941,-8.2684,-8.238,-8.2251,-8.2186,-8.2186,-8.2186,-8.2186,-8.2186,-8.2186,-8.2186,-8.2186,-8.248,-8.3067,-8.3889,-8.4485,-8.4976,-8.528,-8.5646,-8.6261,-8.6481,-8.6628,-8.6591,-8.6885,-8.7031,-8.7031,-8.7031,-8.7031,-8.7031,-8.7031,-8.7031,-8.7031,-8.7031,-8.7031,-8.7031,-8.7031,-8.7031,-8.7031,-8.7545,-8.8206,-8.894,-8.9564,-8.9821,-8.9821,-9.0115,-8.9674,-8.872,-8.8353,-8.7839,-8.7288,-8.7472,-8.7876,-8.8316,-8.9234,-8.9968,-9.0665,-9.1069,-9.1583,-9.184,-9.2391,-9.2648,-9.2721,-9.2941,-9.3639,-9.4593,-9.5401,-9.6282,-9.7016,-9.7603,-9.808,-9.8704,-9.9402,-10.0026,-10.0319,-10.0723,-10.1237,-10.142,-10.1494,-10.1494,-10.1494,-10.1531,-10.1824,-10.2155,-10.2412,-10.2522,-10.2669,-10.3036,-10.3329,-10.366,-10.4137,-10.4577,-10.4834,-10.5201,-10.5458,-10.5825,-10.6082,-10.6302,-10.6376,-10.6266,-10.6302,-10.6413,-10.6743,-10.7183,-8.5819,-8.5368,-8.5363,-8.5055,-8.4593,-8.4959,-8.4974,-8.4824,-8.4957,-8.4656,-8.4064,-8.3564,-8.3121,-8.2744,-8.2417,-8.2251,-8.2186,-8.2186,-8.2186,-8.2186,-8.2186,-8.2186,-8.226,-8.2517,-8.3067,-8.3875,-8.4669,-8.5294,-8.5783,-8.6082,-8.6485,-8.6921,-8.7031,-8.6995,-8.7031,-8.7031,-8.7031,-8.7031,-8.7031,-8.7031,-8.7031,-8.7031,-8.7031,-8.7031,-8.7031,-8.7178,-8.7399,-8.7435,-8.7472,-8.7582,-8.8243,-8.9014,-8.9821,-9.0298,-9.0372,-9.0041,-8.9931,-8.9564,-8.839,-8.7912,-8.7729,-8.7582,-8.7912,-8.8536,-8.9087,-9.0188,-9.0629,-9.1106,-9.1473,-9.195,-9.2317,-9.2721,-9.3308,-9.3969,-9.4042,-9.4593,-9.5768,-9.6392,-9.6979,-9.764,-9.8154,-9.8704,-9.9438,-10.0209,-10.0723,-10.0833,-10.1164,-10.1494,-10.1494,-10.1494,-10.1604,-10.1788,-10.2045,-10.2448,-10.2999,-10.3293,-10.3513,-10.3733,-10.4027,-10.4173,-10.4394,-10.5054,-10.5605,-10.5642,-10.5899,-10.5899,-10.6192,-10.6229,-10.6376,-10.6376,-10.6376,-10.6413,-10.6523,-10.7037,-10.7551,-8.6094,-8.6094,-8.6094,-8.6017,-8.5945,-8.5811,-8.559,-8.5433,-8.5013,-8.4551,-8.405,-8.3564,-8.3158,-8.277,-8.2508,-8.2279,-8.2186,-8.2186,-8.2186,-8.2223,-8.2296,-8.237,-8.248,-8.3287,-8.4058,-8.4682,-8.5521,-8.582,-8.604,-8.6591,-8.7031,-8.6995,-8.7031,-8.7031,-8.7031,-8.7031,-8.7031,-8.7031,-8.7031,-8.7031,-8.7031,-8.7031,-8.7031,-8.7031,-8.7142,-8.7472,-8.7949,-8.8316,-8.839,-8.8426,-8.9124,-8.9858,-9.0482,-9.0665,-9.0555,-9.0335,-8.9748,-8.8977,-8.8169,-8.7655,-8.7509,-8.8023,-8.8426,-8.8904,-9.0188,-9.0629,-9.1069,-9.1583,-9.1877,-9.2244,-9.2831,-9.3345,-9.4042,-9.5254,-9.5437,-9.5841,-9.6539,-9.6685,-9.7126,-9.7897,-9.8668,-9.9438,-10.0172,-10.098,-10.1274,-10.142,-10.1457,-10.1457,-10.1531,-10.1677,-10.1971,-10.2265,-10.2558,-10.3219,-10.3806,-10.399,-10.4284,-10.4798,-10.4981,-10.5054,-10.5128,-10.5715,-10.6156,-10.6229,-10.6302,-10.6339,-10.6376,-10.6376,-10.6376,-10.6376,-10.6376,-10.6413,-10.6816,-10.7404,-10.8101,-8.6094,-8.6094,-8.6094,-8.6094,-8.606,-8.5887,-8.5742,-8.559,-8.5181,-8.4694,-8.4255,-8.3767,-8.326,-8.288,-8.2534,-8.238,-8.2251,-8.2223,-8.2186,-8.2296,-8.2847,-8.3067,-8.3398,-8.4499,-8.5233,-8.5563,-8.6224,-8.6701,-8.6701,-8.6885,-8.7031,-8.7031,-8.7031,-8.7031,-8.7031,-8.7031,-8.7031,-8.7031,-8.7031,-8.7031,-8.7031,-8.7031,-8.7031,-8.7068,-8.7549,-8.7952,-8.8353,-8.9381,-8.9968,-8.9968,-9.0152,-9.0665,-9.1289,-9.0922,-9.0372,-8.9784,-8.9014,-8.8206,-8.7619,-8.7692,-8.7986,-8.828,-8.9271,-9.0152,-9.0519,-9.1143,-9.151,-9.1913,-9.2317,-9.2831,-9.3235,-9.4153,-9.5254,-9.6135,-9.6318,-9.6428,-9.6649,-9.6759,-9.7199,-9.8521,-9.8961,-9.9769,-10.076,-10.1274,-10.1494,-10.1494,-10.1494,-10.1567,-10.1677,-10.2045,-10.2412,-10.2779,-10.3146,-10.3917,-10.4504,-10.4687,-10.5091,-10.5789,-10.5972,-10.5899,-10.5935,-10.6119,-10.6302,-10.6376,-10.6339,-10.6376,-10.6376,-10.6376,-10.6376,-10.6486,-10.6523,-10.6633,-10.733,-10.7991,-10.8762,-8.6094,-8.6094,-8.6094,-8.6094,-8.606,-8.5958,-8.5815,-8.5667,-8.5311,-8.4924,-8.4503,-8.3998,-8.3452,-8.2987,-8.2659,-8.2444,-8.2223,-8.2553,-8.2737,-8.292,-8.3911,-8.4389,-8.4682,-8.549,-8.5967,-8.6334,-8.6775,-8.6958,-8.6995,-8.7031,-8.7031,-8.7031,-8.7031,-8.7031,-8.7031,-8.7031,-8.7031,-8.7031,-8.7031,-8.7031,-8.7031,-8.7031,-8.7252,-8.7472,-8.8062,-8.8395,-8.9271,-9.0445,-9.0959,-9.0776,-9.0922,-9.1326,-9.162,-9.1069,-9.0262,-8.9454,-8.8647,-8.7986,-8.7692,-8.7986,-8.8536,-8.916,-9.0225,-9.0702,-9.1106,-9.1583,-9.1803,-9.1877,-9.2611,-9.3198,-9.3822,-9.507,-9.6098,-9.6575,-9.6722,-9.6722,-9.6722,-9.7016,-9.775,-9.8741,-9.9475,-10.0026,-10.131,-10.1457,-10.1494,-10.1494,-10.1494,-10.1714,-10.2008,-10.2485,-10.3036,-10.3513,-10.3953,-10.4687,-10.5238,-10.5495,-10.5495,-10.6192,-10.6339,-10.6376,-10.6376,-10.6376,-10.6376,-10.6376,-10.6376,-10.6413,-10.6486,-10.6559,-10.667,-10.6743,-10.678,-10.722,-10.7954,-10.8578,-10.9312,-8.6094,-8.6094,-8.6094,-8.6094,-8.606,-8.6031,-8.5923,-8.5779,-8.5473,-8.5143,-8.4787,-8.4306,-8.373,-8.3165,-8.2843,-8.2644,-8.2435,-8.2994,-8.3508,-8.4022,-8.4939,-8.5637,-8.582,-8.593,-8.6371,-8.6811,-8.6995,-8.7031,-8.7031,-8.7031,-8.7031,-8.7031,-8.7031,-8.7031,-8.7031,-8.7031,-8.7031,-8.7031,-8.7031,-8.7031,-8.7068,-8.7215,-8.7545,-8.8023,-8.8576,-8.9383,-9.0445,-9.1326,-9.14,-9.0629,-9.1326,-9.151,-9.151,-9.0849,-9.0005,-8.9307,-8.8573,-8.8169,-8.8243,-8.8426,-8.9087,-9.0188,-9.0592,-9.0996,-9.1546,-9.1767,-9.1877,-9.2097,-9.2721,-9.3675,-9.4666,-9.5914,-9.6502,-9.6722,-9.6722,-9.6722,-9.6869,-9.7419,-9.8227,-9.9035,-9.9805,-10.0576,-10.12,-10.1494,-10.1494,-10.1531,-10.1641,-10.2081,-10.2558,-10.3146,-10.3843,-10.4577,-10.5054,-10.5495,-10.5935,-10.6266,-10.6229,-10.6376,-10.6376,-10.6376,-10.6376,-10.6376,-10.6376,-10.6413,-10.6633,-10.6743,-10.6743,-10.6853,-10.711,-10.7367,-10.7661,-10.8175,-10.8725,-10.9202,-10.9826,-8.6094,-8.6094,-8.6094,-8.6094,-8.606,-8.6031,-8.5996,-8.5961,-8.5628,-8.5311,-8.5013,-8.4514,-8.396,-8.3452,-8.3061,-8.2991,-8.3226,-8.35,-8.4022,-8.5306,-8.5527,-8.6187,-8.6591,-8.6701,-8.6811,-8.7031,-8.7031,-8.7031,-8.7031,-8.7031,-8.7031,-8.7031,-8.7031,-8.7031,-8.7031,-8.7031,-8.7031,-8.7031,-8.7031,-8.7031,-8.7178,-8.7586,-8.8059,-8.8426,-8.9454,-9.0519,-9.1326,-9.1693,-9.14,-9.0886,-9.0739,-9.0849,-9.0629,-8.9564,-8.8867,-8.8683,-8.8426,-8.8206,-8.8426,-8.9344,-9.0188,-9.0592,-9.1179,-9.162,-9.173,-9.184,-9.217,-9.2721,-9.3565,-9.4593,-9.5804,-9.6392,-9.6685,-9.6722,-9.6722,-9.6722,-9.6832,-9.7419,-9.83,-9.9035,-9.9842,-10.0613,-10.1384,-10.1457,-10.1531,-10.1567,-10.1934,-10.2448,-10.3109,-10.3843,-10.4541,-10.5311,-10.5678,-10.5972,-10.6082,-10.6376,-10.6376,-10.6486,-10.6559,-10.6633,-10.6596,-10.6743,-10.6853,-10.6926,-10.7,-10.711,-10.7257,-10.7771,-10.8175,-10.8395,-10.8578,-10.9019,-10.9496,-10.99,-11.0193,-8.6094,-8.6094,-8.6094,-8.6094,-8.6094,-8.606,-8.6065,-8.5992,-8.5779,-8.5513,-8.5228,-8.4703,-8.4205,-8.375,-8.3514,-8.3571,-8.3733,-8.4308,-8.5159,-8.6151,-8.6371,-8.6591,-8.6885,-8.7031,-8.7031,-8.7031,-8.7031,-8.7031,-8.7031,-8.7031,-8.7031,-8.7031,-8.7031,-8.7031,-8.7031,-8.7031,-8.7031,-8.7031,-8.7031,-8.7031,-8.7142,-8.7769,-8.8723,-8.931,-9.0519,-9.14,-9.173,-9.1767,-9.1363,-9.0739,-9.0262,-9.0041,-8.9895,-8.894,-8.8463,-8.8683,-8.8353,-8.872,-8.9381,-9.0078,-9.0739,-9.1143,-9.1583,-9.1693,-9.195,-9.2134,-9.2574,-9.3235,-9.4153,-9.5401,-9.6539,-9.6722,-9.6722,-9.6722,-9.6722,-9.6722,-9.6869,-9.7713,-9.8594,-9.9255,-10.0172,-10.087,-10.1347,-10.1457,-10.1824,-10.2045,-10.2265,-10.2815,-10.399,-10.4651,-10.5128,-10.5715,-10.6082,-10.6339,-10.6302,-10.6376,-10.6376,-10.6596,-10.6853,-10.7,-10.7147,-10.7294,-10.7514,-10.7514,-10.7514,-10.7771,-10.8028,-10.8615,-10.9092,-10.9276,-10.9496,-10.9863,-11.0193,-11.0524,-11.0744,-8.6094,-8.6094,-8.6094,-8.6094,-8.6094,-8.6094,-8.6094,-8.606,-8.5887,-8.5667,-8.5393,-8.4878,-8.4356,-8.3971,-8.3982,-8.394,-8.4396,-8.5227,-8.6334,-8.6775,-8.6885,-8.6921,-8.7031,-8.7031,-8.7031,-8.7031,-8.7031,-8.7031,-8.7031,-8.7031,-8.7031,-8.7031,-8.7031,-8.7031,-8.7031,-8.7031,-8.7031,-8.7031,-8.7031,-8.7178,-8.7399,-8.8062,-8.9199,-9.0557,-9.1253,-9.1693,-9.173,-9.1583,-9.1179,-9.0445,-8.9674,-8.9307,-8.905,-8.872,-8.8463,-8.916,-8.883,-8.9344,-9.0115,-9.0702,-9.1143,-9.1767,-9.1803,-9.1913,-9.2134,-9.2648,-9.3198,-9.3932,-9.485,-9.5951,-9.6612,-9.6722,-9.6722,-9.6722,-9.6722,-9.6759,-9.7126,-9.8227,-9.8924,-9.9292,-10.0319,-10.1274,-10.142,-10.1531,-10.2045,-10.2522,-10.2779,-10.3329,-10.4504,-10.5348,-10.5752,-10.5935,-10.6266,-10.6376,-10.6376,-10.6376,-10.6376,-10.6633,-10.7,-10.733,-10.7587,-10.7918,-10.8064,-10.8028,-10.8101,-10.8431,-10.8872,-10.9423,-10.9826,-11.0047,-11.0267,-11.0487,-11.0817,-11.1148,-11.1221,-8.6094,-8.6094,-8.6094,-8.6094,-8.6094,-8.6094,-8.6094,-8.606,-8.5887,-8.5704,-8.5433,-8.4968,-8.4454,-8.4154,-8.4195,-8.4669,-8.5471,-8.6261,-8.6811,-8.6995,-8.7031,-8.7031,-8.7031,-8.7031,-8.7031,-8.7031,-8.7031,-8.7031,-8.7031,-8.7031,-8.7031,-8.7031,-8.7031,-8.7031,-8.7031,-8.7031,-8.7031,-8.7031,-8.7105,-8.7399,-8.7949,-8.883,-8.9931,-9.1326,-9.162,-9.1657,-9.1546,-9.1106,-9.0445,-8.9638,-8.883,-8.8536,-8.85,-8.8353,-8.85,-8.883,-8.9564,-9.0188,-9.0702,-9.1253,-9.1546,-9.1767,-9.1877,-9.2244,-9.2684,-9.3161,-9.3896,-9.4923,-9.5768,-9.6539,-9.6685,-9.6722,-9.6722,-9.6722,-9.6759,-9.6979,-9.764,-9.8411,-9.9145,-9.9402,-10.0503,-10.1494,-10.1494,-10.1641,-10.2118,-10.2705,-10.3219,-10.3917,-10.5018,-10.5715,-10.6156,-10.6266,-10.6339,-10.6376,-10.6376,-10.6376,-10.6413,-10.6633,-10.7,-10.7636,-10.7918,-10.8345,-10.8565,-10.9092,-10.9202,-10.9423,-10.9863,-11.0267,-11.0487,-11.0671,-11.0854,-11.1001,-11.1111,-11.1221,-11.1221,-8.6094,-8.6094,-8.6094,-8.6094,-8.6094,-8.6094,-8.6094,-8.606,-8.5887,-8.5704,-8.5393,-8.4924,-8.4669,-8.4588,-8.4711,-8.5456,-8.6323,-8.6775,-8.7031,-8.7031,-8.7031,-8.7031,-8.7031,-8.7031,-8.7031,-8.7031,-8.7031,-8.7031,-8.7031,-8.7031,-8.7031,-8.7031,-8.7031,-8.7031,-8.7031,-8.7031,-8.7031,-8.7068,-8.7399,-8.7802,-8.8316,-8.9381,-9.0665,-9.1363,-9.14,-9.1216,-9.1033,-9.0408,-8.9601,-8.8977,-8.883,-8.8573,-8.8573,-8.894,-8.9417,-8.9564,-9.0188,-9.0849,-9.1143,-9.162,-9.1767,-9.184,-9.217,-9.2611,-9.3235,-9.3896,-9.4813,-9.5804,-9.6318,-9.6722,-9.6722,-9.6722,-9.6722,-9.6722,-9.6722,-9.7089,-9.7823,-9.8631,-9.9181,-9.9659,-10.0723,-10.142,-10.1494,-10.1751,-10.2191,-10.2852,-10.3586,-10.4504,-10.5532,-10.5972,-10.6376,-10.6376,-10.6376,-10.6376,-10.6376,-10.6376,-10.6523,-10.678,-10.7342,-10.7893,-10.8578,-10.9276,-11.012,-11.0854,-11.0854,-11.0524,-11.0597,-11.0891,-11.1111,-11.1258,-11.1221,-11.1221,-11.1221,-11.1221,-11.1221,-8.6094,-8.6094,-8.6094,-8.6094,-8.6094,-8.6094,-8.6094,-8.6026,-8.5852,-8.5628,-8.5391,-8.4871,-8.4707,-8.4984,-8.5348,-8.6,-8.6958,-8.7031,-8.7031,-8.7031,-8.7031,-8.7031,-8.7031,-8.7031,-8.7031,-8.7031,-8.7031,-8.7031,-8.7031,-8.7031,-8.7031,-8.7031,-8.7031,-8.7031,-8.7031,-8.7031,-8.7031,-8.7435,-8.7802,-8.8243,-8.8977,-9.0041,-9.0996,-9.1473,-9.0922,-9.0592,-9.0335,-8.9601,-8.9124,-8.883,-8.883,-8.9014,-8.8977,-8.9895,-9.0629,-9.0812,-9.0849,-9.1216,-9.1546,-9.1767,-9.1877,-9.217,-9.2721,-9.3161,-9.3932,-9.4923,-9.5951,-9.6575,-9.6722,-9.6722,-9.6722,-9.6722,-9.6722,-9.6722,-9.6759,-9.7089,-9.8007,-9.8851,-9.9622,-10.0246,-10.109,-10.1384,-10.1457,-10.1677,-10.2081,-10.3072,-10.3843,-10.4761,-10.5642,-10.6082,-10.6376,-10.6376,-10.6376,-10.6376,-10.6376,-10.6376,-10.6633,-10.7,-10.7783,-10.8566,-10.9472,-11.034,-11.1184,-11.1955,-11.1882,-11.1588,-11.1588,-11.1625,-11.1882,-11.1919,-11.1625,-11.1368,-11.1295,-11.1221,-11.1221,-8.6094,-8.6094,-8.6094,-8.6094,-8.6094,-8.6094,-8.606,-8.5996,-8.5779,-8.5473,-8.5143,-8.4722,-8.4628,-8.5056,-8.5704,-8.6354,-8.6843,-8.7031,-8.7031,-8.7031,-8.7031,-8.7031,-8.7031,-8.7031,-8.7031,-8.7031,-8.7031,-8.7031,-8.7031,-8.7031,-8.7031,-8.7031,-8.7031,-8.7068,-8.7178,-8.7215,-8.7399,-8.7949,-8.8206,-8.8904,-9.0078,-9.1033,-9.1143,-9.0849,-9.0519,-9.0152,-8.9564,-8.8904,-8.861,-8.9087,-8.8647,-8.9087,-9.0041,-9.0445,-9.1033,-9.1436,-9.1657,-9.1693,-9.1767,-9.1913,-9.2207,-9.2684,-9.3161,-9.3896,-9.4887,-9.5768,-9.6502,-9.6649,-9.6722,-9.6722,-9.6722,-9.6722,-9.6722,-9.6759,-9.6832,-9.7603,-9.8521,-9.9145,-9.9916,-10.0613,-10.1347,-10.142,-10.1494,-10.1714,-10.2045,-10.3072,-10.41,-10.4944,-10.5715,-10.6119,-10.6376,-10.6376,-10.6376,-10.6376,-10.6376,-10.6376,-10.6743,-10.7183,-10.8076,-10.9081,-11.0097,-11.1001,-11.1955,-11.2506,-11.2543,-11.291,-11.3167,-11.3167,-11.2946,-11.2543,-11.2176,-11.1735,-11.1331,-11.1258,-11.1258,-8.6094,-8.6094,-8.6094,-8.6094,-8.6094,-8.6026,-8.5996,-8.5852,-8.559,-8.527,-8.4992,-8.4896,-8.517,-8.5683,-8.634,-8.6733,-8.6958,-8.7031,-8.7031,-8.7031,-8.7031,-8.7031,-8.7031,-8.7031,-8.7031,-8.7031,-8.7031,-8.7031,-8.7031,-8.7031,-8.7031,-8.7031,-8.7068,-8.7325,-8.7545,-8.7655,-8.8169,-8.8793,-8.9344,-8.9931,-9.0519,-9.0886,-9.0739,-8.9968,-8.9528,-8.9124,-8.8793,-8.8463,-8.8316,-8.883,-8.9014,-8.9821,-9.0555,-9.0996,-9.1473,-9.1657,-9.1948,-9.1948,-9.184,-9.2244,-9.2721,-9.3272,-9.3932,-9.5034,-9.5988,-9.6465,-9.6722,-9.6722,-9.6722,-9.6722,-9.6722,-9.6722,-9.6722,-9.6795,-9.7199,-9.8007,-9.8888,-9.9548,-10.0209,-10.0907,-10.1494,-10.1494,-10.1494,-10.1567,-10.1934,-10.2815,-10.377,-10.4614,-10.5422,-10.6046,-10.6266,-10.6376,-10.6376,-10.6376,-10.6376,-10.6376,-10.6853,-10.7367,-10.8138,-10.9252,-11.0487,-11.1552,-11.2416,-11.3333,-11.3864,-11.4231,-11.4672,-11.4231,-11.3534,-11.3093,-11.2689,-11.2322,-11.1955,-11.1368,-11.1331,-8.6094,-8.6094,-8.6094,-8.6094,-8.6094,-8.6031,-8.5887,-8.5704,-8.5352,-8.5089,-8.507,-8.5296,-8.579,-8.6241,-8.6722,-8.6958,-8.6995,-8.7031,-8.7031,-8.7031,-8.7031,-8.7031,-8.7031,-8.7031,-8.7031,-8.7031,-8.7031,-8.7031,-8.7031,-8.7031,-8.7031,-8.7031,-8.7325,-8.7619,-8.8059,-8.8463,-8.8904,-8.9674,-9.0188,-9.0482,-9.0592,-9.0372,-8.9858,-8.9197,-8.8573,-8.8206,-8.8206,-8.8206,-8.8206,-8.916,-8.9858,-9.0555,-9.0996,-9.1436,-9.1693,-9.1876,-9.1948,-9.2204,-9.2389,-9.2758,-9.3309,-9.4006,-9.4813,-9.5951,-9.6428,-9.6722,-9.6722,-9.6722,-9.6722,-9.6795,-9.6906,-9.7016,-9.7273,-9.7566,-9.7897,-9.8594,-9.9255,-9.9879,-10.0466,-10.1053,-10.1494,-10.1494,-10.1494,-10.1494,-10.1898,-10.2632,-10.3476,-10.4237,-10.5201,-10.6046,-10.6229,-10.6376,-10.6376,-10.6376,-10.6376,-10.6523,-10.6963,-10.7624,-10.8395,-10.9423,-11.0781,-11.1976,-11.304,-11.392,-11.4672,-11.5185,-11.5369,-11.4745,-11.4121,-11.3864,-11.3607,-11.3167,-11.2653,-11.1955,-11.1368,-8.6094,-8.6094,-8.6094,-8.6094,-8.606,-8.6031,-8.5815,-8.5471,-8.5143,-8.5091,-8.5333,-8.5804,-8.6121,-8.631,-8.6764,-8.7031,-8.7031,-8.7031,-8.7031,-8.7031,-8.7031,-8.7031,-8.7031,-8.7031,-8.7031,-8.7031,-8.7031,-8.7031,-8.7068,-8.7178,-8.7105,-8.7105,-8.7655,-8.8023,-8.8536,-8.9124,-8.9638,-9.0188,-9.0445,-9.0372,-9.0188,-8.9784,-8.9087,-8.85,-8.8243,-8.8206,-8.8206,-8.839,-8.894,-9.0078,-9.0555,-9.0996,-9.1436,-9.1657,-9.1803,-9.1876,-9.2204,-9.2607,-9.3159,-9.3491,-9.4044,-9.5109,-9.5988,-9.6502,-9.6685,-9.6722,-9.6722,-9.6759,-9.6832,-9.7166,-9.7533,-9.7864,-9.8043,-9.8411,-9.8741,-9.9218,-9.9769,-10.0172,-10.0723,-10.1274,-10.1494,-10.1494,-10.1494,-10.1494,-10.1604,-10.2301,-10.343,-10.4311,-10.5495,-10.6302,-10.6302,-10.6376,-10.6376,-10.6376,-10.6413,-10.6706,-10.722,-10.7991,-10.8762,-10.9863,-11.1074,-11.2196,-11.3187,-11.3883,-11.4561,-11.5332,-11.592,-11.5369,-11.4929,-11.4782,-11.4451,-11.3791,-11.3093,-11.2359,-11.1735,-8.6094,-8.6094,-8.6065,-8.6065,-8.6031,-8.589,-8.5552,-8.5219,-8.5186,-8.5515,-8.5998,-8.6148,-8.6414,-8.6722,-8.6843,-8.7031,-8.7031,-8.7031,-8.7031,-8.7031,-8.7031,-8.7031,-8.7031,-8.7031,-8.7031,-8.7031,-8.7031,-8.7031,-8.7031,-8.7472,-8.7729,-8.7912,-8.8206,-8.8904,-8.9454,-8.9784,-9.0188,-9.0262,-9.0078,-8.9674,-8.9087,-8.8904,-8.828,-8.7545,-8.8059,-8.8169,-8.8353,-8.9234,-8.9931,-9.0519,-9.1069,-9.1436,-9.173,-9.1803,-9.1877,-9.2023,-9.257,-9.3413,-9.4111,-9.437,-9.4926,-9.6067,-9.6654,-9.6838,-9.6762,-9.6722,-9.6722,-9.6832,-9.7163,-9.7607,-9.779,-9.8378,-9.8814,-9.9139,-9.9506,-9.9989,-10.0283,-10.065,-10.0907,-10.142,-10.1494,-10.1494,-10.1494,-10.1494,-10.1641,-10.1971,-10.3174,-10.4374,-10.5558,-10.6376,-10.6376,-10.6376,-10.6376,-10.6376,-10.6376,-10.689,-10.7477,-10.8285,-10.9092,-11.0157,-11.1148,-11.1992,-11.282,-11.3644,-11.4305,-11.4855,-11.5332,-11.5736,-11.5699,-11.5369,-11.4818,-11.4121,-11.346,-11.2726,-11.2029,-8.6094,-8.6094,-8.6031,-8.5996,-8.5926,-8.5667,-8.5384,-8.525,-8.5248,-8.5694,-8.6343,-8.6377,-8.6685,-8.7059,-8.71,-8.7031,-8.7031,-8.7031,-8.7031,-8.7031,-8.7031,-8.7031,-8.7031,-8.7031,-8.7031,-8.7068,-8.7325,-8.7399,-8.7509,-8.8206,-8.8683,-8.8904,-8.894,-8.9638,-8.9784,-9.0262,-9.0262,-9.0078,-8.9454,-8.8867,-8.828,-8.8243,-8.8133,-8.7655,-8.8243,-8.883,-8.9197,-8.9968,-9.0555,-9.1033,-9.1436,-9.173,-9.1877,-9.2024,-9.2243,-9.261,-9.3342,-9.4438,-9.517,-9.5762,-9.6101,-9.6916,-9.7064,-9.6989,-9.6838,-9.6799,-9.6759,-9.7163,-9.7603,-9.8121,-9.8419,-9.9223,-9.9732,-10.0093,-10.0429,-10.0796,-10.0833,-10.109,-10.1237,-10.1494,-10.1494,-10.1494,-10.1677,-10.1788,-10.2412,-10.2779,-10.376,-10.4897,-10.5862,-10.6376,-10.6376,-10.6376,-10.6376,-10.6376,-10.6413,-10.678,-10.7257,-10.8358,-10.9202,-11.0157,-11.1111,-11.1756,-11.2343,-11.302,-11.3607,-11.4231,-11.4561,-11.4745,-11.5296,-11.5846,-11.5112,-11.4268,-11.357,-11.2836,-11.2065,-8.6094,-8.6094,-8.6031,-8.5926,-8.5819,-8.5433,-8.5475,-8.5561,-8.5296,-8.5529,-8.6266,-8.666,-8.6885,-8.7031,-8.7031,-8.7031,-8.7031,-8.7031,-8.7031,-8.7031,-8.7031,-8.7031,-8.7031,-8.7031,-8.7105,-8.7252,-8.7619,-8.7986,-8.8206,-8.9014,-8.9711,-9.0041,-8.9968,-8.9968,-8.9528,-8.9454,-8.9454,-8.9344,-8.8647,-8.8243,-8.8243,-8.8206,-8.8133,-8.8426,-8.8977,-8.9638,-9.0078,-9.0519,-9.1069,-9.151,-9.1657,-9.184,-9.2024,-9.2611,-9.2978,-9.3417,-9.4409,-9.5573,-9.6683,-9.7329,-9.7595,-9.7496,-9.7465,-9.7248,-9.6989,-9.6948,-9.7052,-9.753,-9.808,-9.8856,-9.9554,-10.0289,-10.065,-10.0907,-10.1164,-10.1274,-10.131,-10.131,-10.142,-10.1494,-10.1494,-10.1531,-10.1868,-10.2272,-10.3117,-10.377,-10.4567,-10.5374,-10.6156,-10.6376,-10.6376,-10.6376,-10.6376,-10.6376,-10.6376,-10.6486,-10.7037,-10.8175,-10.9166,-10.9973,-11.0707,-11.1368,-11.1919,-11.2396,-11.2946,-11.3534,-11.3607,-11.3681,-11.4415,-11.5039,-11.4965,-11.4305,-11.3607,-11.291,-11.2139,-8.6099,-8.6031,-8.589,-8.5858,-8.5952,-8.5861,-8.564,-8.5387,-8.5567,-8.6094,-8.6617,-8.6958,-8.7031,-8.7031,-8.7031,-8.7031,-8.7031,-8.7031,-8.7031,-8.7031,-8.7031,-8.7031,-8.7031,-8.7105,-8.7288,-8.7729,-8.8169,-8.8647,-8.9014,-8.9748,-9.0188,-9.0519,-9.0078,-9.0005,-8.9821,-8.9417,-8.861,-8.8463,-8.7949,-8.7619,-8.8133,-8.8243,-8.8536,-8.9014,-8.9784,-9.0372,-9.0702,-9.1069,-9.1473,-9.1767,-9.184,-9.2097,-9.2464,-9.3125,-9.3492,-9.4226,-9.529,-9.666,-9.7878,-9.8592,-9.8514,-9.8158,-9.7817,-9.7536,-9.7138,-9.7541,-9.7757,-9.8195,-9.8929,-9.9627,-10.0142,-10.084,-10.12,-10.1274,-10.142,-10.142,-10.142,-10.1457,-10.1494,-10.1494,-10.1494,-10.2008,-10.2375,-10.3154,-10.3999,-10.4394,-10.5081,-10.5521,-10.6266,-10.6339,-10.6376,-10.6376,-10.6376,-10.6376,-10.6413,-10.6523,-10.6853,-10.7807,-10.8615,-10.9349,-11.0083,-11.0781,-11.1184,-11.1515,-11.2176,-11.28,-11.2836,-11.302,-11.3644,-11.4048,-11.3864,-11.3627,-11.3003,-11.249,-11.205,-8.6065,-8.6,-8.6049,-8.6032,-8.6017,-8.5915,-8.5635,-8.5595,-8.6195,-8.6691,-8.6921,-8.7031,-8.7031,-8.7031,-8.7031,-8.7031,-8.7031,-8.7031,-8.7031,-8.7031,-8.7031,-8.7031,-8.7068,-8.7288,-8.7729,-8.8243,-8.8867,-8.9381,-8.9821,-9.0335,-9.0372,-9.0005,-8.9454,-8.9271,-8.9124,-8.8463,-8.7802,-8.7766,-8.7545,-8.7766,-8.828,-8.8757,-8.9344,-8.9931,-9.0519,-9.1069,-9.1179,-9.1436,-9.1803,-9.1877,-9.2134,-9.2464,-9.3051,-9.3712,-9.4228,-9.522,-9.6449,-9.7787,-9.8825,-9.9367,-9.9111,-9.8552,-9.8357,-9.8035,-9.7763,-9.8097,-9.8535,-9.9121,-9.9926,-10.0325,-10.0766,-10.1347,-10.142,-10.1494,-10.1494,-10.1494,-10.1494,-10.1494,-10.1531,-10.1531,-10.2045,-10.2558,-10.3256,-10.4063,-10.4991,-10.5275,-10.5594,-10.6009,-10.6302,-10.6339,-10.6376,-10.6376,-10.6376,-10.6376,-10.6449,-10.6596,-10.7,-10.7514,-10.8064,-10.8652,-10.9386,-11.0047,-11.034,-11.0744,-11.1441,-11.1992,-11.2102,-11.2359,-11.2689,-11.2673,-11.2526,-11.238,-11.227,-11.1923,-11.154,-8.6026,-8.6041,-8.6503,-8.6387,-8.5981,-8.5813,-8.5918,-8.6352,-8.6966,-8.7095,-8.6995,-8.7031,-8.7031,-8.7031,-8.7031,-8.7031,-8.7031,-8.7031,-8.7031,-8.7031,-8.7031,-8.7068,-8.7362,-8.7766,-8.828,-8.8867,-8.9491,-9.0115,-9.0555,-9.0335,-9.0005,-8.9381,-8.872,-8.85,-8.8133,-8.7839,-8.7435,-8.7582,-8.7839,-8.8206,-8.883,-8.9711,-9.0225,-9.0776,-9.1216,-9.1546,-9.1657,-9.1767,-9.1877,-9.2134,-9.2611,-9.3015,-9.3675,-9.4703,-9.5442,-9.6431,-9.7806,-9.8604,-9.9213,-9.9519,-9.967,-9.9276,-9.8829,-9.871,-9.8783,-9.8909,-9.9501,-10.0051,-10.0634,-10.0992,-10.1427,-10.1501,-10.1457,-10.1494,-10.1494,-10.1494,-10.1494,-10.1531,-10.1567,-10.1898,-10.2632,-10.3329,-10.432,-10.5165,-10.5532,-10.5789,-10.6046,-10.6119,-10.6339,-10.6339,-10.6376,-10.6376,-10.6376,-10.6376,-10.6486,-10.6596,-10.6743,-10.711,-10.7294,-10.7844,-10.8578,-10.9423,-10.9973,-11.0487,-11.0891,-11.1258,-11.1588,-11.1552,-11.1389,-11.1426,-11.1467,-11.1449,-11.1431,-11.1047,-11.0607,-8.5919,-8.5857,-8.6306,-8.648,-8.6477,-8.6735,-8.6915,-8.7003,-8.7059,-8.6995,-8.7031,-8.7031,-8.7031,-8.7031,-8.7031,-8.7031,-8.7031,-8.7031,-8.7031,-8.7031,-8.7105,-8.7399,-8.7766,-8.8206,-8.8904,-8.9638,-9.0298,-9.0555,-9.0408,-9.0152,-8.9344,-8.8573,-8.8316,-8.7912,-8.7729,-8.7692,-8.7839,-8.7986,-8.8316,-8.8867,-8.9564,-9.0372,-9.0922,-9.1363,-9.1583,-9.1803,-9.1803,-9.1877,-9.2097,-9.2721,-9.2941,-9.3455,-9.4923,-9.5327,-9.5847,-9.7058,-9.8076,-9.8829,-9.9133,-9.9405,-9.9764,-10.0139,-9.9953,-9.9515,-9.9612,-10.008,-10.0684,-10.1055,-10.1308,-10.1555,-10.1617,-10.1531,-10.1531,-10.1494,-10.1494,-10.1494,-10.1531,-10.1677,-10.1824,-10.2742,-10.3439,-10.4173,-10.5201,-10.5678,-10.6046,-10.6266,-10.6376,-10.6376,-10.6376,-10.6376,-10.6376,-10.6376,-10.6376,-10.6376,-10.6376,-10.6449,-10.6523,-10.667,-10.689,-10.733,-10.8321,-10.9129,-10.9753,-11.034,-11.0928,-11.1148,-11.1258,-11.1133,-11.0917,-11.07,-11.07,-11.0736,-11.0607,-11.0181,-10.9656,-8.5884,-8.582,-8.6419,-8.6844,-8.7096,-8.7312,-8.7335,-8.7169,-8.7064,-8.7031,-8.7031,-8.7031,-8.7031,-8.7031,-8.7031,-8.7031,-8.7031,-8.7031,-8.7031,-8.7068,-8.7325,-8.7729,-8.8133,-8.8793,-8.9454,-9.0152,-9.0372,-9.0408,-9.0041,-8.9344,-8.8536,-8.7839,-8.7949,-8.7912,-8.7876,-8.8316,-8.8904,-8.9087,-8.9381,-8.9784,-9.0298,-9.0886,-9.14,-9.1657,-9.1803,-9.184,-9.1913,-9.206,-9.2648,-9.3272,-9.3455,-9.441,-9.5547,-9.5843,-9.6251,-9.7354,-9.7949,-9.8712,-9.9218,-9.9638,-10.0269,-10.0952,-10.1406,-10.1453,-10.1308,-10.1584,-10.1812,-10.2015,-10.1943,-10.2006,-10.1807,-10.1604,-10.1531,-10.1494,-10.1494,-10.1494,-10.1641,-10.1824,-10.2632,-10.3586,-10.4357,-10.5018,-10.5678,-10.6119,-10.6376,-10.6376,-10.6376,-10.6376,-10.6376,-10.6376,-10.6376,-10.6376,-10.6376,-10.6376,-10.6376,-10.6376,-10.6449,-10.6486,-10.6523,-10.711,-10.8101,-10.8945,-10.9643,-11.0414,-11.1111,-11.1133,-11.1007,-11.0791,-11.0609,-11.0296,-10.9788,-10.9438,-10.9277,-10.9241,-10.8568,-8.5923,-8.5896,-8.6807,-8.7395,-8.7683,-8.7468,-8.7237,-8.6995,-8.7031,-8.7031,-8.7031,-8.7031,-8.7031,-8.7031,-8.7031,-8.7031,-8.7031,-8.7031,-8.7031,-8.7068,-8.7729,-8.8133,-8.8573,-8.9601,-8.9674,-8.9784,-8.9895,-8.9968,-8.9199,-8.8503,-8.7839,-8.7142,-8.7839,-8.8169,-8.8426,-8.9124,-8.9711,-9.0078,-9.0372,-9.0702,-9.0886,-9.1363,-9.1803,-9.1803,-9.1913,-9.2024,-9.217,-9.2611,-9.3235,-9.3822,-9.4446,-9.5364,-9.5917,-9.636,-9.6879,-9.7469,-9.8008,-9.8799,-9.9507,-10.0017,-10.088,-10.1799,-10.2769,-10.3037,-10.3051,-10.2749,-10.2848,-10.2771,-10.2754,-10.2276,-10.2043,-10.1807,-10.1611,-10.1684,-10.1714,-10.1824,-10.2008,-10.2522,-10.3586,-10.4467,-10.5018,-10.5678,-10.5935,-10.6376,-10.6376,-10.6376,-10.6376,-10.6376,-10.6376,-10.6376,-10.6376,-10.6376,-10.6376,-10.6376,-10.6376,-10.6376,-10.6376,-10.6376,-10.6486,-10.7073,-10.8175,-10.8945,-10.9606,-11.0326,-11.1007,-11.0917,-11.07,-11.0388,-10.9978,-10.9499,-10.8871,-10.8157,-10.7843,-10.7843,-10.7417,-8.6079,-8.65,-8.7094,-8.7518,-8.7757,-8.7439,-8.7169,-8.7031,-8.7031,-8.7031,-8.7031,-8.7031,-8.7031,-8.7031,-8.7031,-8.7031,-8.7031,-8.7031,-8.7031,-8.7288,-8.7876,-8.828,-8.839,-8.9307,-8.9528,-8.9564,-8.9528,-8.9234,-8.8536,-8.7839,-8.7655,-8.7876,-8.8353,-8.8647,-8.916,-8.9931,-9.0519,-9.0812,-9.1143,-9.14,-9.162,-9.162,-9.1803,-9.2024,-9.2244,-9.2684,-9.3015,-9.3529,-9.4299,-9.4997,-9.5217,-9.5804,-9.6392,-9.684,-9.732,-9.7875,-9.8281,-9.905,-9.9885,-10.0591,-10.1484,-10.2403,-10.3302,-10.4002,-10.4211,-10.3995,-10.3715,-10.3543,-10.3251,-10.2721,-10.2313,-10.1969,-10.1764,-10.1868,-10.2008,-10.2191,-10.2412,-10.3476,-10.4577,-10.5165,-10.5715,-10.6009,-10.6302,-10.6376,-10.6376,-10.6376,-10.6376,-10.6376,-10.6376,-10.6376,-10.6376,-10.6376,-10.6376,-10.6376,-10.6376,-10.6559,-10.6633,-10.6853,-10.7,-10.7624,-10.8358,-10.9299,-11.0289,-11.0441,-11.0791,-11.0517,-11.0109,-10.9692,-10.9268,-10.8568,-10.7843,-10.6984,-10.617,-10.5943,-10.5634,-8.6501,-8.6764,-8.7141,-8.7474,-8.7554,-8.7268,-8.71,-8.7031,-8.7031,-8.7031,-8.7031,-8.7031,-8.7031,-8.7031,-8.7031,-8.7031,-8.7031,-8.7031,-8.7325,-8.7655,-8.7912,-8.8426,-8.8793,-8.9087,-8.8977,-8.8977,-8.8463,-8.8023,-8.7766,-8.7842,-8.7916,-8.8353,-8.872,-8.9454,-9.0041,-9.0665,-9.1106,-9.1179,-9.162,-9.195,-9.217,-9.206,-9.2134,-9.2427,-9.2831,-9.3272,-9.3859,-9.4373,-9.496,-9.5547,-9.5841,-9.6171,-9.6685,-9.7129,-9.7573,-9.8054,-9.8687,-9.9501,-10.0386,-10.1253,-10.2043,-10.3036,-10.3947,-10.4681,-10.4973,-10.4704,-10.4319,-10.4067,-10.3418,-10.29,-10.2426,-10.2046,-10.2101,-10.2236,-10.2485,-10.2742,-10.3403,-10.4394,-10.5201,-10.5789,-10.6119,-10.6192,-10.6376,-10.6376,-10.6376,-10.6376,-10.6376,-10.6376,-10.6376,-10.6413,-10.6413,-10.6486,-10.6523,-10.6449,-10.6413,-10.6706,-10.7073,-10.7294,-10.7587,-10.8395,-10.9202,-11.0179,-11.097,-11.07,-11.0296,-10.9883,-10.9499,-10.8871,-10.7981,-10.7131,-10.6395,-10.5668,-10.4931,-10.4263,-10.4108,-8.7004,-8.6937,-8.7206,-8.7365,-8.7423,-8.7132,-8.7031,-8.7031,-8.7031,-8.7031,-8.7031,-8.7031,-8.7031,-8.7031,-8.7031,-8.7031,-8.7031,-8.7031,-8.7435,-8.7766,-8.8096,-8.8206,-8.8573,-8.9014,-8.861,-8.8096,-8.7545,-8.7509,-8.7472,-8.7769,-8.8246,-8.872,-8.9638,-9.0665,-9.0959,-9.1326,-9.1693,-9.173,-9.2024,-9.2427,-9.2464,-9.2427,-9.2648,-9.2978,-9.3455,-9.3786,-9.4483,-9.5107,-9.5584,-9.5878,-9.6282,-9.6649,-9.7016,-9.7456,-9.8043,-9.8525,-9.9154,-10.0088,-10.0981,-10.175,-10.2744,-10.3703,-10.4571,-10.5078,-10.533,-10.53,-10.4913,-10.4577,-10.3843,-10.3411,-10.2908,-10.2643,-10.2775,-10.2941,-10.3272,-10.3668,-10.455,-10.5321,-10.5836,-10.6387,-10.6423,-10.646,-10.6376,-10.6376,-10.6376,-10.6376,-10.6376,-10.6376,-10.6413,-10.6486,-10.6523,-10.6706,-10.689,-10.6743,-10.667,-10.7,-10.7514,-10.7991,-10.8395,-10.9202,-10.9886,-11.0351,-11.0517,-11.0109,-10.9788,-10.9034,-10.8327,-10.7702,-10.6728,-10.5794,-10.525,-10.4539,-10.3745,-10.3221,-10.2757,-8.7381,-8.7856,-8.7956,-8.7824,-8.7497,-8.7132,-8.7031,-8.7031,-8.6995,-8.7031,-8.6921,-8.6995,-8.7031,-8.6995,-8.7031,-8.7031,-8.7031,-8.7031,-8.7031,-8.7252,-8.7839,-8.7802,-8.7876,-8.8316,-8.7912,-8.7509,-8.7252,-8.7472,-8.7802,-8.8173,-8.8943,-9.0005,-9.0188,-9.0922,-9.1546,-9.1803,-9.184,-9.2024,-9.2501,-9.2941,-9.3051,-9.3199,-9.3456,-9.3932,-9.4701,-9.4995,-9.5511,-9.6061,-9.6355,-9.6539,-9.6685,-9.7089,-9.753,-9.797,-9.8631,-9.9328,-9.9921,-10.0593,-10.1534,-10.2201,-10.3064,-10.3608,-10.435,-10.495,-10.5251,-10.5707,-10.5538,-10.5642,-10.5091,-10.4809,-10.4427,-10.4244,-10.431,-10.445,-10.474,-10.5362,-10.6136,-10.6394,-10.6571,-10.6673,-10.6627,-10.6544,-10.6376,-10.6376,-10.6376,-10.6376,-10.6376,-10.6376,-10.6413,-10.6523,-10.667,-10.6963,-10.7257,-10.733,-10.7367,-10.7587,-10.8028,-10.8578,-10.8969,-10.9269,-10.9676,-11.006,-10.9978,-10.9028,-10.8483,-10.7942,-10.724,-10.626,-10.5679,-10.4743,-10.4211,-10.3405,-10.2654,-10.2131,-10.2004]}]]